[[{"header":{"parameterUnit":"m.s-1","parameterCategory":1,"la1":30.6,"la2":29.2853,"lo1":-89.7004,"lo2":-87.6739,"dy":0.0162,"dx":0.0183,"nx":112,"ny":82,"refTime":"2024-09-17T06:00:00:Z","depth":0,"parameterNumber":2,"parameterNumberName":"U-component_of_WINDS"},"data":[0.0,0.0,0.0,0.0,0.0,0.0,0.0,0.0,0.0,0.0,0.0,0.0,0.0,0.0,0.0,0.0,0.0,0.0,0.0,0.0,0.0,0.0,0.0,0.0,0.0,0.0,0.0,0.0,0.0,0.0,0.0,0.0,0.0,0.0,0.0,0.0,0.0,0.0,0.0,0.0,0.0,0.0,0.0,0.0,0.0,0.0,0.0,0.0,0.0,0.0,0.0,0.0,0.0,0.0,0.0,0.0,0.0,0.0,0.0,0.0,0.0,0.0,0.0,0.0,0.0,0.0,0.0,0.0,0.0,0.0,0.0,0.0,0.0,0.0,0.0,0.0,0.0,0.0,0.0,0.0,0.0,0.0,0.0,0.0,0.0,0.0,0.0,0.0,0.0,0.0,0.0,2.1031,2.3163,2.45,2.45,2.4388,2.294,1.9787,0.0,0.0,0.0,0.0,0.0,0.0,0.0,0.0,0.0,0.0,0.0,0.0,0.0,0.0,0.0,0.0,0.0,0.0,0.0,0.0,0.0,0.0,0.0,0.0,0.0,0.0,0.0,0.0,0.0,0.0,0.0,0.0,0.0,0.0,0.0,0.0,0.0,0.0,0.0,0.0,0.0,0.0,0.0,0.0,0.0,0.0,0.0,0.0,0.0,0.0,0.0,0.0,0.0,0.0,0.0,0.0,0.0,0.0,0.0,0.0,0.0,0.0,0.0,0.0,0.0,0.0,0.0,0.0,0.0,0.0,0.0,0.0,0.0,0.0,0.0,0.0,0.0,0.0,0.0,0.0,0.0,0.0,0.0,0.0,0.0,0.0,0.0,0.0,0.0,0.0,0.0,0.0,0.0,0.0,0.0,0.0,0.0,0.0,0.0,0.0,0.0,0.0,0.0,0.0,1.962,2.2516,2.3832,2.45,2.45,2.3814,2.2312,1.975,0.0,0.0,0.0,0.0,0.0,0.0,0.0,0.0,0.0,0.0,0.0,0.0,0.0,0.0,0.0,0.0,0.0,0.0,0.0,0.0,0.0,0.0,0.0,0.0,0.0,0.0,0.0,0.0,0.0,0.0,0.0,0.0,0.0,0.0,0.0,0.0,0.0,0.0,0.0,0.0,0.0,0.0,0.0,0.0,0.0,0.0,0.0,0.0,0.0,0.0,0.0,0.0,0.0,0.0,0.0,0.0,0.0,0.0,0.0,0.0,0.0,0.0,0.0,0.0,0.0,0.0,0.0,0.0,0.0,0.0,0.0,0.0,0.0,0.0,0.0,0.0,0.0,0.0,0.0,0.0,0.0,0.0,0.0,0.0,0.0,0.0,0.0,0.0,0.0,0.0,0.0,0.0,0.0,0.0,0.0,0.0,0.0,0.0,0.0,0.0,0.0,0.0,0.0,1.9193,2.0752,2.3591,2.4258,2.45,2.45,2.4129,2.268,1.9769,1.8376,0.0,0.0,0.0,0.0,0.0,0.0,0.0,0.0,0.0,0.0,0.0,0.0,0.0,0.0,0.0,0.0,0.0,0.0,0.0,0.0,0.0,0.0,0.0,0.0,0.0,0.0,0.0,0.0,0.0,0.0,0.0,0.0,0.0,0.0,0.0,0.0,0.0,0.0,0.0,0.0,0.0,0.0,0.0,0.0,0.0,0.0,0.0,0.0,0.0,0.0,0.0,0.0,0.0,0.0,0.0,0.0,0.0,0.0,0.0,0.0,0.0,0.0,0.0,0.0,0.0,0.0,0.0,0.0,0.0,0.0,0.0,0.0,0.0,0.0,0.0,0.0,0.0,0.0,0.0,0.0,0.0,0.0,0.0,0.0,0.0,0.0,0.0,0.0,0.0,0.0,0.0,0.0,0.0,0.0,0.0,0.0,0.0,0.0,0.0,0.0,0.0,0.0,2.083,2.1925,2.4258,2.45,2.45,2.45,2.4146,2.268,1.9769,1.7671,0.0,0.0,0.0,0.0,0.0,0.0,0.0,0.0,0.0,0.0,0.0,0.0,0.0,0.0,0.0,0.0,0.0,0.0,0.0,0.0,0.0,0.0,0.0,0.0,0.0,0.0,0.0,0.0,0.0,0.0,0.0,0.0,0.0,0.0,0.0,0.0,0.0,0.0,0.0,0.0,0.0,0.0,0.0,0.0,0.0,0.0,0.0,0.0,0.0,0.0,0.0,0.0,0.0,0.0,0.0,0.0,0.0,0.0,0.0,0.0,0.0,0.0,0.0,0.0,0.0,0.0,0.0,0.0,0.0,0.0,0.0,0.0,0.0,0.0,0.0,0.0,0.0,0.0,0.0,0.0,0.0,0.0,0.0,0.0,0.0,0.0,0.0,0.0,0.0,0.0,0.0,0.0,0.0,0.0,0.0,0.0,0.0,0.0,0.0,0.0,0.0,0.0,2.0883,2.2438,2.4296,2.45,2.45,2.45,2.307,2.1439,1.9713,1.6613,0.0,0.0,0.0,0.0,0.0,0.0,0.0,0.0,0.0,0.0,0.0,0.0,0.0,0.0,0.0,0.0,0.0,0.0,0.0,0.0,0.0,0.0,0.0,0.0,0.0,0.0,0.0,0.0,0.0,0.0,0.0,0.0,0.0,0.0,0.0,0.0,0.0,0.0,0.0,0.0,0.0,0.0,0.0,0.0,0.0,0.0,0.0,0.0,0.0,0.0,0.0,0.0,0.0,0.0,0.0,0.0,0.0,0.0,0.0,0.0,0.0,0.0,0.0,0.0,0.0,0.0,0.0,0.0,0.0,0.0,0.0,0.0,0.0,0.0,0.0,0.0,0.0,0.0,0.0,0.0,0.0,0.0,0.0,0.0,0.0,0.0,0.0,0.0,0.0,0.0,0.0,0.0,0.0,0.0,0.0,0.0,0.0,0.0,0.0,0.0,0.0,0.0,2.0519,2.2039,0.0,2.45,2.45,2.45,2.3423,2.1848,1.9731,0.0,0.0,0.0,0.0,0.0,0.0,0.0,0.0,0.0,0.0,0.0,0.0,0.0,0.0,0.0,0.0,0.0,0.0,0.0,0.0,0.0,0.0,0.0,0.0,0.0,0.0,0.0,0.0,0.0,0.0,0.0,0.0,0.0,0.0,0.0,0.0,0.0,0.0,0.0,0.0,0.0,0.0,0.0,0.0,0.0,0.0,0.0,0.0,0.0,0.0,0.0,0.0,0.0,0.0,0.0,0.0,0.0,0.0,0.0,0.0,0.0,0.0,0.0,0.0,0.0,0.0,0.0,0.0,0.0,0.0,0.0,0.0,0.0,0.0,0.0,0.0,0.0,0.0,0.0,0.0,0.0,0.0,0.0,0.0,0.0,0.0,0.0,0.0,0.0,0.0,0.0,0.0,0.0,0.0,0.0,0.0,0.0,0.0,0.0,0.0,0.0,0.0,1.9305,2.0674,2.2212,0.0,2.45,2.45,2.45,2.3238,2.1513,1.9323,0.0,0.0,0.0,0.0,0.0,0.0,0.0,0.0,0.0,0.0,0.0,0.0,0.0,0.0,0.0,0.0,0.0,0.0,0.0,0.0,0.0,0.0,0.0,0.0,0.0,0.0,0.0,0.0,0.0,0.0,0.0,0.0,0.0,0.0,0.0,0.0,0.0,0.0,0.0,0.0,0.0,0.0,0.0,0.0,0.0,0.0,0.0,0.0,0.0,0.0,0.0,0.0,0.0,0.0,0.0,0.0,0.0,0.0,0.0,0.0,0.0,0.0,0.0,0.0,0.0,0.0,0.0,0.0,0.0,0.0,0.0,0.0,0.0,0.0,0.0,0.0,0.0,0.0,0.0,0.0,0.0,0.0,0.0,0.0,0.0,0.0,0.0,0.0,0.0,0.0,0.0,0.0,0.0,0.0,0.0,0.0,0.0,0.0,0.0,0.0,0.0,0.0,1.9351,2.1472,2.3254,2.4372,2.45,2.45,2.45,2.2235,2.0103,0.0,0.0,0.0,0.0,0.0,0.0,0.0,0.0,0.0,0.0,0.0,0.0,0.0,0.0,0.0,0.0,0.0,0.0,0.0,0.0,0.0,0.0,0.0,0.0,0.0,0.0,0.0,0.0,0.0,0.0,0.0,0.0,0.0,0.0,0.0,0.0,0.0,0.0,0.0,0.0,0.0,0.0,0.0,0.0,0.0,0.0,0.0,0.0,0.0,0.0,0.0,0.0,0.0,0.0,0.0,0.0,0.0,0.0,0.0,0.0,0.0,0.0,0.0,0.0,0.0,0.0,0.0,0.0,0.0,0.0,0.0,0.0,0.0,0.0,0.0,0.0,0.0,0.0,0.0,0.0,0.0,0.0,0.0,0.0,0.0,0.0,0.0,0.0,0.0,0.0,0.0,0.0,0.0,0.0,0.0,0.0,0.0,0.0,0.0,0.0,0.0,0.0,0.0,1.9379,2.1636,2.345,2.4389,2.45,2.45,2.45,2.2755,2.0957,1.9323,0.0,0.0,0.0,0.0,0.0,0.0,0.0,0.0,0.0,0.0,0.0,0.0,0.0,0.0,0.0,0.0,0.0,0.0,0.0,0.0,0.0,0.0,0.0,0.0,0.0,0.0,0.0,0.0,0.0,0.0,0.0,0.0,0.0,0.0,0.0,0.0,0.0,0.0,0.0,0.0,0.0,0.0,0.0,0.0,0.0,0.0,0.0,0.0,0.0,0.0,0.0,0.0,0.0,0.0,0.0,0.0,0.0,0.0,0.0,0.0,0.0,0.0,0.0,0.0,0.0,0.0,0.0,0.0,0.0,0.0,0.0,0.0,0.0,0.0,0.0,0.0,0.0,0.0,0.0,0.0,0.0,0.0,0.0,0.0,0.0,0.0,0.0,0.0,0.0,0.0,0.0,0.0,0.0,0.0,0.0,0.0,0.0,0.0,0.0,0.0,0.0,0.0,1.9257,2.1849,2.3731,2.432,2.4446,2.45,2.45,2.3256,2.1513,1.923,0.0,0.0,0.0,0.0,0.0,0.0,0.0,0.0,0.0,0.0,0.0,0.0,0.0,0.0,0.0,0.0,0.0,0.0,0.0,0.0,0.0,0.0,0.0,0.0,0.0,0.0,0.0,0.0,0.0,0.0,0.0,0.0,0.0,0.0,0.0,0.0,0.0,0.0,0.0,0.0,0.0,0.0,0.0,0.0,0.0,0.0,0.0,0.0,0.0,0.0,0.0,0.0,0.0,0.0,0.0,0.0,0.0,0.0,0.0,0.0,0.0,0.0,0.0,0.0,0.0,0.0,0.0,0.0,0.0,0.0,0.0,0.0,0.0,0.0,0.0,0.0,0.0,0.0,0.0,0.0,0.0,0.0,0.0,0.0,0.0,0.0,0.0,0.0,0.0,0.0,0.0,0.0,0.0,0.0,0.0,0.0,0.0,0.0,0.0,0.0,0.0,0.0,1.9106,2.2063,2.4075,2.421,2.4357,2.4482,2.45,2.3702,2.1866,1.8729,0.0,0.0,0.0,0.0,0.0,0.0,0.0,0.0,0.0,0.0,0.0,0.0,0.0,0.0,0.0,0.0,0.0,0.0,0.0,0.0,0.0,0.0,0.0,0.0,0.0,0.0,0.0,0.0,0.0,0.0,0.0,0.0,0.0,0.0,0.0,0.0,0.0,0.0,0.0,0.0,0.0,0.0,0.0,0.0,0.0,0.0,0.0,0.0,0.0,0.0,0.0,0.0,0.0,0.0,0.0,0.0,0.0,0.0,0.0,0.0,1.6719,0.0,0.0,0.0,0.0,0.0,0.0,0.0,0.0,0.0,0.0,0.0,0.0,0.0,0.0,0.0,0.0,0.0,0.0,0.0,0.0,0.0,0.0,0.0,0.0,0.0,0.0,0.0,0.0,0.0,0.0,0.0,0.0,0.0,0.0,0.0,0.0,0.0,0.0,0.0,0.0,0.0,1.9411,2.2239,2.4229,2.4411,2.4321,2.4321,2.4482,2.3702,2.2367,2.0381,1.8117,0.0,0.0,0.0,0.0,0.0,0.0,0.0,0.0,0.0,0.0,0.0,0.0,0.0,0.0,0.0,0.0,0.0,0.0,0.0,0.0,0.0,0.0,0.0,0.0,0.0,0.0,0.0,0.0,0.0,0.0,0.0,0.0,0.0,0.0,0.0,0.0,0.0,0.0,0.0,0.0,0.0,0.0,0.0,0.0,0.0,0.0,0.0,0.0,0.0,0.0,0.0,0.0,0.0,0.0,0.0,0.0,0.0,0.0,0.0,0.0,1.995,0.0,0.0,0.0,0.0,0.0,0.0,0.0,0.0,0.0,0.0,0.0,0.0,0.0,0.0,0.0,0.0,0.0,0.0,0.0,0.0,0.0,0.0,0.0,0.0,0.0,0.0,0.0,0.0,0.0,0.0,0.0,0.0,0.0,0.0,0.0,0.0,0.0,0.0,0.0,0.0,1.9764,2.2301,2.3999,2.4097,2.4173,2.4229,2.4339,2.4039,2.3126,2.1476,1.9434,0.0,0.0,0.0,0.0,0.0,0.0,0.0,0.0,0.0,0.0,0.0,0.0,0.0,0.0,0.0,0.0,0.0,0.0,0.0,0.0,0.0,0.0,0.0,0.0,0.0,0.0,0.0,0.0,0.0,0.0,0.0,0.0,0.0,0.0,0.0,0.0,0.0,0.0,0.0,0.0,0.0,0.0,0.0,0.0,0.0,0.0,0.0,0.0,0.0,0.0,0.0,0.0,0.0,2.0455,2.0009,2.0135,2.1089,2.1323,2.0996,2.156,2.2512,2.3522,0.0,0.0,0.0,0.0,0.0,0.0,0.0,0.0,0.0,0.0,0.0,0.0,0.0,0.0,0.0,0.0,0.0,0.0,0.0,0.0,0.0,0.0,0.0,0.0,0.0,2.0059,2.0235,0.0,0.0,0.0,0.0,0.0,0.0,0.0,0.0,0.0,0.0,0.0,0.0,2.0369,2.246,2.3798,2.3858,2.4058,2.421,2.4248,2.4411,2.3832,2.2312,2.0827,1.9323,0.0,0.0,0.0,0.0,0.0,0.0,0.0,0.0,0.0,0.0,0.0,0.0,0.0,0.0,0.0,0.0,0.0,0.0,0.0,0.0,0.0,0.0,0.0,0.0,0.0,0.0,0.0,0.0,0.0,0.0,0.0,0.0,1.041,1.3155,0.0,0.0,0.0,0.0,0.0,0.0,0.0,0.0,0.0,0.0,0.0,0.0,0.0,0.0,2.5479,2.3963,2.4046,2.5758,2.4766,2.4504,2.4915,2.5057,2.4879,2.4468,2.4534,0.0,2.2588,2.3489,0.0,0.0,0.0,0.0,0.0,0.0,0.0,0.0,0.0,0.0,0.0,0.0,0.0,0.0,0.0,0.0,0.0,0.0,0.0,0.0,0.0,0.0,2.2593,2.1986,2.2446,2.2803,0.0,2.0223,1.8821,1.854,1.7993,0.0,0.0,0.0,0.0,0.0,0.0,0.0,2.149,2.307,2.4192,2.4375,2.4284,2.4284,2.4465,2.4482,2.4074,2.3091,2.2182,2.1272,2.0344,1.7931,0.0,0.0,0.0,0.0,0.0,0.0,0.0,0.0,0.0,0.0,0.0,0.0,0.0,0.0,0.0,0.0,0.0,0.0,0.0,0.0,0.0,0.0,0.0,0.0,0.0,0.0,0.0,0.0,0.0,1.2442,1.5187,1.6578,1.6738,1.6043,0.0,0.0,0.0,0.0,0.0,0.0,0.0,0.0,0.0,2.5989,2.6132,2.605,2.58,2.514,2.5408,2.6595,2.615,2.5925,2.5904,2.5904,2.5821,2.5673,2.5733,2.5308,2.4587,2.4919,2.3897,2.2075,0.0,0.0,0.0,0.0,2.1818,2.1582,2.2812,2.2374,0.0,2.0787,0.0,0.0,0.0,0.0,0.0,0.0,0.0,0.0,0.0,0.0,0.0,2.4272,2.4534,2.4736,2.4477,2.3646,2.2301,0.0,1.9811,1.9532,1.8279,0.0,0.0,0.0,0.0,0.0,2.237,2.3306,2.3999,2.4191,2.421,2.4229,2.4321,2.4429,2.4351,2.3944,2.3128,2.2516,2.2163,2.0233,1.8562,0.0,0.0,0.0,0.0,0.0,0.0,0.0,0.0,0.0,0.0,0.0,0.0,0.0,0.0,0.0,0.0,0.0,0.0,0.0,0.0,0.0,0.0,0.0,0.0,0.0,0.0,0.0,0.0,1.533,1.8788,1.8788,1.8788,1.7879,0.0,0.0,0.0,0.0,0.0,0.0,2.0,2.2228,2.4938,2.8093,2.8182,2.7487,2.6032,2.5872,2.6211,2.7005,2.7397,2.721,2.6591,2.701,2.7241,2.7299,2.7284,2.7423,2.7568,2.6281,2.5421,2.4787,2.3785,2.3529,2.384,2.4586,2.4363,2.3939,2.5565,2.5516,2.4566,2.3732,0.0,2.2207,2.0989,0.0,0.0,0.0,0.0,2.4054,2.5157,2.529,2.5267,2.5774,2.5825,2.585,2.5997,2.6045,2.5172,0.0,2.1768,2.1498,1.963,0.0,0.0,0.0,0.0,2.2518,2.3655,2.4133,2.4363,2.4365,2.4447,2.4431,2.4303,2.4411,2.45,2.45,2.3888,2.3518,2.3518,2.2163,2.0734,1.9286,0.0,0.0,0.0,0.0,0.0,0.0,0.0,0.0,0.0,0.0,0.0,0.0,0.0,0.0,0.0,0.0,0.0,0.0,0.0,0.0,0.0,0.0,0.0,0.0,0.0,0.0,0.0,0.0,0.0,1.8788,1.8788,0.0,0.0,0.0,0.0,2.2799,2.3155,2.3244,2.3244,2.3405,2.4938,2.8093,2.8182,2.7665,2.656,2.6068,2.6586,2.8128,2.9619,2.953,2.8156,2.974,3.0489,3.0538,3.0107,3.0495,3.1163,2.7843,2.667,2.6936,2.5862,2.6038,2.6877,2.6931,2.6586,2.6136,2.6263,2.654,2.6765,2.6272,2.5568,2.4896,2.4823,2.4823,0.0,0.0,2.533,2.5966,2.6044,2.5895,2.5815,2.6027,2.5924,2.58,2.58,2.5967,2.5863,0.0,2.4257,2.3454,2.2681,0.0,2.1706,2.3274,2.3653,2.4293,2.5773,2.6082,2.5947,2.5384,2.5331,2.5114,2.452,2.45,2.45,2.45,2.4462,2.4425,2.4425,2.3572,2.2683,2.1829,1.9416,0.0,0.0,0.0,0.0,0.0,0.0,0.0,0.0,0.0,0.0,0.0,0.0,0.0,0.0,0.0,0.0,0.0,0.0,0.0,0.0,0.0,0.0,0.0,0.0,0.0,0.0,0.0,0.0,2.1569,2.0018,0.0,0.0,1.9982,2.0107,2.3244,2.5365,2.6506,2.6506,2.6506,2.7487,2.9619,2.969,2.9369,2.8691,2.7772,2.8138,2.9708,3.1278,3.1385,3.0208,3.0808,3.0969,3.0779,3.0628,3.0772,3.1006,2.9782,2.9184,2.9029,2.8681,2.8746,2.9042,2.971,2.9242,2.836,2.8308,2.8066,2.7663,2.6979,2.6548,2.6446,2.7049,2.7622,2.808,2.8112,2.8598,2.9115,2.9124,2.8622,2.812,2.8201,2.7781,2.7379,2.7518,2.7594,2.7459,2.6872,2.5959,2.5028,2.4295,2.4288,2.445,2.4592,2.5114,2.5728,2.6337,2.6493,2.6507,2.6393,2.6375,2.6061,2.5336,2.528,2.5057,2.4537,2.45,2.45,2.45,2.4202,2.3646,2.2794,2.1402,1.9212,0.0,0.0,0.0,0.0,0.0,0.0,0.0,0.0,0.0,0.0,0.0,0.0,0.0,0.0,0.0,0.0,0.0,0.0,0.0,0.0,0.0,0.0,0.0,0.0,0.0,0.0,2.1159,2.3244,2.2585,2.2567,2.4141,2.287,2.2834,2.492,2.7005,2.8182,2.8182,2.8182,2.9173,3.1242,3.1314,3.0993,3.0315,2.944,2.9762,3.1314,3.2384,3.2541,3.1831,3.1831,3.1744,3.1577,3.1577,3.1588,3.1588,3.1588,3.1402,3.1052,3.0585,3.0459,3.0602,3.1063,3.0646,2.9837,2.9779,2.9423,2.8905,2.8352,2.8174,2.8308,2.8918,2.9511,2.9998,3.0089,3.0395,3.0707,3.0792,3.0291,2.9808,2.9848,2.9426,2.9005,2.917,2.9179,2.9062,2.8652,2.7452,2.6249,2.5451,2.5691,2.5949,2.586,2.6327,2.6854,2.7284,2.7383,2.7356,2.7226,2.7209,2.6802,2.5801,2.5708,2.5355,2.4555,2.45,2.45,2.45,2.4221,2.3795,2.3203,2.1885,2.0121,1.7931,0.0,0.0,0.0,0.0,0.0,0.0,0.0,0.0,0.0,0.0,0.0,0.0,0.0,0.0,0.0,0.0,0.0,0.0,0.0,0.0,0.0,0.0,0.0,2.7754,2.5561,2.3636,2.3636,2.6417,2.7745,2.6175,2.7442,2.8342,2.8342,2.8342,2.8342,2.8342,2.8342,2.9762,3.2809,3.2916,3.2416,3.135,3.0832,3.1367,3.2916,3.2916,3.2916,3.2916,3.2916,3.2965,3.3096,3.3104,3.3086,3.3086,3.3086,3.3086,3.2942,3.1462,3.1186,3.1575,3.098,3.0677,3.0547,3.0547,3.0529,3.0511,3.0529,3.0547,3.0547,3.0582,3.0582,3.0582,3.0582,3.0582,3.0641,3.0808,3.0693,3.0606,3.0772,3.0657,3.0511,3.0511,3.0511,3.0511,3.0511,2.882,2.7132,2.6333,2.6032,2.6215,2.7186,2.7337,0.0,2.8658,2.8815,2.8534,2.7904,2.7834,2.7292,2.5894,2.5745,2.5392,2.4592,2.4518,2.45,2.45,2.3702,2.324,2.324,2.0882,1.9657,1.962,0.0,0.0,0.0,0.0,0.0,0.0,0.0,0.0,0.0,0.0,0.0,0.0,0.0,0.0,0.0,0.0,0.0,0.0,0.0,0.0,0.0,0.0,2.4581,2.7754,2.7433,2.6898,2.6898,2.969,3.1421,3.0975,3.1332,3.1599,3.1599,3.1599,3.1599,3.1599,3.1599,3.1992,3.288,3.2916,3.2773,3.2438,3.2295,3.2456,3.2916,3.2916,3.2916,3.2916,3.2916,3.2916,3.2965,3.2948,3.293,3.293,3.293,3.293,3.2925,3.2588,3.2547,3.2576,3.2437,3.1946,3.1367,3.1367,3.0993,3.06,3.1171,3.1367,3.1474,3.2045,3.2224,3.2224,3.2224,3.2224,3.2255,3.2317,3.1857,3.1398,3.1458,3.0951,3.0511,3.0511,3.0511,3.0511,3.0511,3.0005,2.9382,2.8631,2.7969,2.762,2.7906,2.8083,0.0,2.8551,2.8718,2.8795,2.8754,2.8739,2.8381,2.751,2.6916,2.6228,2.5429,2.4816,2.45,2.45,2.4276,2.4129,2.4129,2.2309,2.1049,0.0,0.0,0.0,0.0,0.0,0.0,0.0,0.0,0.0,0.0,0.0,0.0,0.0,0.0,0.0,0.0,0.0,0.0,0.0,0.0,0.0,0.0,2.3512,2.6282,2.8538,2.9637,2.969,2.8342,3.0582,3.2416,3.288,3.2505,3.2434,3.288,3.2916,3.2916,3.2916,3.3491,3.3758,3.3595,3.3987,3.4079,3.3865,3.3205,3.2916,3.2934,3.4222,3.4847,3.4863,3.4383,3.4062,0.0,3.3526,3.358,3.383,3.3526,3.358,0.0,0.0,0.0,0.0,0.0,3.263,3.2188,3.2188,3.1885,3.1581,3.2045,3.2188,3.2277,3.2773,3.2916,3.2916,3.2916,3.2916,3.2916,3.2916,3.2545,3.2188,3.2188,3.1849,3.151,3.151,3.151,3.151,3.151,3.1225,0.0,3.044,2.9708,2.9201,2.9267,2.9404,2.9493,2.9572,2.9428,2.9369,2.9465,2.9177,2.8672,2.7954,2.7204,0.0,0.0,0.0,2.4351,2.3962,2.3962,0.0,0.0,0.0,0.0,0.0,0.0,0.0,0.0,1.9678,1.9162,0.0,0.0,0.0,0.0,0.0,0.0,0.0,0.0,0.0,0.0,0.0,0.0,0.0,0.0,0.0,0.0,2.5668,2.8574,2.9726,3.1617,3.1813,2.8905,3.0279,3.1831,3.2827,3.2059,3.1951,3.3005,3.3094,3.3148,3.3223,0.0,0.0,0.0,0.0,3.5685,3.5204,3.383,3.3169,3.3291,3.606,3.7398,3.738,3.6417,3.5703,3.5168,3.4526,3.4615,3.5168,3.4508,3.4615,3.5061,3.3598,3.2987,3.2916,3.2916,3.2916,3.2916,3.2916,0.0,0.0,3.2916,3.2916,3.2934,3.3023,3.3027,3.3045,3.3148,3.308,3.3027,3.3027,3.2987,3.2916,3.2916,3.2916,3.2916,3.2916,3.2916,3.2916,3.2916,3.2313,3.1831,3.1831,3.11,3.0552,3.0736,3.0792,3.0875,3.1038,3.0501,3.0108,3.0159,0.0,0.0,2.8004,2.7221,2.6456,2.5757,2.5116,2.4408,2.3648,2.3611,2.3574,2.3481,2.3574,2.3962,2.4648,2.4723,2.5114,2.5671,2.1092,2.0085,0.0,0.0,0.0,0.0,0.0,0.0,0.0,0.0,0.0,0.0,0.0,0.0,0.0,0.0,0.0,2.5401,2.7094,2.8727,3.0172,3.1813,3.2362,3.0868,3.1813,3.2684,3.2898,3.2719,3.3059,3.413,3.4202,3.4559,3.5346,3.5667,0.0,3.5079,3.5257,3.5311,3.5204,3.49,3.4972,3.54,0.0,0.0,3.6292,3.6078,3.5703,3.5204,3.5061,3.5079,3.5204,3.5061,3.5079,3.5114,3.4222,3.3473,3.2916,3.2916,3.2916,3.2916,3.2916,3.2916,3.2916,3.2916,3.2916,3.3009,3.3669,3.3865,0.0,3.4597,3.4329,3.3865,3.3865,3.3384,3.2916,3.2916,3.2916,3.2916,3.2916,3.2916,3.2916,3.2916,3.2759,3.2684,3.2684,3.1457,3.0493,3.0552,3.0725,3.0884,3.0939,3.0812,3.0856,3.1189,3.035,2.9844,3.0021,2.8656,2.7749,2.7601,2.686,2.6377,2.6191,2.6173,2.5875,2.5225,2.5838,2.5968,2.5466,2.6117,2.6373,2.6219,2.4875,2.4728,0.0,0.0,0.0,0.0,0.0,0.0,0.0,0.0,0.0,0.0,0.0,1.8057,2.0659,0.0,2.6364,2.7932,2.9191,3.0225,3.0993,3.2135,3.2491,3.1421,3.2255,3.2916,3.2916,3.3241,3.3723,3.4258,3.4401,3.4738,3.5204,3.5721,3.5864,3.5614,3.6114,3.6399,3.6399,3.6399,3.6542,3.6792,3.6792,3.6792,3.6792,3.6792,3.6649,3.6381,3.5989,3.6024,3.6399,3.6399,3.6167,3.5757,3.54,3.4757,3.4044,3.4044,3.3812,3.3491,3.3491,3.3491,3.3491,3.3491,3.374,3.4133,3.4543,3.465,3.474,3.5114,3.4936,3.465,3.465,3.4347,3.4044,3.4044,3.3758,3.3491,3.3491,3.3169,3.2916,3.2916,3.2916,3.2916,3.2916,3.2224,3.1689,3.1689,3.1828,3.1918,3.1918,3.1559,3.1366,3.1574,3.0785,3.0197,3.0006,2.8682,2.7714,2.7372,2.7063,2.6916,2.6916,2.6916,2.6655,2.617,2.6558,2.6499,2.6013,2.6399,2.6738,2.6986,2.6759,2.6493,0.0,0.0,0.0,0.0,0.0,0.0,0.0,0.0,1.863,1.9534,1.985,2.1068,2.467,2.7406,2.9329,3.0064,3.1151,3.1889,3.1714,3.2392,3.2563,3.1564,3.2317,3.2938,3.2983,3.3672,3.4189,3.4406,3.4652,3.4898,3.5113,3.5864,3.6292,3.6292,3.7131,3.7577,3.7577,3.7577,3.7577,3.7577,3.7577,3.7577,3.7577,3.7577,3.7577,3.7541,3.6899,3.6952,3.7449,3.7449,3.7038,3.6379,3.6379,3.6025,3.5509,3.5276,3.4829,3.4311,3.4311,3.4311,3.4311,3.4311,3.4722,3.5239,3.54,3.5435,3.5471,3.5632,3.556,3.5435,3.5435,3.5328,3.5204,3.5204,3.4757,3.4311,3.4311,3.3687,3.3116,3.3116,3.3023,3.2916,3.2916,3.2916,3.2916,3.2916,3.293,3.2961,3.2961,3.2375,3.2013,3.2074,3.1297,3.0427,2.9589,2.863,2.7762,2.7071,2.7222,2.7322,2.7322,2.7322,2.7169,2.6841,2.6946,2.6878,2.6536,2.6863,2.7354,2.7991,2.8136,2.7628,1.7579,1.7446,1.7723,1.854,1.9681,2.0846,0.0,0.0,2.5183,2.3336,2.3595,2.5721,3.0884,3.2117,3.2175,3.1584,3.2225,3.253,3.181,3.2384,3.2684,3.2091,3.255,3.3004,3.3319,3.3807,3.448,3.5465,3.5687,3.6238,3.7184,3.7345,3.7398,3.7398,3.7523,3.7577,3.7577,3.7577,3.7577,3.7577,3.7577,3.7577,3.7577,3.7577,3.7577,3.7577,3.7487,3.7285,3.6978,3.6978,3.6689,3.6219,3.6219,3.6429,3.6594,3.5563,3.5168,3.5096,3.5096,3.5096,3.5096,3.5096,3.5132,3.5346,3.6042,3.6274,3.6417,3.7113,3.6809,3.6274,3.6274,3.5739,3.5204,3.5204,3.515,3.5096,3.5096,3.449,3.3972,3.3972,3.3384,3.2916,3.2916,3.2916,3.2916,3.2916,3.3055,3.316,3.316,3.3087,3.3123,3.3375,3.2448,3.1325,3.0057,2.9817,2.9393,2.8602,2.8746,2.8835,2.8835,2.8835,2.8485,2.7669,2.8251,2.8195,2.7479,2.8895,2.9522,2.9475,3.0143,3.0026,1.9877,2.0218,2.0693,0.0,2.2546,2.3986,2.587,2.6219,2.6341,2.7091,2.8435,3.0221,3.2478,3.2521,3.2144,0.0,3.2074,3.2074,3.175,3.1967,3.2197,3.2109,3.2283,3.2594,3.3082,3.3635,3.453,3.5757,3.6542,3.6986,3.7055,3.7073,3.7073,3.7073,3.715,3.7319,3.7577,3.7319,3.7206,3.7206,3.69,3.6781,3.6781,3.6781,3.6781,3.6781,3.6781,3.6684,3.6481,3.6481,3.6416,3.6266,3.6232,3.6316,3.6493,3.6257,3.606,3.5899,3.5899,3.5899,3.5899,3.5899,3.6221,3.6649,3.6988,3.7095,3.7166,3.7487,3.7345,3.7095,3.7095,3.6845,3.6595,3.6595,3.6238,3.5899,3.5899,3.5293,3.474,3.474,3.4115,3.3598,3.3598,3.3205,3.2916,3.2916,3.2961,3.3024,3.3024,3.3024,3.3055,3.3178,3.2367,3.1601,3.1042,3.0649,3.0314,2.9997,3.0159,3.0277,3.0277,3.0277,3.002,2.9555,2.9823,2.9737,2.9296,2.9962,3.0258,3.0173,3.0496,3.0711,2.1395,0.0,0.0,2.3192,2.4016,2.5246,2.7467,2.7172,2.7075,2.9399,3.105,3.2231,3.2802,3.2403,3.1967,3.1696,3.1826,3.1854,3.1428,3.1754,3.1901,3.1694,3.1806,3.195,3.2214,3.3442,3.4753,3.5966,3.6856,3.7243,3.6956,3.6781,3.6701,3.6741,3.686,3.6978,3.7206,3.686,3.6701,3.6684,3.634,3.6172,3.6172,3.6172,3.6172,3.6172,3.6172,3.6147,3.602,3.602,3.5994,3.5898,3.5864,3.5933,3.6105,3.6522,3.6626,3.6558,3.6558,3.6631,3.672,3.672,3.7113,3.7577,3.7577,3.7577,3.7577,3.7577,3.7577,3.7577,3.7577,3.7577,3.7577,3.7577,3.7131,3.672,3.672,3.6096,3.5543,3.5543,3.4936,3.4401,3.4401,3.374,3.3223,3.3223,3.3027,3.2916,3.2916,3.2916,3.2916,3.2916,3.2367,3.1938,3.1706,3.1303,3.0941,3.0725,3.0903,3.1011,3.1011,3.1011,3.0957,3.082,3.0736,3.0639,3.0511,3.0725,3.0832,3.085,3.1064,3.1474,0.0,0.0,2.1745,2.3375,2.3651,2.4041,2.5959,2.7464,2.8782,2.9723,2.9946,3.0584,3.2537,3.2884,3.2369,3.0821,3.1789,3.2222,3.0767,3.1834,3.2217,3.0717,3.1004,3.1106,0.0,3.3311,3.5374,3.6136,3.6504,3.6995,3.754,3.7034,3.6741,3.69,3.69,3.6684,3.6274,3.6232,3.6215,3.6215,3.6232,3.6172,3.6172,3.6172,3.6172,3.6172,3.6172,3.5977,3.5616,3.5616,3.5362,3.493,3.493,3.5241,3.5661,3.6062,3.6504,3.6865,3.6865,3.717,3.7541,3.7541,3.7559,3.7577,3.7577,3.7577,3.7577,3.7577,3.7577,3.7577,3.7577,3.7577,3.7577,3.7577,3.7559,3.7541,3.7541,3.6916,3.6363,3.6363,3.5721,3.5186,3.5186,3.4561,3.4062,3.4062,3.3384,3.2916,3.2916,3.2916,3.2916,3.2916,3.2898,3.2527,3.176,3.1671,3.1332,3.0564,3.0707,3.082,3.082,3.082,3.082,3.0792,3.061,3.0511,3.0511,3.1278,3.1653,3.1671,3.2456,3.283,2.262,0.0,2.4401,2.5452,2.6389,2.7162,2.7833,2.8821,2.9848,3.0727,3.0576,3.0845,3.2588,3.2039,3.13,3.13,3.1847,3.2083,3.1553,3.2209,3.2177,3.0659,3.1258,0.0,0.0,0.0,0.0,3.4873,3.505,3.5442,3.6256,3.6079,3.5994,3.6037,3.6037,3.6105,3.6172,3.595,3.582,3.582,3.5481,3.5362,3.5362,3.5362,3.5362,3.5362,3.5362,3.527,3.5148,3.5148,3.5024,3.4899,3.4899,3.4977,3.5195,3.5661,3.6062,3.6522,3.715,3.7466,3.7577,3.7577,3.7577,3.7577,3.7577,3.7577,3.7577,3.7577,3.7577,3.7577,3.7577,3.7577,3.7577,3.7577,3.7577,3.7577,3.7577,3.738,3.7184,3.7184,3.6542,3.6006,3.6006,3.5346,3.4847,3.4847,3.3723,3.2916,3.2916,3.2916,3.2916,3.2916,3.2916,3.2809,3.2509,3.2491,3.2367,3.2099,3.2174,3.2187,3.2187,3.2187,3.2187,3.2187,3.2143,3.2081,3.2081,3.2349,3.2491,3.2491,3.2759,3.2916,2.3981,2.5163,2.6328,2.7219,2.832,2.9178,2.9178,2.9621,3.0189,3.0747,3.0658,3.0446,3.03,2.8708,2.8265,3.0845,3.1357,3.1586,3.1951,3.263,3.263,3.1437,3.1868,3.2481,0.0,0.0,0.0,3.4652,3.459,3.4878,3.5786,3.5705,3.5616,3.5616,3.5842,3.5932,3.5732,3.5751,3.5631,3.5362,3.5024,3.4899,3.4899,3.4899,3.4899,3.4899,3.4899,3.4899,3.4899,3.4899,3.4899,3.4899,3.4899,3.4977,3.5195,3.5644,3.6062,3.6522,3.715,3.7449,3.7577,3.7577,3.7577,3.7577,3.7577,3.7577,3.7577,3.7577,3.7577,3.7577,3.7577,3.7577,3.7577,3.7577,3.7577,3.7577,3.7577,3.7577,3.7577,3.7577,3.7166,3.6827,3.6827,3.6167,3.5543,3.5257,3.4365,3.3616,3.3348,3.3062,3.2916,3.2916,3.2916,3.2916,3.2916,3.2916,3.2916,3.2916,3.2916,3.2916,3.2916,3.2916,3.2916,3.2916,3.2916,3.2916,3.2916,3.2916,3.2916,3.2916,3.2916,3.3045,2.5341,2.6393,2.7365,2.8547,2.9399,2.9918,2.9918,2.9886,2.987,2.9902,3.0074,2.9255,2.5983,0.0,2.3835,2.94,3.051,3.0974,3.1868,3.3061,3.3557,0.0,0.0,0.0,0.0,0.0,0.0,3.5493,0.0,3.5287,3.6156,3.5878,3.569,3.569,3.6354,3.6155,3.5015,3.5711,3.5711,3.5015,3.5015,3.5015,3.5015,3.5015,3.4982,3.4965,3.4965,3.4932,3.4899,3.4899,3.4899,3.4899,3.4899,3.5148,3.5616,3.6062,3.6481,3.686,3.69,3.7243,3.7577,3.7577,3.7577,3.7577,3.7577,3.7577,3.7577,3.7577,3.7577,3.7577,3.7577,3.7577,3.7577,3.7577,3.7577,3.7577,3.7577,3.7577,3.7577,3.7577,3.7577,3.7577,3.7577,3.697,3.6203,3.5453,3.5293,3.4989,3.4258,3.3491,3.3009,3.3009,3.3009,3.2991,3.2969,3.2969,3.2952,3.2916,3.2916,3.2916,3.2916,3.2916,3.2916,3.2916,3.2916,3.2916,3.2916,3.2916,3.2916,3.2916,3.2916,3.333,2.6782,2.7737,2.853,2.9432,2.9772,2.9918,2.9918,2.9497,2.9227,2.9805,2.8257,2.5924,2.2944,0.0,0.0,2.7065,3.0328,0.0,3.2067,3.3508,0.0,3.2845,0.0,3.4121,3.3557,3.4005,0.0,0.0,3.5293,3.5226,3.6028,3.6452,3.672,3.672,3.6903,3.687,3.6539,3.6738,3.6738,3.6539,3.6539,3.6539,3.6539,3.6539,3.6241,3.5727,3.5727,3.5413,3.4899,3.4899,3.4899,3.4899,3.4899,3.4977,3.5148,3.5933,3.6274,3.6481,3.7206,3.7503,3.7577,3.7577,3.7577,3.7577,3.7577,3.7577,3.7577,3.7577,3.7577,3.7577,3.7577,3.7577,3.7577,3.7577,3.7577,3.7577,3.7577,3.7577,3.7577,3.7577,3.7577,3.7577,3.7577,3.7416,3.7202,3.7006,3.647,3.581,3.5025,3.474,3.4615,3.4615,3.4615,3.4401,3.3847,3.3794,3.3526,3.2952,3.2916,3.2916,3.2916,3.2916,3.2916,3.2916,3.2916,3.2916,3.2916,3.2916,3.2916,3.2916,3.2916,3.333,2.7883,2.8709,2.9399,2.9805,2.9918,2.974,2.9065,2.8595,2.8142,2.7551,2.6102,0.0,2.1778,2.3244,0.0,0.0,0.0,0.0,3.2199,3.3524,3.422,0.0,3.4386,0.0,3.4319,3.4949,3.5545,0.0,3.5628,3.5694,3.6439,3.6887,3.7102,3.7102,3.7417,3.7599,3.7599,3.7268,3.7102,3.7102,3.7102,3.7102,3.7102,3.7102,3.6887,3.6489,0.0,3.6257,3.5843,3.5512,3.5578,3.5794,3.5148,3.5224,3.574,3.5851,3.619,3.6563,3.7111,3.7411,3.7577,3.7577,3.7577,3.7577,3.7577,3.7577,3.7577,3.7577,3.7577,3.7577,3.7577,3.7577,3.7577,3.7577,3.7577,3.7577,3.7577,3.7577,3.7577,3.7577,3.7577,3.7577,3.7577,3.7577,3.7577,3.7577,3.7202,3.6756,3.631,3.565,3.5204,3.5204,3.5204,3.5043,3.4633,3.4294,3.3919,3.3455,3.308,3.2916,3.2916,3.2916,3.2916,3.2916,3.2916,3.2916,3.2916,3.3241,3.3419,3.3419,3.3758,3.4329,2.8741,2.9432,2.9918,2.9918,2.9837,2.9372,2.8012,2.7559,2.6814,2.4644,0.0,2.3414,2.1649,2.2344,2.4099,2.685,0.0,2.9499,3.2299,3.3326,3.4054,3.48,3.4899,3.4932,3.5032,3.5628,3.6075,3.629,3.629,3.6572,3.7218,3.735,3.74,3.74,3.8013,3.8361,3.8361,3.7715,3.74,3.74,3.74,3.74,3.74,3.74,3.735,3.7251,0.0,0.0,3.7052,3.6406,3.6522,3.6986,3.5694,3.5783,3.6544,3.5977,3.6208,3.6821,3.686,3.7206,3.7577,3.7577,3.7577,3.7577,3.7577,3.7577,3.7577,3.7577,3.7577,3.7577,3.7577,3.7577,3.7577,3.7577,3.7577,3.7577,3.7577,3.7577,3.7577,3.7577,3.7577,3.7577,3.7577,3.7577,3.7577,3.7577,3.7577,3.7577,3.7577,3.6381,3.5525,3.5525,3.5525,3.5489,3.5382,3.4775,3.4365,3.4258,3.358,3.3205,3.3205,3.3205,3.3205,3.3205,3.3205,3.3205,3.3205,3.3919,3.4258,3.4258,3.49,3.5632,2.9529,2.9821,2.9918,2.9918,2.9464,2.8757,2.7899,2.6814,0.0,0.0,2.3398,2.2426,2.1487,2.2606,2.4211,2.5905,0.0,0.0,0.0,0.0,3.4054,0.0,0.0,0.0,0.0,0.0,0.0,0.0,0.0,3.788,3.8013,3.8576,3.8891,3.8891,3.9023,3.909,3.909,3.8957,3.8891,3.8891,3.8891,3.8891,3.8891,3.8891,3.8576,3.803,3.803,0.0,3.7102,3.697,3.6986,3.7069,3.682,3.6472,3.6154,3.643,3.6454,3.6399,3.6781,3.7206,3.7577,3.7577,3.7577,3.7577,3.7577,3.7577,3.7577,3.7577,3.7577,3.7577,3.7577,3.7577,3.7577,3.7577,3.7577,3.7577,3.7577,3.7577,3.7577,3.7577,3.7577,3.7577,3.7577,3.7577,3.7577,3.7577,3.7577,3.7577,3.7577,3.7345,3.7166,3.7166,3.7166,3.6899,3.6256,3.6078,3.5721,3.5061,3.4882,3.4811,3.4811,3.4811,3.4811,3.4811,3.4811,3.4811,3.4811,3.4954,3.5025,3.5025,3.515,3.5632,2.9708,2.9918,2.9918,2.9918,2.9367,2.8401,2.6944,0.0,0.0,0.0,2.1989,2.1503,2.0402,0.0,0.0,0.0,0.0,0.0,0.0,0.0,0.0,0.0,0.0,0.0,0.0,0.0,0.0,0.0,0.0,3.8758,3.8758,3.909,3.9272,3.9272,3.9272,3.9272,3.9272,3.9272,3.9272,3.9272,3.9272,3.9272,3.9272,3.9272,3.909,3.8758,3.8758,0.0,3.8212,3.7831,3.7897,3.8129,3.6986,3.6555,3.6539,3.5966,3.5966,3.6172,3.6232,3.6661,3.7206,3.6939,3.7206,3.7577,3.7577,3.7577,3.7577,3.7577,3.7577,3.7577,3.7577,3.7577,3.7577,3.7577,3.7577,3.7577,3.7577,3.7577,3.7577,3.7577,3.7577,3.7577,3.7577,3.7577,3.7577,3.7577,3.7577,3.7577,3.7577,3.7577,3.7577,3.7577,3.7577,3.7434,3.7041,3.6631,3.6238,3.5846,3.5435,3.5204,3.5204,3.5204,3.5204,3.5204,3.5204,3.5204,3.5204,3.5632,3.5828,3.5828,3.6256,3.6649,2.948,2.9789,2.9918,2.9918,2.9097,2.7867,2.6037,2.4806,0.0,0.0,2.0936,2.0936,1.9657,0.0,2.231,0.0,0.0,0.0,0.0,0.0,0.0,0.0,0.0,0.0,0.0,0.0,0.0,0.0,0.0,0.0,3.9272,3.9272,3.9272,3.9272,3.9272,3.9272,3.9272,3.9272,3.9272,3.9272,3.9272,3.9272,3.9272,3.9272,3.9272,3.9272,3.9272,0.0,0.0,3.8676,3.8775,3.909,3.7201,3.6738,3.6953,3.5628,3.5525,3.602,3.5705,3.6105,3.6684,3.6316,3.6781,3.7449,3.7449,3.754,3.7577,3.7577,3.7577,3.7577,3.7577,3.7577,3.7577,3.7577,3.7577,3.7577,3.7577,3.7577,3.7577,3.7577,3.7577,3.7577,3.7577,3.7577,3.7577,3.7577,3.7577,3.7577,3.7577,3.7577,3.7577,3.7577,3.7577,3.7577,3.7577,3.7006,3.6649,3.6649,3.606,3.5721,3.5721,3.5721,3.5721,3.5721,3.5721,3.5721,3.5721,3.6345,3.6649,3.6667,3.7201,3.7449,2.8692,2.9372,2.9918,2.9918,2.8369,2.6668,2.581,0.0,0.0,2.1406,2.1276,2.1082,2.0337,2.0456,2.1131,0.0,0.0,2.5375,0.0,0.0,0.0,0.0,0.0,0.0,0.0,0.0,0.0,0.0,0.0,0.0,3.9272,3.9272,3.9272,3.9272,3.9272,3.9272,3.9272,3.9272,3.9272,3.9272,3.9272,3.9272,3.9272,3.9272,3.9272,3.9272,3.9272,0.0,0.0,3.9206,3.9222,3.9189,3.8344,3.7649,3.7003,3.6208,3.578,3.5661,3.5616,3.5907,3.6256,3.6215,3.6563,3.6939,3.6939,3.7243,3.7577,3.7577,3.7577,3.7577,3.7577,3.7577,3.7577,3.7577,3.7577,3.7577,3.7577,3.7577,3.7577,3.7577,3.7577,3.7577,3.7577,3.7577,3.7577,3.7577,3.7577,3.7577,3.7577,3.7577,3.7577,3.7577,3.7577,3.7577,3.7577,3.7523,3.747,3.747,3.7416,3.7362,3.7362,3.7362,3.7362,3.7362,3.7362,3.7362,3.7362,3.7434,3.747,3.747,3.7132,3.6939,2.8369,2.9,2.9227,2.9227,2.7948,2.6393,2.5211,0.0,2.2183,2.1471,2.1309,2.0969,1.9835,2.0469,2.1196,0.0,0.0,0.0,0.0,0.0,0.0,0.0,0.0,0.0,0.0,0.0,0.0,0.0,0.0,0.0,3.9272,3.9272,3.9272,3.9272,3.9272,3.9272,3.9272,3.9272,3.9272,3.9272,3.9272,3.9272,3.9272,3.9272,3.9272,3.9272,3.9272,0.0,0.0,3.8642,3.8377,3.7897,3.7168,3.6704,3.6357,3.5611,3.5445,3.5588,3.5287,3.5481,3.5776,3.5526,3.589,3.6522,3.6821,3.7243,3.7577,3.7577,3.7577,3.7577,3.7577,3.7577,3.7577,3.7577,3.7577,3.7577,3.7577,3.7577,3.7577,3.7577,3.7577,3.7577,3.7577,3.7577,3.7577,3.7577,3.7577,3.7577,3.7577,3.7577,3.7577,3.7577,3.7577,3.7577,3.7577,3.7577,3.7485,3.7206,3.7449,3.7337,3.6781,3.7281,3.7319,3.6781,3.7017,3.7034,3.6781,3.6781,3.6781,3.6764,3.6563,3.6481,2.7332,2.8158,2.8466,2.8466,2.7251,2.5778,0.0,2.3236,2.194,2.1422,2.1309,2.0967,1.978,2.0499,2.1111,0.0,0.0,2.3172,0.0,0.0,0.0,0.0,0.0,0.0,0.0,0.0,0.0,0.0,0.0,0.0,0.0,3.9272,3.9272,3.9272,3.9272,3.9272,3.9272,3.9272,3.9272,3.9272,3.9272,3.9272,3.9272,3.9272,3.9272,3.9272,0.0,0.0,0.0,3.8212,3.7781,3.7036,3.629,3.6009,3.5909,3.5164,3.5102,3.5362,3.5024,3.5252,3.5618,3.5108,3.5542,3.6406,3.6745,3.7093,3.7465,3.7696,3.7476,3.7206,3.7206,3.7206,3.7206,3.7206,3.7281,3.7411,3.7411,3.7503,3.7577,3.7577,3.7577,3.754,3.7411,3.7503,3.754,3.7411,3.7503,3.7577,3.7577,3.7577,3.7577,3.7577,3.7577,3.754,3.7411,3.754,3.7411,3.6939,3.7319,3.7243,3.644,3.7034,3.7034,3.6232,3.6522,3.6522,3.6172,3.6172,3.6172,3.619,3.6062,3.5933,2.526,2.6668,2.7721,2.7721,2.6102,2.4499,0.0,2.2847,2.1294,2.1309,2.1355,2.1175,2.0505,2.0521,2.0607,2.0591,2.19,0.0,0.0,0.0,0.0,0.0,0.0,0.0,0.0,0.0,0.0,0.0,0.0,0.0,0.0,3.9272,3.9272,3.9272,3.9272,3.9272,3.9272,3.9272,3.9272,3.9272,3.9272,3.9272,3.9272,3.9272,3.9272,0.0,0.0,0.0,0.0,3.8212,3.7781,3.7036,3.629,3.6009,3.5909,3.5164,3.4899,3.4899,3.4899,3.5379,3.586,3.5131,3.5696,3.6705,3.6688,3.681,3.7058,3.787,3.7195,3.6215,3.6215,3.6215,3.6215,3.6215,3.6563,3.69,3.69,3.7281,3.7577,3.7577,3.7577,3.7449,3.6995,3.7281,3.7449,3.6995,3.7281,3.7577,3.7577,3.7577,3.7577,3.7577,3.7577,3.7411,3.6939,3.7319,3.7411,3.6939,3.7319,3.7374,3.69,3.69,3.6684,3.6215,3.6215,3.6215,3.6172,3.6172,3.6172,3.6172,3.5776,3.5362,2.3284,2.411,2.4693,2.4191,2.356,2.2928,2.2442,2.1795,2.1309,2.1309,2.1309,2.1129,2.0521,2.0872,2.1617,2.2681,2.3306,0.0,0.0,0.0,0.0,0.0,0.0,0.0,0.0,0.0,0.0,0.0,0.0,0.0,0.0,3.9272,3.9272,3.9272,3.9272,3.9272,3.9272,3.9272,3.9272,3.9272,3.9272,3.9272,3.9272,3.9272,0.0,0.0,0.0,0.0,0.0,3.7665,3.7019,3.6274,3.5528,3.5247,3.5214,3.4982,3.4899,3.4899,3.4899,3.5379,3.5876,3.5131,3.6047,3.7466,3.7432,3.7346,3.723,3.7473,3.7646,3.7482,3.6448,3.6569,3.693,3.6725,3.6781,3.6995,3.7319,3.7503,3.7577,3.7577,3.7319,3.7167,3.7337,3.6978,3.6684,3.686,3.6764,3.6643,3.6643,3.6643,3.6643,3.6643,3.6643,3.6724,3.69,3.7034,3.6781,3.6079,3.6399,3.6316,3.5571,3.6105,3.6062,3.5316,3.5616,3.5644,3.5316,3.5316,3.5568,3.6071,3.5429,3.5291,2.1535,2.2118,2.2556,2.2102,2.1795,2.1552,2.1357,2.1115,2.1001,2.126,2.1129,2.0866,2.0502,2.0898,2.1661,2.2894,2.3604,0.0,0.0,0.0,0.0,0.0,0.0,0.0,0.0,0.0,0.0,0.0,0.0,0.0,0.0,3.9272,3.9272,3.9272,3.9272,3.9272,3.9272,3.9272,3.9272,3.9272,3.9272,3.9272,3.9272,3.9272,0.0,0.0,0.0,0.0,0.0,3.7417,3.6671,3.5926,3.5181,3.4899,3.4899,3.4899,3.4899,3.4899,3.4899,3.5379,3.5926,3.5462,3.6487,3.7936,3.7935,3.7919,3.7803,3.7364,3.7572,3.7708,3.6775,3.6893,3.7138,3.6895,3.6915,3.7091,3.7297,3.7503,3.7577,3.7577,3.7374,3.7206,3.7337,3.686,3.6563,3.686,3.6643,3.6481,3.6481,3.6481,3.6399,3.6215,3.6172,3.6274,3.6399,3.6563,3.6316,3.5661,3.5977,3.589,3.5195,3.5688,3.5661,3.4883,3.5195,3.5195,3.4899,3.5181,3.5545,3.6009,3.581,3.5976,0.0,2.0564,2.1051,2.1017,2.058,2.0321,2.0936,2.0645,0.0,2.1034,2.0766,2.0443,2.0557,2.0702,2.1052,2.1897,2.3222,0.0,0.0,0.0,0.0,0.0,0.0,0.0,0.0,0.0,0.0,0.0,0.0,0.0,0.0,3.9239,3.9255,3.9206,3.9255,3.9272,3.9272,3.9272,3.9272,3.9272,3.9272,3.9272,3.9272,3.9272,0.0,0.0,0.0,0.0,0.0,3.7433,3.6738,3.6075,3.5297,3.4982,3.4982,3.4982,3.4949,3.4899,3.4899,3.5413,3.6108,3.6208,3.7135,3.8228,3.8278,3.8572,3.8654,3.7453,3.7185,3.7218,3.7069,3.7102,3.7137,3.6865,3.7069,3.7266,3.7066,3.7317,3.7577,3.7577,3.7577,3.7411,3.7034,3.69,3.686,3.69,3.686,3.686,3.686,3.6821,3.6643,3.6172,3.6147,3.5933,3.5571,3.5933,3.5977,3.5571,3.589,3.5933,3.5588,3.5526,3.5362,3.4899,3.4899,3.4932,3.4982,3.5678,3.6059,3.6174,3.682,3.7135,1.7795,0.0,1.8734,1.8216,1.8346,1.8653,0.0,1.9155,1.9524,1.9715,0.0,1.996,2.1203,2.1431,2.2085,2.4017,2.5094,0.0,0.0,0.0,0.0,0.0,0.0,0.0,0.0,0.0,0.0,0.0,0.0,0.0,0.0,3.8974,3.9023,3.8477,3.899,3.9272,3.9272,3.9272,3.9272,3.9272,3.9272,3.9272,3.9272,3.9272,0.0,0.0,0.0,0.0,3.8924,3.7632,3.7334,3.7566,3.6257,3.5744,3.5744,3.5744,3.5379,3.4899,3.4899,3.5744,3.7036,3.8146,3.8377,3.8328,3.8858,3.9113,3.8935,3.7517,3.7914,3.8377,3.6704,3.7102,3.7936,3.8077,3.7669,3.749,3.8199,3.7948,3.7577,3.7577,3.7319,3.715,3.7374,3.686,3.6481,3.686,3.6603,3.634,3.634,3.6105,3.5864,3.5732,3.5436,3.5148,3.5071,3.5481,3.5526,3.5102,3.5148,3.5148,3.5071,3.5055,3.5024,3.4899,3.4899,3.5181,3.5744,3.5926,3.6589,3.7682,3.7284,3.7417,1.7149,1.761,1.8032,1.7685,1.788,1.821,1.8578,0.0,0.0,0.0,0.0,1.9727,2.0986,2.1493,0.0,2.4299,2.5508,0.0,0.0,0.0,0.0,0.0,0.0,0.0,0.0,0.0,0.0,0.0,0.0,0.0,0.0,3.8063,3.8261,3.8212,3.8593,3.8941,3.9272,3.9272,3.9272,3.9272,3.9272,3.9272,3.9272,3.9272,3.9272,0.0,0.0,0.0,3.9189,3.8063,3.7847,3.8063,3.6589,3.6009,3.5959,3.5628,3.5247,3.4899,3.4899,3.5876,3.7301,3.8427,3.8742,3.8775,3.9156,3.9272,3.9106,3.8328,3.8659,3.899,3.7814,3.8096,3.8619,3.8248,3.7855,3.7538,3.7586,3.7255,3.6939,3.6939,3.6939,3.6978,3.7243,3.686,3.6684,3.715,3.6821,3.6522,3.6522,3.6165,3.5854,3.5616,3.5195,3.4899,3.4899,3.5102,3.5148,3.4899,3.4899,3.4899,3.4899,3.4899,3.4899,3.4899,3.4899,3.5263,3.6009,3.634,3.7102,3.8212,3.8146,3.8311,1.7304,1.7799,1.8243,1.8104,1.8209,1.8491,1.9023,0.0,0.0,0.0,0.0,0.0,0.0,0.0,0.0,0.0,0.0,0.0,0.0,0.0,0.0,0.0,0.0,0.0,0.0,0.0,0.0,0.0,0.0,0.0,0.0,3.7052,3.7334,3.7864,3.8096,3.8493,3.9106,3.9222,3.9272,3.9272,3.9272,3.9222,3.9123,3.9222,3.9222,0.0,0.0,0.0,3.9222,3.851,3.8278,3.8245,3.687,3.6274,3.6092,3.5462,3.5081,3.4916,3.5032,3.5893,3.7069,3.793,3.8626,3.9123,3.9239,3.9272,3.9272,3.9272,3.9272,3.9255,3.9139,3.9106,3.8966,3.8301,3.7942,3.756,3.6724,3.6431,3.631,3.6207,3.6609,3.6956,3.6956,3.7044,3.7251,3.7674,3.7369,3.7079,3.6974,3.6606,3.6199,3.5785,3.5362,3.5065,3.5065,3.5065,3.5015,3.4899,3.4899,3.4899,3.4899,3.5015,3.5065,3.5065,3.5181,3.5595,3.634,3.697,3.7649,3.8394,3.899,3.9272,1.7867,1.8567,1.8844,1.7715,1.8294,1.9007,1.8555,0.0,0.0,0.0,0.0,0.0,0.0,0.0,0.0,0.0,0.0,0.0,0.0,0.0,0.0,0.0,0.0,0.0,0.0,0.0,0.0,0.0,0.0,0.0,0.0,3.6771,3.687,3.6357,3.7566,3.8261,3.8377,3.8974,3.9272,3.9272,3.9272,3.8957,3.8394,3.9007,3.8941,3.8411,0.0,3.9272,3.9222,3.851,3.8576,3.9023,3.8195,3.7483,3.692,3.6804,3.5976,3.4982,3.5611,3.5976,3.639,3.7765,3.8295,3.8493,3.909,3.9272,3.9272,3.9272,3.9272,3.9139,3.8526,3.8377,3.8617,3.9446,3.8734,3.7848,3.8081,3.7602,3.6965,3.631,3.6749,3.7241,3.7241,3.7759,3.8173,3.8261,3.8217,3.7948,3.7327,3.6864,3.6627,3.6535,3.6083,3.5827,3.5827,3.5827,3.5562,3.4932,3.4899,3.4899,3.4899,3.5495,3.5827,3.5827,3.6439,3.7135,3.788,3.7996,3.8411,3.9106,3.9098,3.904,1.7608,1.8212,1.8631,1.8078,1.8973,1.993,1.9613,0.0,0.0,0.0,0.0,0.0,0.0,0.0,0.0,0.0,0.0,0.0,0.0,0.0,0.0,0.0,0.0,0.0,0.0,0.0,0.0,0.0,0.0,0.0,0.0,0.0,3.5943,3.6009,3.6671,3.7218,3.7615,3.7947,3.8295,3.8709,3.8709,3.8526,3.8228,3.8543,3.8725,3.8775,0.0,3.8924,3.9222,3.851,3.8626,3.9156,3.8046,3.7417,3.7003,3.6208,3.5479,3.5015,3.5744,3.6257,3.6771,3.7864,3.8477,3.8858,3.9172,3.9272,3.9189,3.8808,3.8974,3.9206,3.8874,3.8775,3.8811,3.8989,3.8505,3.7853,3.7287,3.6848,3.6494,3.6156,3.6588,3.7081,3.749,3.8042,3.8384,3.8384,3.8384,3.8264,3.792,3.7558,3.7313,3.7313,3.6868,3.6605,3.6605,3.6605,3.6108,3.4965,3.4899,3.4899,3.4899,3.5611,3.596,3.5894,3.6621,3.7296,3.7953,3.7953,3.8331,3.904,3.8914,3.8914,1.7232,1.7814,1.8398,1.8682,1.9574,2.0426,2.0801,0.0,0.0,0.0,0.0,0.0,0.0,0.0,0.0,0.0,0.0,0.0,0.0,0.0,0.0,0.0,0.0,0.0,0.0,0.0,0.0,0.0,0.0,0.0,0.0,0.0,3.5148,3.5727,3.5909,3.6274,3.6837,3.7019,3.7384,3.7947,3.7947,3.7864,3.7698,3.788,3.8162,3.8493,3.8112,3.8261,3.8725,3.8179,3.8278,3.8659,3.7549,3.7003,3.6688,3.5379,3.4899,3.4982,3.5545,3.6108,3.6721,3.7466,3.8179,3.8758,3.8758,3.8891,3.8874,3.8162,3.8344,3.8808,3.899,3.8891,3.8676,3.8295,3.8079,3.7599,3.629,3.6274,3.6406,3.6075,3.6551,3.7242,3.7814,3.8289,3.8611,3.8611,3.8611,3.8542,3.8372,3.8075,3.7915,3.7915,3.7553,3.7367,3.7367,3.7201,3.6622,3.5479,3.5413,3.5413,3.5413,3.6125,3.6472,3.6356,3.703,3.7604,3.8007,3.7969,3.8248,3.8805,3.875,3.875,1.7101,1.7823,1.8574,1.9336,1.9547,0.0,2.1387,2.2195,0.0,0.0,0.0,0.0,0.0,0.0,0.0,0.0,0.0,0.0,0.0,0.0,0.0,0.0,0.0,0.0,0.0,0.0,0.0,0.0,0.0,0.0,0.0,0.0,0.0,3.4982,3.5644,3.6025,3.6075,3.6771,3.7135,3.7185,3.7185,3.682,3.6191,3.687,3.6837,3.6274,3.692,3.7218,3.7251,3.7201,3.7218,3.7251,3.7152,3.6688,3.5976,3.5197,3.4899,3.4899,3.4965,3.5015,3.5181,3.5926,3.6671,3.7268,3.7268,3.7748,3.8146,3.74,3.7218,3.7417,3.8112,3.7781,3.7433,3.8063,3.7698,3.697,3.6174,3.7085,3.7649,3.6274,3.7102,3.8114,3.8164,3.8764,3.9265,3.9265,3.9265,3.8963,3.8299,3.8181,3.8181,3.8181,3.8129,3.8129,3.8129,3.75,3.7052,3.6953,3.6953,3.6953,3.6953,3.7665,3.8063,3.8063,3.8583,3.8891,3.8887,3.8778,3.8756,3.8805,3.8655,3.8616,1.6528,1.7502,1.8632,1.9419,0.0,0.0,0.0,0.0,0.0,0.0,0.0,0.0,0.0,0.0,0.0,0.0,0.0,0.0,0.0,0.0,0.0,0.0,0.0,0.0,0.0,0.0,0.0,0.0,0.0,0.0,0.0,0.0,0.0,3.4899,3.5164,3.5313,3.5313,3.5595,3.5727,3.5744,3.6208,3.6274,3.6009,3.629,3.6522,3.6671,3.6489,3.6688,3.7069,3.6622,3.6688,3.7052,3.6605,3.5976,3.528,3.4998,3.4899,3.4899,3.4899,3.5197,3.5628,3.5909,3.6506,3.7102,3.7102,3.7301,3.7367,3.6622,3.6754,3.7168,3.745,3.7317,3.7168,3.7466,3.7317,3.6903,3.6158,3.6804,3.7367,3.6787,3.7516,3.8361,3.8808,3.9106,3.9272,3.9272,3.9272,3.9172,3.8907,3.8874,3.8874,3.8874,3.8874,3.8874,3.8874,3.8609,3.846,3.846,3.7615,3.7102,3.7102,3.7814,3.8091,3.79,3.8553,3.8805,3.86,3.856,3.8544,3.8544,3.8504,3.8464,1.6509,1.7699,1.8972,0.0,0.0,0.0,0.0,0.0,0.0,0.0,0.0,0.0,0.0,0.0,0.0,0.0,0.0,0.0,0.0,0.0,0.0,0.0,0.0,0.0,0.0,0.0,0.0,0.0,0.0,0.0,0.0,0.0,0.0,0.0,3.4899,3.4899,3.4899,3.4899,3.4899,3.4899,3.5413,3.5644,3.5644,3.5644,3.5926,3.639,3.5876,3.5943,3.6373,3.586,3.5959,3.6357,3.5843,3.5346,3.4899,3.4899,3.4899,3.4899,3.4899,3.523,3.5644,3.5644,3.6158,3.6721,3.6489,3.6572,3.6605,3.586,3.6025,3.6406,3.6406,3.6589,3.6754,3.6754,3.6754,3.6555,3.581,3.6423,3.7102,3.7102,3.7715,3.8444,3.9156,3.9272,3.9272,3.9272,3.9272,3.9272,3.9272,3.9272,3.9272,3.9272,3.9272,3.9272,3.9272,3.9272,3.9272,3.9272,3.8344,3.7781,3.7781,3.8278,3.8421,3.8105,3.8543,3.8711,3.8448,3.8391,3.8391,3.8391,3.8391,3.8391,1.7172,1.8467,1.9601,0.0,0.0,0.0,0.0,0.0,0.0,0.0,0.0,0.0,0.0,0.0,0.0,0.0,0.0,0.0,0.0,0.0,0.0,0.0,0.0,0.0,0.0,0.0,0.0,0.0,0.0,0.0,0.0,0.0,0.0,0.0,3.4899,3.4899,3.4899,3.4899,3.4899,3.4899,3.4899,3.4899,3.4899,3.4899,3.4899,3.4899,3.4899,3.4899,3.4899,3.4899,3.4899,3.4899,3.4899,3.4899,3.4899,3.4899,3.4899,3.4899,3.4899,3.4899,3.4899,3.4899,3.5396,3.586,3.5114,3.5413,3.5843,3.5098,3.4899,3.4899,3.4899,3.5446,3.5992,3.5992,3.5992,3.5794,3.5048,3.6059,3.7102,3.7102,3.7715,3.8444,3.9156,3.9272,3.9272,3.9272,3.9272,3.9272,3.9272,3.9272,3.9272,3.9272,3.9272,3.9272,3.9272,3.9272,3.9272,3.9272,3.9272,3.9272,3.9272,3.9272,3.9202,3.9023,3.886,3.875,3.8616,3.8448,3.8391,3.8391,3.8391,3.8391,1.6561,1.8096,0.0,0.0,0.0,0.0,0.0,0.0,0.0,0.0,0.0,0.0,0.0,0.0,0.0,0.0,0.0,0.0,0.0,0.0,0.0,0.0,0.0,0.0,0.0,0.0,0.0,0.0,0.0,0.0,0.0,0.0,0.0,0.0,3.4899,3.4899,3.4899,3.4899,3.4899,3.4899,3.4899,3.4899,3.4899,3.4899,3.4899,3.4899,3.4899,3.4899,3.4899,3.4899,3.4899,3.4899,3.4899,3.4899,3.4899,3.4899,3.4899,3.4899,3.4899,3.4899,3.4899,3.4899,3.5048,3.5181,3.4965,3.5048,3.5181,3.4965,3.4899,3.4899,3.4899,3.5048,3.523,3.523,3.523,3.5164,3.4949,3.6059,3.7102,3.7102,3.8112,3.9023,3.9239,3.9272,3.9272,3.9272,3.9272,3.9272,3.9272,3.9272,3.9272,3.9272,3.9272,3.9272,3.9272,3.9272,3.911,3.8672,3.9056,3.9272,3.9272,3.9272,3.9148,3.886,3.8805,3.8711,3.8448,3.8391,3.8391,3.8391,3.8391,3.8391,1.7361,0.0,0.0,0.0,0.0,0.0,0.0,0.0,0.0,0.0,0.0,0.0,0.0,0.0,0.0,0.0,0.0,0.0,0.0,0.0,0.0,0.0,0.0,0.0,0.0,0.0,0.0,0.0,0.0,0.0,0.0,0.0,0.0,0.0,3.4899,3.4899,3.4899,3.4899,3.4899,3.4899,3.4899,3.4899,3.4899,3.4899,3.4899,3.4899,3.4899,3.4899,3.4899,3.4899,3.4899,3.4899,3.4899,3.4899,3.4899,3.4899,3.4899,3.4899,3.4899,3.4899,3.4899,3.4899,3.4899,3.4899,3.4899,3.4899,3.4899,3.4899,3.4899,3.4899,3.4899,3.4899,3.4899,3.4899,3.4899,3.4899,3.4899,3.5595,3.6406,3.7003,3.7814,3.8593,3.9172,3.9272,3.9272,3.9272,3.9272,3.9272,3.9272,3.9272,3.9272,3.9272,3.9272,3.9272,3.9272,3.9272,3.9056,3.8448,3.8727,3.9002,3.9094,3.9218,3.9202,3.8985,3.886,3.8655,3.8391,3.8391,3.8391,3.8391,3.8391,3.8391,1.8923,0.0,0.0,0.0,0.0,0.0,0.0,0.0,0.0,0.0,0.0,0.0,0.0,0.0,0.0,0.0,0.0,0.0,0.0,0.0,0.0,0.0,0.0,0.0,0.0,0.0,0.0,0.0,0.0,0.0,0.0,0.0,0.0,3.4899,3.4899,3.4899,3.4899,3.4899,3.4899,3.4899,3.4899,3.4899,3.4899,3.4899,3.4899,3.4899,3.4899,3.4899,3.4899,3.4899,3.4899,3.4899,3.4899,3.4899,3.4899,3.4899,3.4899,3.4899,3.4899,3.4899,3.4899,3.4899,3.4899,3.4899,3.4899,3.4899,3.4899,3.4899,3.4899,3.4899,3.4899,3.4899,3.4899,3.4899,3.4899,3.4899,3.4899,3.4899,3.5346,3.682,3.7218,3.7731,3.904,3.9272,3.9272,3.9272,3.9272,3.9272,3.9272,3.9272,3.9272,3.9272,3.9272,3.9272,3.9272,3.9272,3.9056,3.8448,3.8391,3.8504,3.875,3.9094,3.9272,3.9272,3.8931,3.86,3.8391,3.8391,3.8391,3.8391,3.8391,3.8391,0.0,1.9694,0.0,0.0,0.0,0.0,0.0,0.0,0.0,0.0,0.0,0.0,0.0,0.0,0.0,0.0,0.0,0.0,0.0,0.0,0.0,0.0,0.0,0.0,0.0,0.0,0.0,0.0,0.0,0.0,0.0,0.0,0.0,3.4899,3.4899,3.4899,3.4899,3.4899,3.4899,0.0,3.4899,3.4899,3.4899,3.4899,3.4899,3.4899,3.4899,3.4899,3.4899,3.4899,3.4899,3.4899,3.4899,3.4899,3.4899,3.4899,3.4899,3.4899,3.4899,3.4899,3.4899,3.4899,3.4899,3.4899,3.4899,3.4899,3.4899,3.4899,3.4899,3.4899,3.4899,3.4899,3.4899,3.4899,3.4899,3.4899,3.4899,3.4899,3.5346,3.682,3.803,3.8907,3.9222,3.9272,3.9272,3.9272,3.9272,3.9272,3.9272,3.9272,3.9272,3.9272,3.9272,3.9272,3.9272,3.9272,3.9056,3.8448,3.8391,3.8448,3.8504,3.9002,3.9272,3.9272,3.8985,3.8655,3.8391,3.8391,3.8391,3.8391,3.8391,3.8391,0.0,0.0,0.0,0.0,0.0,0.0,0.0,0.0,0.0,0.0,0.0,0.0,0.0,0.0,0.0,0.0,0.0,0.0,0.0,0.0,0.0,0.0,0.0,0.0,0.0,0.0,0.0,0.0,0.0,0.0,0.0,3.4899,3.4899,3.4899,3.4899,3.4899,3.4899,3.4899,3.4899,3.4899,3.4899,3.4899,3.4899,3.4899,3.4899,3.4899,3.4899,3.4899,3.4899,3.4899,3.4899,3.4899,3.4899,3.4899,3.4899,3.4899,3.4899,3.4899,3.4899,3.4899,3.4899,3.4899,3.4899,3.4899,3.4899,3.4899,3.4899,3.4899,3.4899,3.4899,3.4899,3.4899,3.4899,3.4899,3.4899,3.4899,3.4899,3.4899,3.5545,3.7715,3.8758,3.9272,3.9272,3.9272,3.9272,3.9272,3.9272,3.9272,3.9272,3.9272,3.9272,3.9272,3.9272,3.9272,3.9272,3.9272,3.9056,3.8448,3.8391,3.8391,3.8391,3.8727,3.8892,3.8892,3.8711,3.856,3.8391,3.8391,3.8391,3.8391,3.8391,3.8391,0.0,0.0,0.0,0.0,0.0,0.0,0.0,0.0,0.0,0.0,0.0,0.0,0.0,0.0,0.0,0.0,0.0,0.0,0.0,0.0,0.0,0.0,0.0,0.0,0.0,0.0,0.0,0.0,0.0,0.0,3.4899,3.4899,3.4899,3.4899,3.4899,3.4899,3.4899,3.4899,3.4899,3.4899,3.4899,3.4899,3.4899,3.4899,3.4899,3.4899,3.4899,3.4899,3.4899,3.4899,3.4899,3.4899,3.4899,3.4899,3.4899,3.4899,3.4899,3.4899,3.4899,3.4899,3.4899,3.4899,3.4899,3.4899,3.4899,3.4899,3.4899,3.4899,3.4899,3.4899,3.4899,3.4899,3.4965,3.5214,3.528,3.5214,3.4949,3.5297,3.6373,3.8808,3.9272,3.9272,3.9272,3.9272,3.9272,3.9272,3.9272,3.9272,3.9272,3.9272,3.9272,3.9272,3.9272,3.9272,3.9272,3.9272,3.911,3.856,3.8448,3.8391,3.8391,3.8391,3.8391,3.8391,3.8391,3.8391,3.8391,3.8391,3.8391,3.8391,3.8391,3.8391,0.0,0.0,0.0,0.0,0.0,0.0,0.0,0.0,0.0,0.0,0.0,0.0,0.0,0.0,0.0,0.0,0.0,0.0,0.0,0.0,0.0,0.0,0.0,0.0,0.0,0.0,0.0,0.0,0.0,0.0,3.4899,3.4899,3.4899,3.4899,3.4899,3.4899,3.4899,3.4899,3.4899,3.4899,3.4899,3.4899,3.4899,3.4899,3.4899,3.4899,3.4899,3.4899,3.4899,3.4899,3.4899,3.4899,3.4899,3.4899,3.4899,3.4899,3.4899,3.4899,3.4899,3.4899,3.4899,3.4899,3.4899,3.4899,3.4899,3.4899,3.4899,3.4899,3.4899,3.4899,3.4899,3.4899,3.5214,3.6506,3.682,3.6456,3.5181,3.6887,3.8808,3.9189,3.9272,3.9272,3.9272,3.9272,3.9272,3.9272,3.9272,3.9272,3.9272,3.9272,3.9272,3.9272,3.9272,3.9272,3.9272,3.9272,3.9272,3.9164,3.8672,3.8391,3.8391,3.8391,3.8391,3.8391,3.8391,3.8391,3.8391,3.8391,3.8391,3.8391,3.8391,3.8391,0.0,0.0,0.0,0.0,0.0,0.0,0.0,0.0,0.0,0.0,0.0,0.0,0.0,0.0,0.0,0.0,0.0,0.0,0.0,0.0,0.0,0.0,0.0,0.0,0.0,0.0,0.0,0.0,0.0,3.4899,3.4899,3.4899,3.4899,3.4899,3.4899,3.4899,3.4899,3.4899,3.4899,3.4899,3.4899,3.4899,3.4899,3.4899,3.4899,3.4899,3.4899,3.4899,3.4899,3.4899,3.4899,3.4899,3.4899,3.4899,3.4899,3.4899,3.4899,3.4899,3.4899,3.4899,3.4899,3.4899,3.4899,3.4899,3.4899,3.4899,3.4899,3.4899,3.4899,3.4899,3.4899,3.5313,3.5744,3.5843,3.7119,3.8146,3.75,3.8361,3.9272,3.9272,3.9272,3.9272,3.9272,3.9272,3.9272,3.9272,3.9272,3.9272,3.9272,3.9272,3.9272,3.9272,3.9272,3.9272,3.9272,3.9272,3.9272,3.9272,3.9056,3.8892,3.8892,3.856,3.8391,3.8391,3.8391,3.8391,3.8391,3.8391,3.8391,3.8391,3.8391,3.8391,0.0,0.0,0.0,0.0,0.0,0.0,0.0,0.0,0.0,0.0,0.0,0.0,0.0,0.0,0.0,0.0,0.0,0.0,0.0,0.0,0.0,0.0,0.0,0.0,0.0,0.0,0.0,0.0,0.0,3.4899,3.4899,3.4899,3.4899,3.4899,3.4899,3.4899,3.4899,3.4899,3.4899,3.4899,3.4899,3.4899,3.4899,3.4899,3.4899,3.4899,3.4899,3.4899,3.4899,3.4899,3.4899,3.4899,3.4899,3.4899,3.4899,3.4899,3.4899,3.4899,3.4899,3.4899,3.4899,3.4899,3.4899,3.4899,3.4899,3.4899,3.4899,3.4899,3.4899,3.4899,3.4899,3.5644,3.6224,3.5611,3.7268,3.9056,3.9239,3.9272,3.9272,3.9272,3.9272,3.9272,3.9272,3.9272,3.9272,3.9272,3.9272,3.9272,3.9272,3.9272,3.9272,3.9272,3.9272,3.9272,3.9272,3.9272,3.9272,3.9272,3.9272,3.9272,3.9272,3.8727,3.8391,3.8391,3.8391,3.8391,3.8391,3.8391,3.8391,3.8391,3.8391,3.8391,0.0,0.0,0.0,0.0,0.0,0.0,0.0,0.0,0.0,0.0,0.0,0.0,0.0,0.0,0.0,0.0,0.0,0.0,0.0,0.0,0.0,0.0,0.0,0.0,0.0,0.0,0.0,0.0,0.0,3.4899,3.4899,3.4899,3.4899,3.4899,3.4899,3.4899,3.4899,3.4899,3.4899,3.4899,3.4899,3.4899,3.4899,3.4899,3.4899,3.4899,3.4899,3.4899,3.4899,3.4899,3.4899,3.4899,3.4899,3.4899,3.4899,3.4899,3.4899,3.4899,3.4899,3.4899,3.4899,3.4899,3.4899,3.4899,3.4899,3.4899,3.4899,3.4899,3.4899,3.4899,3.4899,3.5644,3.6489,3.6887,3.7649,3.846,3.9123,3.9272,3.9272,3.9272,3.9272,3.9272,3.9272,3.9272,3.9272,3.9272,3.9272,3.9272,3.9272,3.9272,3.9272,3.9272,3.9272,3.9272,3.9272,3.9272,3.9272,3.9272,3.9272,3.9272,3.9272,3.8727,3.8391,3.8391,3.8391,3.8391,3.8391,3.8391,3.8391,3.8391,3.8391,3.8391,0.0,0.0,0.0,0.0,0.0,0.0,0.0,0.0,0.0,0.0,0.0,0.0,0.0,0.0,0.0,0.0,0.0,0.0,0.0,0.0,0.0,0.0,0.0,0.0,0.0,0.0,0.0,0.0,0.0,0.0,3.4899,3.4899,3.4667,3.4203,3.4651,3.4899,3.4899,3.4899,3.4899,3.4899,3.4899,3.4899,3.4899,3.4899,3.4899,3.4899,3.4899,3.4899,3.4899,3.4899,3.4899,3.4899,3.4899,3.4899,3.4899,3.4899,3.4899,3.4899,3.4899,3.4899,3.4899,3.4899,3.4899,3.4899,3.4899,3.4899,3.4899,3.4899,3.4899,3.4899,3.4899,3.5164,3.5943,3.8013,3.8692,3.8957,3.9222,3.9272,3.9272,3.9272,3.9272,3.9272,3.9272,3.9272,3.9272,3.9272,3.9272,3.9272,3.9272,3.9272,3.9272,3.9272,3.9272,3.9272,3.9272,3.9272,3.9272,3.9272,3.9272,3.9272,3.9272,3.8727,3.8391,3.8391,3.8391,3.8391,3.8391,3.8391,3.8391,3.8391,3.8391,3.8391,1.6664,0.0,0.0,0.0,0.0,0.0,0.0,0.0,0.0,0.0,0.0,0.0,0.0,0.0,0.0,0.0,0.0,0.0,0.0,0.0,0.0,0.0,0.0,0.0,0.0,0.0,0.0,0.0,0.0,0.0,3.4154,3.4154,3.4038,3.3806,3.427,3.4651,3.4899,3.4899,3.4899,3.4899,3.4899,3.4899,3.4899,3.4899,3.4899,3.4899,3.4899,3.4899,3.4899,3.4899,3.4899,3.4899,3.4899,3.4899,3.4899,3.4899,3.4899,3.4899,3.4899,3.4899,3.4899,3.4899,3.4899,3.4899,3.4899,3.4899,3.4899,3.4899,3.4899,3.4899,3.4899,3.5263,3.6257,3.8692,3.9272,3.9272,3.9272,3.9272,3.9272,3.9272,3.9272,3.9272,3.9272,3.9272,3.9272,3.9272,3.9272,3.9272,3.9272,3.9272,3.9272,3.9272,3.9272,3.9272,3.9272,3.9272,3.9272,3.9272,3.9272,3.9272,3.9272,3.8892,3.8616,3.8391,3.8391,3.8391,3.8391,3.8391,3.8391,3.8391,3.8391,3.8504,0.0,0.0,0.0,0.0,0.0,0.0,0.0,0.0,0.0,0.0,0.0,0.0,0.0,0.0,0.0,0.0,0.0,0.0,0.0,0.0,0.0,0.0,0.0,0.0,0.0,0.0,0.0,0.0,0.0,3.2646,3.2646,3.2646,3.2994,3.3723,3.3756,3.4104,3.4849,3.4883,3.4899,3.4899,3.4899,3.4899,3.4899,3.4899,3.4899,3.4899,3.4899,3.4899,3.4899,3.4899,3.4899,3.4899,3.4899,3.4899,3.4899,3.4899,3.4899,3.4899,3.4899,3.4899,3.4899,3.4899,3.4899,3.4899,3.4899,3.4899,3.4899,3.4899,3.4899,3.4916,3.5015,3.6092,3.7533,3.8941,3.9272,3.9272,3.9272,3.9272,3.9272,3.9272,3.9272,3.9272,3.9272,3.9272,3.9272,3.9272,3.9272,3.9272,3.9272,3.9272,3.9272,3.9272,3.9272,3.9272,3.9272,3.9272,3.9272,3.9272,3.9272,3.9272,3.9272,3.9272,3.9002,3.8391,3.8391,3.8391,3.8391,3.8391,3.8391,3.8391,3.8391,3.8727,1.5869,0.0,0.0,0.0,0.0,0.0,0.0,0.0,0.0,0.0,0.0,0.0,0.0,0.0,0.0,0.0,0.0,0.0,0.0,0.0,0.0,0.0,0.0,0.0,0.0,0.0,0.0,0.0,3.1603,3.1918,3.1918,3.1918,3.2249,3.2961,3.2994,3.3342,3.4087,3.4618,3.4899,3.4899,3.4899,3.4899,3.4899,3.4899,3.4899,3.4899,3.4899,3.4899,3.4899,3.4899,3.4899,3.4899,3.4899,3.4899,3.4899,3.4899,3.4899,3.4899,3.4899,3.4899,3.4899,3.4899,3.4899,3.4899,3.4899,3.4899,3.4899,3.4899,3.4899,3.5379,3.7516,3.8377,3.8775,3.9172,3.9272,3.9272,3.9272,3.9272,3.9272,3.9272,3.9272,3.9272,3.9272,3.9272,3.9272,3.9272,3.9272,3.9272,3.9272,3.9272,3.9272,3.9272,3.9272,3.9272,3.9272,3.9272,3.9272,3.9272,3.9272,3.9272,3.9272,3.9272,3.9002,3.8391,3.8391,3.8391,3.8391,3.8391,3.8391,3.8391,3.8391,3.8504,1.6357,0.0,0.0,0.0,0.0,0.0,0.0,0.0,0.0,0.0,0.0,0.0,0.0,0.0,0.0,0.0,0.0,0.0,0.0,0.0,0.0,0.0,0.0,0.0,0.0,0.0,0.0,3.0046,3.046,3.0667,3.0667,3.0667,3.1172,3.2216,3.2249,3.2746,3.3773,3.422,3.4601,3.4899,3.4899,3.4899,3.4899,3.4899,3.4899,3.4899,3.4899,3.4899,3.4899,3.4899,3.4899,3.4899,3.4899,3.4899,3.4899,3.4899,3.4899,3.4899,3.4899,3.4899,3.4899,3.4899,3.4899,3.4899,3.4899,3.4899,3.4899,3.4899,3.4899,3.5578,3.851,3.9272,3.8974,3.7731,3.8377,3.9272,3.9272,3.9272,3.9272,3.9272,3.9272,3.9272,3.9272,3.9272,3.9272,3.9272,3.9272,3.9272,3.9272,3.9272,3.9272,3.9272,3.9272,3.9272,3.9272,3.9272,3.9272,3.9272,3.9272,3.9272,3.9272,3.9272,3.911,3.8782,3.8504,3.8391,3.8391,3.8391,3.8391,3.8391,3.8391,3.8391,0.0,0.0,0.0,0.0,0.0,0.0,2.05,2.0865,0.0,0.0,0.0,0.0,0.0,0.0,0.0,0.0,0.0,0.0,0.0,0.0,0.0,0.0,0.0,0.0,0.0,2.9897,2.9996,2.935,2.9367,2.9417,2.9417,2.9417,3.0013,3.1295,3.1427,3.2166,3.3541,3.3707,3.4121,3.4767,3.4866,3.4899,3.4899,3.4899,3.4899,3.4899,3.4899,3.4899,3.4899,3.4899,3.4899,3.4899,3.4899,3.4899,3.4899,3.4899,3.4899,3.4899,3.4899,3.4899,3.4899,3.4899,3.4899,3.4899,3.4899,3.4899,3.4899,3.4899,3.4899,3.5495,3.8112,3.8791,3.8129,3.5512,3.7135,3.9272,3.9272,3.9272,3.9272,3.9272,3.9272,3.9272,3.9272,3.9272,3.9272,3.9272,3.9272,3.9272,3.9272,3.9272,3.9272,3.9272,3.9272,3.9272,3.9272,3.9272,3.9272,3.9272,3.9272,3.9272,3.9272,3.9272,3.9272,3.9272,3.8727,3.8391,3.8391,3.8391,3.8391,3.8391,3.8391,3.8391,0.0,0.0,0.0,0.0,0.0,0.0,0.0,1.9347,0.0,0.0,0.0,0.0,0.0,0.0,0.0,0.0,0.0,0.0,0.0,0.0,0.0,0.0,0.0,0.0,0.0,2.8721,2.8738,2.8588,2.9102,2.9417,2.9417,2.9417,2.9549,2.9831,3.0427,3.1156,3.2034,3.321,3.3856,3.4005,3.4618,3.4899,3.4899,3.4899,3.4899,3.4899,3.4899,3.4899,3.4899,3.4899,3.4899,3.4899,3.4899,3.4899,3.4899,3.4899,3.4899,3.4899,3.4899,3.4899,3.4899,3.4899,3.4899,3.4899,3.4899,3.4899,3.4899,3.4899,3.4899,3.5032,3.5611,3.576,3.5611,3.5032,3.7135,3.9272,3.9272,3.9272,3.9272,3.9272,3.9272,3.9272,3.9272,3.9272,3.9272,3.9272,3.9272,3.9272,3.9272,3.9272,3.9272,3.9272,3.9272,3.9272,3.9272,3.9272,3.9272,3.9272,3.9272,3.9272,3.9272,3.9272,3.9272,3.9272,3.8727,3.8391,3.8391,3.8391,3.8391,3.8391,3.8391,3.8391,0.0,0.0,0.0,2.0091,0.0,0.0,0.0,0.0,0.0,0.0,0.0,0.0,0.0,0.0,0.0,0.0,0.0,0.0,0.0,0.0,0.0,0.0,0.0,0.0,0.0,2.8412,2.8412,2.8412,2.8704,2.9052,2.94,2.9417,2.9582,2.9947,2.9963,3.0328,3.1014,3.1785,3.2348,3.2729,3.3822,3.4336,3.4336,3.4336,3.4551,3.4883,3.4502,3.4551,3.4899,3.4899,3.4899,3.4899,3.4899,3.4899,3.4899,3.4899,3.4899,3.4899,3.4899,3.4899,3.4899,3.4899,3.4899,3.4899,3.4899,3.4899,3.4899,3.4899,3.4899,3.4899,3.4899,3.4899,3.4899,3.4899,3.7135,3.9272,3.9272,3.9272,3.9272,3.9272,3.9272,3.9272,3.9272,3.9272,3.9272,3.9272,3.9272,3.9272,3.9272,3.9272,3.9272,3.9272,3.9272,3.9272,3.9272,3.9272,3.9272,3.9272,3.9272,3.9272,3.9272,3.9272,3.9164,3.8838,3.8838,3.8838,3.8838,3.856,3.8391,3.8391,3.8391,3.8391,0.0,0.0,0.0,0.0,0.0,2.0405,0.0,0.0,0.0,2.1552,0.0,0.0,0.0,0.0,0.0,0.0,0.0,0.0,0.0,0.0,0.0,0.0,0.0,0.0,0.0,2.8042,2.8075,2.8395,2.8163,2.8323,2.9168,2.9218,2.9549,3.0278,2.9731,2.9698,3.0294,3.0444,3.0742,3.1163,3.2531,3.316,3.316,3.3458,3.3839,3.4253,3.4087,3.427,3.47,3.4833,3.4899,3.4899,3.4899,3.4899,3.4899,3.4899,3.4899,3.4899,3.4899,3.4899,3.4899,3.4899,3.4899,3.4899,3.4899,3.4899,3.4899,3.4899,3.4899,3.4899,3.4899,3.4899,3.4899,3.4899,3.7135,3.9272,3.9272,3.9272,3.9272,3.9272,3.9272,3.9272,3.9272,3.9272,3.9272,3.9272,3.9272,3.9272,3.9272,3.9272,3.9272,3.9272,3.9272,3.9272,3.9272,3.9272,3.9272,3.9272,3.9272,3.9272,3.9272,3.9272,3.9056,3.856,3.9056,3.9272,3.9272,3.8838,3.856,3.856,3.856,3.8504,0.0,0.0,0.0,0.0,2.15,0.0,0.0,0.0,1.9818,1.9335,0.0,0.0,0.0,0.0,0.0,0.0,0.0,0.0,0.0,0.0,0.0,0.0,0.0,0.0,0.0,0.0,2.6998,2.8312,2.7181,2.7048,2.8423,2.8489,2.8804,2.9516,2.945,2.945,2.9533,3.0195,3.0228,2.9682,3.0493,3.0891,3.094,3.2232,3.2514,3.21,3.3972,3.4435,3.3972,3.4618,3.4899,3.4899,3.4899,3.4899,3.4899,3.4899,3.4899,3.4899,3.4899,3.4899,3.4899,3.4899,3.4899,3.4899,3.4899,3.4899,3.4899,3.4899,3.4899,3.4899,3.4899,3.4899,3.4899,3.4899,3.7135,3.9272,3.9272,3.9272,3.9272,3.9272,3.9272,3.9272,3.9272,3.9272,3.9272,3.9272,3.9272,3.9272,3.9272,3.9272,3.9272,3.9272,3.9272,3.9272,3.9272,3.9272,3.9272,3.9272,3.9272,3.9272,3.9272,3.9272,3.9272,3.9218,3.9272,3.9272,3.9272,3.9218,3.9218,3.9218,3.9218,3.8892,0.0,0.0,0.0,0.0,0.0,0.0,1.9891,0.0,1.9341,0.0,0.0,0.0,0.0,0.0,0.0,0.0,0.0,0.0,0.0,0.0,0.0,0.0,0.0,0.0,0.0,0.0,0.0,0.0,0.0,2.6849,2.8345,2.8412,2.8506,2.8804,2.8804,2.8804,2.8804,2.9516,2.9715,2.9417,3.0593,3.0924,3.0543,3.1156,3.1504,3.1626,3.2597,3.3309,3.3856,3.4601,3.4899,3.4899,3.4899,3.4899,3.4899,3.4899,3.4899,3.4899,3.4899,3.4899,3.4899,3.4899,3.4899,3.4899,3.4899,3.4899,3.4899,3.4899,3.4899,3.4899,3.4899,3.4899,3.4899,3.4899,3.7135,3.9272,3.9272,3.9272,3.9272,3.9272,3.9272,3.9272,3.9272,3.9272,3.9272,3.9272,3.9272,3.9272,3.9272,3.9272,3.9272,3.9272,3.9272,3.9272,3.9272,3.9272,3.9272,3.9272,3.9272,3.9272,3.9272,3.9272,3.9272,3.9272,3.9272,3.9272,3.9272,3.9272,3.9272,3.9272,3.9272,3.9164,2.2291,0.0,0.0,0.0,0.0,0.0,0.0,0.0,0.0,0.0,0.0,0.0,0.0,0.0,0.0,0.0,0.0,0.0,0.0,0.0,0.0,0.0,0.0,0.0,0.0,0.0,0.0,0.0,0.0,2.5806,2.7694,2.7976,2.8213,2.8373,2.8412,2.8412,2.8412,2.887,2.9019,2.8837,3.0129,3.0344,2.9648,3.0029,3.041,3.0758,3.1113,3.2034,3.3243,3.3773,3.4352,3.4866,3.4601,3.4651,3.4899,3.4899,3.4899,3.4899,3.4899,3.4899,3.4899,3.4899,3.4899,3.4899,3.4899,3.4899,3.4899,3.4899,3.4899,3.4899,3.4899,3.4899,3.4899,3.4899,3.7135,3.9272,3.9272,3.9272,3.9272,3.9272,3.9272,3.9272,3.9272,3.9272,3.9272,3.9272,3.9272,3.9272,3.9272,3.9272,3.9272,3.9272,3.9272,3.9272,3.9272,3.9272,3.9272,3.9272,3.9272,3.9272,3.9272,3.9272,3.9272,3.9272,3.9272,3.9272,3.9272,3.9272,3.9272,3.9272,3.9272,3.9272,0.0,0.0,0.0,2.1615,0.0,0.0,0.0,0.0,2.084,0.0,0.0,0.0,0.0,0.0,0.0,0.0,0.0,0.0,0.0,0.0,0.0,0.0,0.0,0.0,0.0,0.0,0.0,0.0,0.0,0.0,2.612,2.6932,2.7665,2.8395,2.8412,2.8412,2.8412,2.8445,2.808,2.7383,2.8163,2.813,2.7466,2.882,2.9085,2.8555,2.9947,3.0948,3.1643,3.1676,3.2978,3.48,3.3839,3.4054,3.4899,3.4899,3.4899,3.4899,3.4899,3.4899,3.4899,3.4899,3.4899,3.4899,3.4899,3.4899,3.4899,3.4899,3.4899,3.4899,3.4899,3.4899,3.4899,3.4899,3.7135,3.9272,3.9272,3.9272,3.9272,3.9272,3.9272,3.9272,3.9272,3.9272,3.9272,3.9272,3.9272,3.9272,3.9272,3.9272,3.9272,3.9272,3.9272,3.9272,3.9272,3.9272,3.9272,3.9272,3.9272,3.9272,3.9272,3.9272,3.9272,3.9272,3.9272,3.9272,3.9272,3.9272,3.9272,3.9272,3.9272,3.9272,0.0,0.0,2.4751,2.348,0.0,0.0,0.0,0.0,0.0,0.0,0.0,0.0,0.0,0.0,0.0,0.0,0.0,0.0,0.0,0.0,0.0,0.0,0.0,0.0,0.0,0.0,0.0,0.0,2.2808,0.0,0.0,2.617,2.6684,2.6932,2.7412,2.7682,2.7682,2.818,2.8489,2.8688,2.8936,2.8936,2.8704,2.9185,2.9284,2.9085,2.9582,3.0493,3.1543,3.109,3.2183,3.4054,3.2911,3.3475,3.4899,3.4899,3.4899,3.4899,3.4899,3.4899,3.4899,3.4899,3.4899,3.4899,3.4899,3.4899,3.4899,3.4899,3.4899,3.4899,3.4899,3.3458,3.2497,3.4435,3.7135,3.9272,3.9272,3.9272,3.9272,3.9272,3.9272,3.9272,3.9272,3.9272,3.9272,3.9272,3.9272,3.9272,3.9272,3.9272,3.9272,3.9272,3.9272,3.9272,3.9272,3.9272,3.9272,3.9272,3.9272,3.9272,3.9272,3.9272,3.9272,3.9272,3.9272,3.9272,3.9272,3.9272,3.9272,3.9272,3.9272,3.9272,2.4705,2.5077,0.0,2.4261,2.348,0.0,2.1238,0.0,0.0,0.0,0.0,0.0,0.0,0.0,0.0,0.0,0.0,0.0,0.0,0.0,0.0,0.0,0.0,0.0,0.0,0.0,2.0886,2.2394,0.0,0.0,0.0,0.0,2.622,2.622,2.6651,2.7015,2.7317,2.7781,2.8207,2.8655,2.9168,2.9284,2.9052,2.9301,2.9417,2.94,2.9152,2.988,3.1113,3.0162,3.1205,3.3326,3.2547,3.3342,3.4899,3.4899,3.4899,3.4899,3.4899,3.4899,3.4899,3.4899,3.4899,3.4899,3.4899,3.4899,3.4899,3.4899,3.4899,3.4899,3.4899,3.2713,3.1255,3.4203,3.7135,3.9272,3.9272,3.9272,3.9272,3.9272,3.9272,3.9272,3.9272,3.9272,3.9272,3.9272,3.9272,3.9272,3.9272,3.9272,3.9272,3.9272,3.9272,3.9272,3.9272,3.9272,3.9272,3.9272,3.9272,3.9272,3.9272,3.9272,3.9272,3.9272,3.9272,3.9272,3.9272,3.9272,3.9272,3.9272,3.9272,3.9272]},{"header":{"parameterUnit":"m.s-1","parameterCategory":1,"la1":30.6,"la2":29.2853,"lo1":-89.7004,"lo2":-87.6739,"dy":0.0162,"dx":0.0183,"nx":112,"ny":82,"refTime":"2024-09-17T06:00:00:Z","depth":0,"parameterNumber":3,"parameterNumberName":"V-component_of_WINDS"},"data":[0.0,0.0,0.0,0.0,0.0,0.0,0.0,0.0,0.0,0.0,0.0,0.0,0.0,0.0,0.0,0.0,0.0,0.0,0.0,0.0,0.0,0.0,0.0,0.0,0.0,0.0,0.0,0.0,0.0,0.0,0.0,0.0,0.0,0.0,0.0,0.0,0.0,0.0,0.0,0.0,0.0,0.0,0.0,0.0,0.0,0.0,0.0,0.0,0.0,0.0,0.0,0.0,0.0,0.0,0.0,0.0,0.0,0.0,0.0,0.0,0.0,0.0,0.0,0.0,0.0,0.0,0.0,0.0,0.0,0.0,0.0,0.0,0.0,0.0,0.0,0.0,0.0,0.0,0.0,0.0,0.0,0.0,0.0,0.0,0.0,0.0,0.0,0.0,0.0,0.0,0.0,-0.6884,-0.7526,-0.7901,-0.7901,-0.7865,-0.7454,-0.6477,0.0,0.0,0.0,0.0,0.0,0.0,0.0,0.0,0.0,0.0,0.0,0.0,0.0,0.0,0.0,0.0,0.0,0.0,0.0,0.0,0.0,0.0,0.0,0.0,0.0,0.0,0.0,0.0,0.0,0.0,0.0,0.0,0.0,0.0,0.0,0.0,0.0,0.0,0.0,0.0,0.0,0.0,0.0,0.0,0.0,0.0,0.0,0.0,0.0,0.0,0.0,0.0,0.0,0.0,0.0,0.0,0.0,0.0,0.0,0.0,0.0,0.0,0.0,0.0,0.0,0.0,0.0,0.0,0.0,0.0,0.0,0.0,0.0,0.0,0.0,0.0,0.0,0.0,0.0,0.0,0.0,0.0,0.0,0.0,0.0,0.0,0.0,0.0,0.0,0.0,0.0,0.0,0.0,0.0,0.0,0.0,0.0,0.0,0.0,0.0,0.0,0.0,0.0,0.0,-0.6422,-0.737,-0.7744,-0.7901,-0.7901,-0.7737,-0.7303,-0.6465,0.0,0.0,0.0,0.0,0.0,0.0,0.0,0.0,0.0,0.0,0.0,0.0,0.0,0.0,0.0,0.0,0.0,0.0,0.0,0.0,0.0,0.0,0.0,0.0,0.0,0.0,0.0,0.0,0.0,0.0,0.0,0.0,0.0,0.0,0.0,0.0,0.0,0.0,0.0,0.0,0.0,0.0,0.0,0.0,0.0,0.0,0.0,0.0,0.0,0.0,0.0,0.0,0.0,0.0,0.0,0.0,0.0,0.0,0.0,0.0,0.0,0.0,0.0,0.0,0.0,0.0,0.0,0.0,0.0,0.0,0.0,0.0,0.0,0.0,0.0,0.0,0.0,0.0,0.0,0.0,0.0,0.0,0.0,0.0,0.0,0.0,0.0,0.0,0.0,0.0,0.0,0.0,0.0,0.0,0.0,0.0,0.0,0.0,0.0,0.0,0.0,0.0,0.0,-0.6283,-0.6793,-0.7665,-0.7823,-0.7901,-0.7901,-0.784,-0.7369,-0.6471,-0.6015,0.0,0.0,0.0,0.0,0.0,0.0,0.0,0.0,0.0,0.0,0.0,0.0,0.0,0.0,0.0,0.0,0.0,0.0,0.0,0.0,0.0,0.0,0.0,0.0,0.0,0.0,0.0,0.0,0.0,0.0,0.0,0.0,0.0,0.0,0.0,0.0,0.0,0.0,0.0,0.0,0.0,0.0,0.0,0.0,0.0,0.0,0.0,0.0,0.0,0.0,0.0,0.0,0.0,0.0,0.0,0.0,0.0,0.0,0.0,0.0,0.0,0.0,0.0,0.0,0.0,0.0,0.0,0.0,0.0,0.0,0.0,0.0,0.0,0.0,0.0,0.0,0.0,0.0,0.0,0.0,0.0,0.0,0.0,0.0,0.0,0.0,0.0,0.0,0.0,0.0,0.0,0.0,0.0,0.0,0.0,0.0,0.0,0.0,0.0,0.0,0.0,0.0,-0.6869,-0.723,-0.7823,-0.7901,-0.7901,-0.7901,-0.7787,-0.7369,-0.6471,-0.5784,0.0,0.0,0.0,0.0,0.0,0.0,0.0,0.0,0.0,0.0,0.0,0.0,0.0,0.0,0.0,0.0,0.0,0.0,0.0,0.0,0.0,0.0,0.0,0.0,0.0,0.0,0.0,0.0,0.0,0.0,0.0,0.0,0.0,0.0,0.0,0.0,0.0,0.0,0.0,0.0,0.0,0.0,0.0,0.0,0.0,0.0,0.0,0.0,0.0,0.0,0.0,0.0,0.0,0.0,0.0,0.0,0.0,0.0,0.0,0.0,0.0,0.0,0.0,0.0,0.0,0.0,0.0,0.0,0.0,0.0,0.0,0.0,0.0,0.0,0.0,0.0,0.0,0.0,0.0,0.0,0.0,0.0,0.0,0.0,0.0,0.0,0.0,0.0,0.0,0.0,0.0,0.0,0.0,0.0,0.0,0.0,0.0,0.0,0.0,0.0,0.0,0.0,-0.714,-0.7726,-0.7894,-0.7901,-0.7901,-0.7901,-0.7496,-0.7018,-0.6453,-0.5438,0.0,0.0,0.0,0.0,0.0,0.0,0.0,0.0,0.0,0.0,0.0,0.0,0.0,0.0,0.0,0.0,0.0,0.0,0.0,0.0,0.0,0.0,0.0,0.0,0.0,0.0,0.0,0.0,0.0,0.0,0.0,0.0,0.0,0.0,0.0,0.0,0.0,0.0,0.0,0.0,0.0,0.0,0.0,0.0,0.0,0.0,0.0,0.0,0.0,0.0,0.0,0.0,0.0,0.0,0.0,0.0,0.0,0.0,0.0,0.0,0.0,0.0,0.0,0.0,0.0,0.0,0.0,0.0,0.0,0.0,0.0,0.0,0.0,0.0,0.0,0.0,0.0,0.0,0.0,0.0,0.0,0.0,0.0,0.0,0.0,0.0,0.0,0.0,0.0,0.0,0.0,0.0,0.0,0.0,0.0,0.0,0.0,0.0,0.0,0.0,0.0,0.0,-0.6816,-0.7321,0.0,-0.7901,-0.7901,-0.7901,-0.7611,-0.7151,-0.6459,0.0,0.0,0.0,0.0,0.0,0.0,0.0,0.0,0.0,0.0,0.0,0.0,0.0,0.0,0.0,0.0,0.0,0.0,0.0,0.0,0.0,0.0,0.0,0.0,0.0,0.0,0.0,0.0,0.0,0.0,0.0,0.0,0.0,0.0,0.0,0.0,0.0,0.0,0.0,0.0,0.0,0.0,0.0,0.0,0.0,0.0,0.0,0.0,0.0,0.0,0.0,0.0,0.0,0.0,0.0,0.0,0.0,0.0,0.0,0.0,0.0,0.0,0.0,0.0,0.0,0.0,0.0,0.0,0.0,0.0,0.0,0.0,0.0,0.0,0.0,0.0,0.0,0.0,0.0,0.0,0.0,0.0,0.0,0.0,0.0,0.0,0.0,0.0,0.0,0.0,0.0,0.0,0.0,0.0,0.0,0.0,0.0,0.0,0.0,0.0,0.0,0.0,-0.6319,-0.6968,-0.754,0.0,-0.7901,-0.7901,-0.7901,-0.755,-0.7042,-0.6325,0.0,0.0,0.0,0.0,0.0,0.0,0.0,0.0,0.0,0.0,0.0,0.0,0.0,0.0,0.0,0.0,0.0,0.0,0.0,0.0,0.0,0.0,0.0,0.0,0.0,0.0,0.0,0.0,0.0,0.0,0.0,0.0,0.0,0.0,0.0,0.0,0.0,0.0,0.0,0.0,0.0,0.0,0.0,0.0,0.0,0.0,0.0,0.0,0.0,0.0,0.0,0.0,0.0,0.0,0.0,0.0,0.0,0.0,0.0,0.0,0.0,0.0,0.0,0.0,0.0,0.0,0.0,0.0,0.0,0.0,0.0,0.0,0.0,0.0,0.0,0.0,0.0,0.0,0.0,0.0,0.0,0.0,0.0,0.0,0.0,0.0,0.0,0.0,0.0,0.0,0.0,0.0,0.0,0.0,0.0,0.0,0.0,0.0,0.0,0.0,0.0,0.0,-0.6428,-0.7762,-0.8464,-0.7978,-0.7901,-0.7901,-0.7901,-0.7224,-0.658,0.0,0.0,0.0,0.0,0.0,0.0,0.0,0.0,0.0,0.0,0.0,0.0,0.0,0.0,0.0,0.0,0.0,0.0,0.0,0.0,0.0,0.0,0.0,0.0,0.0,0.0,0.0,0.0,0.0,0.0,0.0,0.0,0.0,0.0,0.0,0.0,0.0,0.0,0.0,0.0,0.0,0.0,0.0,0.0,0.0,0.0,0.0,0.0,0.0,0.0,0.0,0.0,0.0,0.0,0.0,0.0,0.0,0.0,0.0,0.0,0.0,0.0,0.0,0.0,0.0,0.0,0.0,0.0,0.0,0.0,0.0,0.0,0.0,0.0,0.0,0.0,0.0,0.0,0.0,0.0,0.0,0.0,0.0,0.0,0.0,0.0,0.0,0.0,0.0,0.0,0.0,0.0,0.0,0.0,0.0,0.0,0.0,0.0,0.0,0.0,0.0,0.0,0.0,-0.6343,-0.7292,-0.7903,-0.7925,-0.7901,-0.7901,-0.7901,-0.7393,-0.686,-0.6325,0.0,0.0,0.0,0.0,0.0,0.0,0.0,0.0,0.0,0.0,0.0,0.0,0.0,0.0,0.0,0.0,0.0,0.0,0.0,0.0,0.0,0.0,0.0,0.0,0.0,0.0,0.0,0.0,0.0,0.0,0.0,0.0,0.0,0.0,0.0,0.0,0.0,0.0,0.0,0.0,0.0,0.0,0.0,0.0,0.0,0.0,0.0,0.0,0.0,0.0,0.0,0.0,0.0,0.0,0.0,0.0,0.0,0.0,0.0,0.0,0.0,0.0,0.0,0.0,0.0,0.0,0.0,0.0,0.0,0.0,0.0,0.0,0.0,0.0,0.0,0.0,0.0,0.0,0.0,0.0,0.0,0.0,0.0,0.0,0.0,0.0,0.0,0.0,0.0,0.0,0.0,0.0,0.0,0.0,0.0,0.0,0.0,0.0,0.0,0.0,0.0,0.0,-0.6584,-0.7576,-0.8229,-0.8196,-0.8002,-0.7901,-0.7901,-0.7556,-0.7042,-0.6295,0.0,0.0,0.0,0.0,0.0,0.0,0.0,0.0,0.0,0.0,0.0,0.0,0.0,0.0,0.0,0.0,0.0,0.0,0.0,0.0,0.0,0.0,0.0,0.0,0.0,0.0,0.0,0.0,0.0,0.0,0.0,0.0,0.0,0.0,0.0,0.0,0.0,0.0,0.0,0.0,0.0,0.0,0.0,0.0,0.0,0.0,0.0,0.0,0.0,0.0,0.0,0.0,0.0,0.0,0.0,0.0,0.0,0.0,0.0,0.0,0.0,0.0,0.0,0.0,0.0,0.0,0.0,0.0,0.0,0.0,0.0,0.0,0.0,0.0,0.0,0.0,0.0,0.0,0.0,0.0,0.0,0.0,0.0,0.0,0.0,0.0,0.0,0.0,0.0,0.0,0.0,0.0,0.0,0.0,0.0,0.0,0.0,0.0,0.0,0.0,0.0,0.0,-0.6954,-0.8249,-0.9001,-0.8573,-0.8209,-0.7955,-0.7901,-0.7701,-0.7158,-0.6131,0.0,0.0,0.0,0.0,0.0,0.0,0.0,0.0,0.0,0.0,0.0,0.0,0.0,0.0,0.0,0.0,0.0,0.0,0.0,0.0,0.0,0.0,0.0,0.0,0.0,0.0,0.0,0.0,0.0,0.0,0.0,0.0,0.0,0.0,0.0,0.0,0.0,0.0,0.0,0.0,0.0,0.0,0.0,0.0,0.0,0.0,0.0,0.0,0.0,0.0,0.0,0.0,0.0,0.0,0.0,0.0,0.0,0.0,0.0,0.0,-0.5554,0.0,0.0,0.0,0.0,0.0,0.0,0.0,0.0,0.0,0.0,0.0,0.0,0.0,0.0,0.0,0.0,0.0,0.0,0.0,0.0,0.0,0.0,0.0,0.0,0.0,0.0,0.0,0.0,0.0,0.0,0.0,0.0,0.0,0.0,0.0,0.0,0.0,0.0,0.0,0.0,0.0,-0.6495,-0.7821,-0.858,-0.8109,-0.8315,-0.8315,-0.7955,-0.7701,-0.7322,-0.6671,-0.593,0.0,0.0,0.0,0.0,0.0,0.0,0.0,0.0,0.0,0.0,0.0,0.0,0.0,0.0,0.0,0.0,0.0,0.0,0.0,0.0,0.0,0.0,0.0,0.0,0.0,0.0,0.0,0.0,0.0,0.0,0.0,0.0,0.0,0.0,0.0,0.0,0.0,0.0,0.0,0.0,0.0,0.0,0.0,0.0,0.0,0.0,0.0,0.0,0.0,0.0,0.0,0.0,0.0,0.0,0.0,0.0,0.0,0.0,0.0,0.0,-0.7261,0.0,0.0,0.0,0.0,0.0,0.0,0.0,0.0,0.0,0.0,0.0,0.0,0.0,0.0,0.0,0.0,0.0,0.0,0.0,0.0,0.0,0.0,0.0,0.0,0.0,0.0,0.0,0.0,0.0,0.0,0.0,0.0,0.0,0.0,0.0,0.0,0.0,0.0,0.0,0.0,-0.7145,-0.8338,-0.9093,-0.883,-0.8679,-0.8521,-0.8262,-0.7927,-0.7514,-0.703,-0.6362,0.0,0.0,0.0,0.0,0.0,0.0,0.0,0.0,0.0,0.0,0.0,0.0,0.0,0.0,0.0,0.0,0.0,0.0,0.0,0.0,0.0,0.0,0.0,0.0,0.0,0.0,0.0,0.0,0.0,0.0,0.0,0.0,0.0,0.0,0.0,0.0,0.0,0.0,0.0,0.0,0.0,0.0,0.0,0.0,0.0,0.0,0.0,0.0,0.0,0.0,0.0,0.0,0.0,-0.8894,-0.8596,-0.8599,-0.8952,-0.9051,-0.902,-0.9487,-0.9498,-0.9029,0.0,0.0,0.0,0.0,0.0,0.0,0.0,0.0,0.0,0.0,0.0,0.0,0.0,0.0,0.0,0.0,0.0,0.0,0.0,0.0,0.0,0.0,0.0,0.0,0.0,-0.8774,-0.8956,0.0,0.0,0.0,0.0,0.0,0.0,0.0,0.0,0.0,0.0,0.0,0.0,-0.7921,-0.8904,-0.9555,-0.9458,-0.8935,-0.8573,-0.8468,-0.8109,-0.7744,-0.7303,-0.6817,-0.6325,0.0,0.0,0.0,0.0,0.0,0.0,0.0,0.0,0.0,0.0,0.0,0.0,0.0,0.0,0.0,0.0,0.0,0.0,0.0,0.0,0.0,0.0,0.0,0.0,0.0,0.0,0.0,0.0,0.0,0.0,0.0,0.0,-0.4662,-0.5891,0.0,0.0,0.0,0.0,0.0,0.0,0.0,0.0,0.0,0.0,0.0,0.0,0.0,0.0,-1.1344,-1.0669,-1.0769,-1.1535,-1.1026,-1.0846,-1.1028,-1.1091,-1.1012,-1.083,-1.0923,0.0,-0.8898,-0.8031,0.0,0.0,0.0,0.0,0.0,0.0,0.0,0.0,0.0,0.0,0.0,0.0,0.0,0.0,0.0,0.0,0.0,0.0,0.0,0.0,0.0,0.0,-1.0,-0.9731,-0.9994,-1.0153,0.0,-0.8741,-0.7844,-0.7397,-0.7133,0.0,0.0,0.0,0.0,0.0,0.0,0.0,-0.7769,-0.8397,-0.8626,-0.8215,-0.8421,-0.8421,-0.8008,-0.7955,-0.7822,-0.7559,-0.7261,-0.6963,-0.6659,-0.5869,0.0,0.0,0.0,0.0,0.0,0.0,0.0,0.0,0.0,0.0,0.0,0.0,0.0,0.0,0.0,0.0,0.0,0.0,0.0,0.0,0.0,0.0,0.0,0.0,0.0,0.0,0.0,0.0,0.0,-0.5572,-0.6801,-0.7424,-0.7496,-0.7185,0.0,0.0,0.0,0.0,0.0,0.0,0.0,0.0,0.0,-1.1639,-1.1703,-1.1598,-1.1487,-1.1193,-1.1312,-1.1911,-1.1711,-1.1543,-1.1398,-1.1398,-1.1295,-1.1097,-1.0857,-1.0354,-0.9685,-0.9255,-0.858,-0.7817,0.0,0.0,0.0,0.0,-0.778,-0.7802,-0.8643,-0.8421,0.0,-0.7979,0.0,0.0,0.0,0.0,0.0,0.0,0.0,0.0,0.0,0.0,0.0,-1.0743,-1.0923,-1.0949,-1.0516,-0.9976,-0.9294,0.0,-0.7954,-0.7596,-0.688,0.0,0.0,0.0,0.0,0.0,-0.7977,-0.8772,-0.9093,-0.8685,-0.8633,-0.8521,-0.8315,-0.8055,-0.7853,-0.778,-0.7571,-0.737,-0.7255,-0.6623,-0.6076,0.0,0.0,0.0,0.0,0.0,0.0,0.0,0.0,0.0,0.0,0.0,0.0,0.0,0.0,0.0,0.0,0.0,0.0,0.0,0.0,0.0,0.0,0.0,0.0,0.0,0.0,0.0,0.0,-0.6865,-0.8414,-0.8414,-0.8414,-0.8007,0.0,0.0,0.0,0.0,0.0,0.0,-0.8957,-0.9955,-1.1168,-1.2581,-1.2621,-1.231,-1.159,-1.1519,-1.167,-1.2094,-1.227,-1.2115,-1.1631,-1.1744,-1.1704,-1.1517,-1.1093,-1.101,-1.1068,-1.0286,-0.9695,-0.9329,-0.8716,-0.8564,-0.8736,-0.9253,-0.9291,-0.9249,-1.0394,-1.0309,-0.9739,-0.9769,0.0,-0.8692,-0.8321,0.0,0.0,0.0,0.0,-0.9113,-0.9783,-1.0346,-1.0855,-1.1207,-1.1431,-1.1374,-1.1035,-1.0922,-1.0427,0.0,-0.874,-0.8414,-0.7339,0.0,0.0,0.0,0.0,-0.87,-0.8844,-0.9506,-0.972,-0.9231,-0.8898,-0.8652,-0.8427,-0.8109,-0.7901,-0.7901,-0.7762,-0.7698,-0.7698,-0.7255,-0.6787,-0.6313,0.0,0.0,0.0,0.0,0.0,0.0,0.0,0.0,0.0,0.0,0.0,0.0,0.0,0.0,0.0,0.0,0.0,0.0,0.0,0.0,0.0,0.0,0.0,0.0,0.0,0.0,0.0,0.0,0.0,-0.8414,-0.8414,0.0,0.0,0.0,0.0,-1.021,-1.037,-1.041,-1.041,-1.0482,-1.1168,-1.2581,-1.2621,-1.239,-1.1895,-1.1606,-1.1837,-1.2597,-1.3187,-1.3147,-1.2536,-1.3009,-1.3099,-1.2884,-1.2548,-1.2632,-1.2908,-1.0688,-1.0038,-1.0272,-0.9798,-0.9995,-1.0587,-1.0608,-1.0472,-1.0229,-1.0279,-1.0588,-1.0814,-1.0415,-1.0072,-0.9807,-0.9778,-0.9778,0.0,0.0,-1.0557,-1.0755,-1.0721,-1.1125,-1.1359,-1.0914,-1.1205,-1.1487,-1.1487,-1.1156,-1.0647,0.0,-0.9616,-0.9416,-0.882,0.0,-0.9046,-0.97,-0.9496,-0.9631,-1.061,-1.0472,-0.996,-0.9176,-0.9095,-0.877,-0.8026,-0.7901,-0.7901,-0.7901,-0.7889,-0.7877,-0.7877,-0.7659,-0.7425,-0.7145,-0.6355,0.0,0.0,0.0,0.0,0.0,0.0,0.0,0.0,0.0,0.0,0.0,0.0,0.0,0.0,0.0,0.0,0.0,0.0,0.0,0.0,0.0,0.0,0.0,0.0,0.0,0.0,0.0,0.0,-0.9659,-0.8965,0.0,0.0,-0.8949,-0.9005,-1.041,-1.136,-1.1871,-1.1871,-1.1871,-1.231,-1.3187,-1.3219,-1.3076,-1.2774,-1.2437,-1.2528,-1.3227,-1.3926,-1.3974,-1.3449,-1.3636,-1.3466,-1.3065,-1.2922,-1.2983,-1.3081,-1.226,-1.1865,-1.1728,-1.1442,-1.1541,-1.1955,-1.2382,-1.2337,-1.1965,-1.2089,-1.2058,-1.1957,-1.1521,-1.1337,-1.1226,-1.1204,-1.13,-1.1417,-1.1287,-1.17,-1.2134,-1.2063,-1.2297,-1.252,-1.2336,-1.2224,-1.2119,-1.1751,-1.1571,-1.1234,-1.0383,-1.0357,-1.0367,-0.994,-1.006,-1.0128,-0.9936,-0.9893,-0.9876,-0.9978,-0.984,-0.9517,-0.8895,-0.8825,-0.8657,-0.8171,-0.8153,-0.8081,-0.7913,-0.7901,-0.7901,-0.7901,-0.7805,-0.7683,-0.7461,-0.7006,-0.6289,0.0,0.0,0.0,0.0,0.0,0.0,0.0,0.0,0.0,0.0,0.0,0.0,0.0,0.0,0.0,0.0,0.0,0.0,0.0,0.0,0.0,0.0,0.0,0.0,0.0,0.0,-0.9476,-1.041,-1.0114,-1.0106,-1.0748,-1.0242,-1.0226,-1.116,-1.2094,-1.2621,-1.2621,-1.2621,-1.2989,-1.391,-1.3942,-1.3799,-1.3497,-1.3108,-1.3251,-1.3942,-1.4418,-1.4403,-1.4172,-1.4172,-1.3885,-1.3485,-1.3485,-1.3408,-1.3408,-1.3408,-1.3248,-1.3021,-1.2669,-1.2617,-1.2832,-1.3346,-1.3325,-1.3129,-1.3259,-1.31,-1.2869,-1.2623,-1.2544,-1.253,-1.2499,-1.2603,-1.2656,-1.2387,-1.2668,-1.3035,-1.2833,-1.3014,-1.3194,-1.3056,-1.2948,-1.2838,-1.2457,-1.2386,-1.2261,-1.1722,-1.1301,-1.094,-1.0672,-1.0905,-1.0948,-1.0448,-1.0437,-1.0376,-1.0066,-0.9967,-0.9754,-0.9176,-0.9104,-0.8903,-0.8321,-0.8291,-0.8177,-0.7919,-0.7901,-0.7901,-0.7901,-0.7811,-0.7731,-0.7595,-0.7164,-0.6586,-0.5869,0.0,0.0,0.0,0.0,0.0,0.0,0.0,0.0,0.0,0.0,0.0,0.0,0.0,0.0,0.0,0.0,0.0,0.0,0.0,0.0,0.0,0.0,0.0,-1.2429,-1.1448,-1.0585,-1.0585,-1.1831,-1.2353,-1.1654,-1.2218,-1.2693,-1.2693,-1.2693,-1.2693,-1.2693,-1.2693,-1.3251,-1.4522,-1.4569,-1.4348,-1.3958,-1.3727,-1.3966,-1.4569,-1.4569,-1.4569,-1.4569,-1.4569,-1.4505,-1.4305,-1.4137,-1.4129,-1.4129,-1.4129,-1.4129,-1.4068,-1.3355,-1.3157,-1.324,-1.339,-1.3498,-1.36,-1.36,-1.3592,-1.3584,-1.3592,-1.36,-1.36,-1.3616,-1.3616,-1.3616,-1.3616,-1.3616,-1.3483,-1.2998,-1.3266,-1.3467,-1.2983,-1.3251,-1.3584,-1.3584,-1.3584,-1.3584,-1.3584,-1.2382,-1.1308,-1.1042,-1.1251,-1.1467,-1.1331,-1.1324,0.0,-1.1073,-1.0989,-1.0739,-1.0019,-0.9925,-0.9464,-0.8413,-0.8303,-0.8189,-0.7931,-0.7907,-0.7901,-0.7901,-0.7701,-0.7607,-0.7607,-0.6835,-0.6434,-0.6422,0.0,0.0,0.0,0.0,0.0,0.0,0.0,0.0,0.0,0.0,0.0,0.0,0.0,0.0,0.0,0.0,0.0,0.0,0.0,0.0,0.0,0.0,-1.1009,-1.2429,-1.2286,-1.2046,-1.2046,-1.3219,-1.3989,-1.3791,-1.395,-1.4069,-1.4069,-1.4069,-1.4069,-1.4069,-1.4069,-1.4244,-1.4553,-1.4569,-1.4506,-1.4442,-1.4379,-1.445,-1.4569,-1.4569,-1.4569,-1.4569,-1.4569,-1.4569,-1.4505,-1.4497,-1.4489,-1.4489,-1.4489,-1.4489,-1.4402,-1.4001,-1.3899,-1.408,-1.4104,-1.4057,-1.3966,-1.3966,-1.3799,-1.3624,-1.3878,-1.3966,-1.4013,-1.4268,-1.4347,-1.4347,-1.4347,-1.4347,-1.4277,-1.4136,-1.4017,-1.3897,-1.376,-1.37,-1.3584,-1.3584,-1.3584,-1.3584,-1.3584,-1.3281,-1.2852,-1.2523,-1.2379,-1.2297,-1.2279,-1.192,0.0,-1.1608,-1.124,-1.0766,-1.0253,-1.0177,-0.9842,-0.8939,-0.8681,-0.8459,-0.8201,-0.8003,-0.7901,-0.7901,-0.7829,-0.784,-0.784,-0.7249,-0.689,0.0,0.0,0.0,0.0,0.0,0.0,0.0,0.0,0.0,0.0,0.0,0.0,0.0,0.0,0.0,0.0,0.0,0.0,0.0,0.0,0.0,0.0,-1.053,-1.1702,-1.2781,-1.3195,-1.3219,-1.2693,-1.3616,-1.4348,-1.4553,-1.4387,-1.4356,-1.4553,-1.4569,-1.4569,-1.4569,-1.4911,-1.503,-1.487,-1.5043,-1.5173,-1.5078,-1.4784,-1.4569,-1.4577,-1.5237,-1.5515,-1.5431,-1.5308,-1.5165,0.0,-1.4927,-1.4951,-1.5062,-1.4927,-1.4951,0.0,0.0,0.0,0.0,0.0,-1.4443,-1.4331,-1.4331,-1.4196,-1.4061,-1.4268,-1.4331,-1.4371,-1.4506,-1.4569,-1.4569,-1.4569,-1.4569,-1.4569,-1.4569,-1.449,-1.4331,-1.4331,-1.418,-1.4029,-1.4029,-1.4029,-1.4029,-1.4029,-1.3902,0.0,-1.3553,-1.3227,-1.2925,-1.2726,-1.2406,-1.2141,-1.1948,-1.1518,-1.1127,-1.087,-1.0692,-1.0365,-0.9762,-0.9301,0.0,0.0,0.0,-0.7853,-0.7786,-0.7786,0.0,0.0,0.0,0.0,0.0,0.0,0.0,0.0,-0.668,-0.6739,0.0,0.0,0.0,0.0,0.0,0.0,0.0,0.0,0.0,0.0,0.0,0.0,0.0,0.0,0.0,0.0,-1.1495,-1.2797,-1.3235,-1.4077,-1.4164,-1.2869,-1.3481,-1.4172,-1.453,-1.419,-1.4142,-1.4609,-1.4648,-1.4672,-1.4792,0.0,0.0,0.0,0.0,-1.5888,-1.5674,-1.5062,-1.4768,-1.4735,-1.6055,-1.6651,-1.6643,-1.6214,-1.5896,-1.5658,-1.5372,-1.5411,-1.5658,-1.5364,-1.5411,-1.561,-1.4959,-1.4601,-1.4569,-1.4569,-1.4569,-1.4569,-1.4569,0.0,0.0,-1.4569,-1.4569,-1.4577,-1.4617,-1.4704,-1.4712,-1.4672,-1.4728,-1.4704,-1.4704,-1.4601,-1.4569,-1.4569,-1.4569,-1.4569,-1.4569,-1.4569,-1.4569,-1.4569,-1.4387,-1.4172,-1.4172,-1.3846,-1.3443,-1.2967,-1.2833,-1.2631,-1.2226,-1.1938,-1.1708,-1.1577,0.0,0.0,-1.054,-0.984,-0.9369,-0.9121,-0.8404,-0.7931,-0.7741,-0.7729,-0.7717,-0.7686,-0.7717,-0.7786,-0.7949,-0.7973,-0.816,-0.8465,-0.7314,-0.746,0.0,0.0,0.0,0.0,0.0,0.0,0.0,0.0,0.0,0.0,0.0,0.0,0.0,0.0,0.0,-1.1376,-1.2134,-1.279,-1.3433,-1.4164,-1.4324,-1.3743,-1.4164,-1.4466,-1.4561,-1.4482,-1.4632,-1.5107,-1.5138,-1.5296,-1.5737,-1.588,0.0,-1.5618,-1.5697,-1.5721,-1.5674,-1.5539,-1.557,-1.5761,0.0,0.0,-1.6158,-1.6063,-1.5896,-1.5674,-1.561,-1.5618,-1.5674,-1.561,-1.5618,-1.5634,-1.5237,-1.4903,-1.4569,-1.4569,-1.4569,-1.4569,-1.4569,-1.4569,-1.4569,-1.4569,-1.4569,-1.4697,-1.499,-1.5078,0.0,-1.5404,-1.5284,-1.5078,-1.5078,-1.4863,-1.4569,-1.4569,-1.4569,-1.4569,-1.4569,-1.4569,-1.4569,-1.4569,-1.4585,-1.4466,-1.4466,-1.4005,-1.3576,-1.3443,-1.3042,-1.2714,-1.2579,-1.2527,-1.2155,-1.1275,-1.1348,-1.1084,-1.0118,-0.9519,-0.915,-0.9101,-0.8727,-0.8507,-0.851,-0.8504,-0.8407,-0.8196,-0.8395,-0.8375,-0.8213,-0.8423,-0.8953,-0.9738,-0.8505,-0.8454,0.0,0.0,0.0,0.0,0.0,0.0,0.0,0.0,0.0,0.0,0.0,-0.8039,-0.9252,0.0,-1.1807,-1.2509,-1.2996,-1.3457,-1.3799,-1.4307,-1.4466,-1.3989,-1.4277,-1.4569,-1.4569,-1.48,-1.5014,-1.5253,-1.5316,-1.5375,-1.5674,-1.5904,-1.5968,-1.5856,-1.6079,-1.6206,-1.6206,-1.6206,-1.6269,-1.6381,-1.6381,-1.6381,-1.6381,-1.6381,-1.6317,-1.6198,-1.6023,-1.6039,-1.6206,-1.6206,-1.6103,-1.592,-1.5761,-1.5475,-1.5157,-1.5157,-1.5054,-1.4911,-1.4911,-1.4911,-1.4911,-1.4911,-1.5022,-1.5197,-1.538,-1.5427,-1.5467,-1.5634,-1.5554,-1.5427,-1.5427,-1.5292,-1.5157,-1.5157,-1.503,-1.4911,-1.4911,-1.4768,-1.4569,-1.4569,-1.4569,-1.4569,-1.4569,-1.4347,-1.4109,-1.4109,-1.3839,-1.3631,-1.3631,-1.3477,-1.3233,-1.2677,-1.2594,-1.2277,-1.1593,-1.051,-0.9678,-0.9292,-0.8924,-0.8681,-0.8681,-0.8681,-0.8789,-0.8884,-0.9015,-0.9189,-0.9276,-0.9413,-0.9798,-1.0359,-0.974,-0.984,0.0,0.0,0.0,0.0,0.0,0.0,0.0,0.0,-0.8986,-0.8851,-0.9099,-0.9768,-1.1048,-1.2202,-1.3212,-1.386,-1.4114,-1.4282,-1.462,-1.4592,-1.4498,-1.4385,-1.4473,-1.4665,-1.4944,-1.508,-1.5311,-1.5589,-1.5519,-1.5447,-1.5541,-1.5968,-1.6158,-1.6158,-1.6532,-1.673,-1.673,-1.673,-1.673,-1.673,-1.673,-1.673,-1.673,-1.673,-1.673,-1.6714,-1.6428,-1.6549,-1.6968,-1.6968,-1.6879,-1.6771,-1.6771,-1.6512,-1.6089,-1.5798,-1.5507,-1.5276,-1.5276,-1.5276,-1.5276,-1.5276,-1.5459,-1.569,-1.5761,-1.5777,-1.5793,-1.5864,-1.5833,-1.5777,-1.5777,-1.5729,-1.5674,-1.5674,-1.5475,-1.5276,-1.5276,-1.4998,-1.4744,-1.4744,-1.4617,-1.4569,-1.4569,-1.4569,-1.4569,-1.4569,-1.4489,-1.4418,-1.4418,-1.4246,-1.4003,-1.3863,-1.369,-1.3388,-1.2866,-1.1567,-1.0518,-0.9853,-0.9307,-0.901,-0.901,-0.901,-0.9223,-0.9571,-0.9741,-0.9982,-1.0386,-1.0514,-1.0706,-1.0955,-1.1012,-1.1233,-1.0825,-1.0743,-1.0702,-1.0543,-1.0742,-1.0967,0.0,0.0,-1.3461,-1.082,-1.1636,-1.3105,-1.3993,-1.4299,-1.4833,-1.6267,-1.5371,-1.4996,-1.6383,-1.5446,-1.4895,-1.5738,-1.5092,-1.5041,-1.6071,-1.5585,-1.5804,-1.7106,-1.6452,-1.6134,-1.6555,-1.6627,-1.6651,-1.6651,-1.6706,-1.673,-1.673,-1.673,-1.673,-1.673,-1.673,-1.673,-1.673,-1.673,-1.673,-1.673,-1.669,-1.709,-1.7836,-1.7836,-1.8292,-1.8955,-1.8955,-1.8461,-1.7553,-1.6207,-1.5658,-1.5626,-1.5626,-1.5626,-1.5626,-1.5626,-1.5642,-1.5737,-1.6047,-1.615,-1.6214,-1.6524,-1.6389,-1.615,-1.615,-1.5912,-1.5674,-1.5674,-1.565,-1.5626,-1.5626,-1.5356,-1.5125,-1.5125,-1.4863,-1.4569,-1.4569,-1.4569,-1.4569,-1.4569,-1.4201,-1.3905,-1.3905,-1.3875,-1.3636,-1.3063,-1.3275,-1.2975,-1.184,-1.1595,-1.1283,-1.0836,-1.0392,-1.014,-1.014,-1.014,-1.0017,-0.9866,-1.0492,-1.0753,-1.0548,-1.1164,-1.1704,-1.2134,-1.2409,-1.2437,-1.2602,-1.2757,-1.2993,0.0,-1.3214,-1.357,-1.4562,-1.5598,-1.63,-1.6118,-1.504,-1.4172,-1.4545,-1.5338,-1.6026,0.0,-1.6167,-1.6167,-1.6793,-1.6376,-1.5965,-1.6097,-1.5745,-1.5459,-1.5339,-1.6314,-1.6841,-1.6674,-1.6461,-1.6758,-1.7674,-1.7683,-1.7683,-1.7683,-1.7521,-1.7204,-1.673,-1.7204,-1.7448,-1.7448,-1.7997,-1.8238,-1.8238,-1.8238,-1.8238,-1.8238,-1.8238,-1.839,-1.8789,-1.8789,-1.8957,-1.9283,-1.9265,-1.9107,-1.8594,-1.7488,-1.6624,-1.5983,-1.5983,-1.5983,-1.5983,-1.5983,-1.6126,-1.6317,-1.6468,-1.6516,-1.6547,-1.669,-1.6627,-1.6516,-1.6516,-1.6404,-1.6293,-1.6293,-1.6134,-1.5983,-1.5983,-1.5713,-1.5467,-1.5467,-1.5189,-1.4959,-1.4959,-1.4784,-1.4569,-1.4569,-1.4418,-1.4274,-1.4274,-1.4274,-1.4201,-1.3912,-1.3823,-1.3577,-1.3097,-1.2617,-1.2248,-1.2043,-1.1577,-1.132,-1.132,-1.132,-1.1448,-1.1568,-1.1898,-1.2166,-1.236,-1.2641,-1.2844,-1.3041,-1.3181,-1.3274,-1.3961,0.0,0.0,-1.4704,-1.4934,-1.5395,-1.6668,-1.7144,-1.7836,-1.9737,-1.8017,-1.5807,-1.4776,-1.5542,-1.6376,-1.6853,-1.719,-1.7385,-1.751,-1.7241,-1.7051,-1.6941,-1.6645,-1.6367,-1.5886,-1.7224,-1.7707,-1.6963,-1.7088,-1.7367,-1.7925,-1.8238,-1.8399,-1.8318,-1.8078,-1.7836,-1.7448,-1.8078,-1.8399,-1.839,-1.9018,-1.9335,-1.9335,-1.9335,-1.9335,-1.9335,-1.9335,-1.9423,-1.9659,-1.9659,-1.9747,-2.0001,-1.9982,-1.9816,-1.9502,-1.8709,-1.7666,-1.6661,-1.6661,-1.6501,-1.6349,-1.6349,-1.6524,-1.673,-1.673,-1.673,-1.673,-1.673,-1.673,-1.673,-1.673,-1.673,-1.673,-1.673,-1.6532,-1.6349,-1.6349,-1.6071,-1.5825,-1.5825,-1.5554,-1.5316,-1.5316,-1.5022,-1.4792,-1.4792,-1.4704,-1.4569,-1.4569,-1.4569,-1.4569,-1.4569,-1.4411,-1.422,-1.4117,-1.353,-1.3134,-1.3042,-1.2564,-1.2294,-1.2294,-1.2294,-1.2429,-1.2766,-1.2967,-1.3243,-1.3584,-1.368,-1.3727,-1.3735,-1.3831,-1.4013,0.0,0.0,-1.4529,-1.5035,-1.5506,-1.5837,-1.6064,-1.6748,-1.7811,-1.9673,-2.0009,-1.8834,-1.5259,-1.4641,-1.5613,-1.8519,-1.8725,-1.8603,-1.8946,-1.8103,-1.7858,-1.8916,-1.8172,-1.7959,0.0,-1.818,-1.8122,-1.9113,-1.87,-1.7844,-1.6812,-1.7764,-1.8318,-1.7997,-1.7997,-1.839,-1.9186,-1.9265,-1.9256,-1.9256,-1.9265,-1.9335,-1.9335,-1.9335,-1.9335,-1.9335,-1.9335,-1.9737,-2.0459,-2.0459,-2.0934,-2.1721,-2.1721,-2.1175,-2.0382,-1.958,-1.87,-1.798,-1.798,-1.7432,-1.6714,-1.6714,-1.6722,-1.673,-1.673,-1.673,-1.673,-1.673,-1.673,-1.673,-1.673,-1.673,-1.673,-1.673,-1.6722,-1.6714,-1.6714,-1.6436,-1.619,-1.619,-1.5904,-1.5666,-1.5666,-1.5388,-1.5165,-1.5165,-1.4863,-1.4569,-1.4569,-1.4569,-1.4569,-1.4569,-1.4561,-1.4482,-1.414,-1.4101,-1.395,-1.3608,-1.3035,-1.2766,-1.2766,-1.2766,-1.2766,-1.2833,-1.331,-1.3584,-1.3584,-1.3926,-1.4093,-1.4101,-1.445,-1.4617,-1.5258,0.0,-1.6459,-1.6926,-1.7633,-1.8235,-1.8248,-1.8627,-1.8833,-1.8372,-1.8921,-1.8442,-1.5196,-1.6237,-1.7619,-1.7619,-1.8666,-1.9565,-1.9717,-1.9545,-1.9334,-1.9158,-1.9155,0.0,0.0,0.0,0.0,-1.9231,-1.903,-1.9044,-1.9177,-1.959,-1.9747,-1.9668,-1.9668,-1.9502,-1.9335,-1.9825,-2.006,-2.006,-2.0692,-2.0934,-2.0934,-2.0934,-2.0934,-2.0934,-2.0934,-2.1088,-2.1328,-2.1328,-2.1568,-2.1807,-2.1807,-2.1645,-2.1252,-2.0382,-1.958,-1.8709,-1.7521,-1.6976,-1.673,-1.673,-1.673,-1.673,-1.673,-1.673,-1.673,-1.673,-1.673,-1.673,-1.673,-1.673,-1.673,-1.673,-1.673,-1.673,-1.673,-1.6643,-1.6555,-1.6555,-1.6269,-1.6031,-1.6031,-1.5737,-1.5515,-1.5515,-1.5014,-1.4569,-1.4569,-1.4569,-1.4569,-1.4569,-1.4569,-1.4522,-1.4474,-1.4466,-1.4411,-1.4291,-1.4073,-1.3995,-1.3995,-1.3995,-1.3995,-1.3995,-1.4143,-1.4283,-1.4283,-1.4403,-1.4466,-1.4466,-1.4585,-1.4569,-1.6175,-1.6972,-1.7759,-1.8359,-1.9102,-1.9681,-1.9681,-1.9792,-1.9605,-1.8566,-1.8787,-1.8384,-1.6026,-1.6408,-1.7236,-1.7629,-1.8841,-1.9737,-1.9965,-2.0389,-2.0389,-1.9644,-1.9913,-2.0296,0.0,0.0,0.0,-1.9705,-1.9971,-2.0137,-2.0041,-2.0304,-2.0459,-2.0459,-2.0693,-2.0537,-2.0216,-2.085,-2.1093,-2.0934,-2.1568,-2.1807,-2.1807,-2.1807,-2.1807,-2.1807,-2.1807,-2.1807,-2.1807,-2.1807,-2.1807,-2.1807,-2.1807,-2.1645,-2.1252,-2.0372,-1.958,-1.8709,-1.7521,-1.6968,-1.673,-1.673,-1.673,-1.673,-1.673,-1.673,-1.673,-1.673,-1.673,-1.673,-1.673,-1.673,-1.673,-1.673,-1.673,-1.673,-1.673,-1.673,-1.673,-1.673,-1.6547,-1.6397,-1.6397,-1.6103,-1.5825,-1.5697,-1.53,-1.4967,-1.4847,-1.472,-1.4569,-1.4569,-1.4569,-1.4569,-1.4569,-1.4569,-1.4569,-1.4569,-1.4569,-1.4569,-1.4569,-1.4569,-1.4569,-1.4569,-1.4569,-1.4569,-1.4569,-1.4569,-1.4569,-1.4569,-1.4569,-1.4712,-1.7092,-1.7802,-1.8458,-1.9255,-1.9737,-2.0085,-2.0085,-2.0064,-2.0053,-2.0074,-1.953,-1.8638,-1.7362,0.0,-1.4894,-1.8371,-1.9065,-1.9354,-1.9913,-2.0659,-2.0969,0.0,0.0,0.0,0.0,0.0,0.0,-2.0595,0.0,-2.1098,-1.9529,-2.0196,-2.0605,-2.0605,-2.1095,-2.151,-2.188,-2.2315,-2.2315,-2.188,-2.188,-2.188,-2.188,-2.188,-2.1859,-2.1849,-2.1849,-2.1828,-2.1807,-2.1807,-2.1807,-2.1807,-2.1807,-2.1328,-2.0459,-1.958,-1.8789,-1.8078,-1.7997,-1.7367,-1.673,-1.673,-1.673,-1.673,-1.673,-1.673,-1.673,-1.673,-1.673,-1.673,-1.673,-1.673,-1.673,-1.673,-1.673,-1.673,-1.673,-1.673,-1.673,-1.673,-1.673,-1.673,-1.673,-1.646,-1.6118,-1.5785,-1.5713,-1.5578,-1.5253,-1.4911,-1.4697,-1.4697,-1.4697,-1.4689,-1.4593,-1.4593,-1.4585,-1.4569,-1.4569,-1.4569,-1.4569,-1.4569,-1.4569,-1.4569,-1.4569,-1.4569,-1.4569,-1.4569,-1.4569,-1.4569,-1.4569,-1.4839,-1.8065,-1.8709,-1.9244,-1.9759,-1.9987,-2.0085,-2.0085,-1.9802,-1.9714,-2.0009,-1.8881,-1.724,-1.5476,0.0,0.0,-1.6912,-1.8951,0.0,-2.0038,-2.0938,0.0,-2.0524,0.0,-2.1321,-2.0969,-2.1248,0.0,0.0,-2.184,-2.1799,-2.1648,-2.2229,-2.2502,-2.2502,-2.2614,-2.2705,-2.2832,-2.2956,-2.2956,-2.2832,-2.2832,-2.2832,-2.2832,-2.2832,-2.2646,-2.2325,-2.2325,-2.2128,-2.1807,-2.1807,-2.1807,-2.1807,-2.1807,-2.1645,-2.1328,-1.9816,-1.9186,-1.8789,-1.7448,-1.6894,-1.673,-1.673,-1.673,-1.673,-1.673,-1.673,-1.673,-1.673,-1.673,-1.673,-1.673,-1.673,-1.673,-1.673,-1.673,-1.673,-1.673,-1.673,-1.673,-1.673,-1.673,-1.673,-1.673,-1.6659,-1.6563,-1.6476,-1.6238,-1.5944,-1.5594,-1.5467,-1.5411,-1.5411,-1.5411,-1.5316,-1.507,-1.5046,-1.4927,-1.4585,-1.4569,-1.4569,-1.4569,-1.4569,-1.4569,-1.4569,-1.4569,-1.4569,-1.4569,-1.4569,-1.4569,-1.4569,-1.4569,-1.4839,-1.8807,-1.9364,-1.9737,-2.0009,-2.0085,-1.9966,-1.9604,-1.9288,-1.8982,-1.8496,-1.7606,0.0,-1.469,-1.5095,0.0,0.0,0.0,0.0,-2.012,-2.0948,-2.1383,0.0,-2.1487,0.0,-2.1445,-2.1838,-2.2211,0.0,-2.2263,-2.2304,-2.277,-2.3049,-2.3184,-2.3184,-2.3381,-2.3494,-2.3494,-2.3287,-2.3184,-2.3184,-2.3184,-2.3184,-2.3184,-2.3184,-2.3049,-2.2801,0.0,-2.2656,-2.2397,-2.219,-2.2232,-2.2366,-2.1963,-2.1691,-2.1369,-2.0284,-1.9344,-1.863,-1.7602,-1.7049,-1.673,-1.673,-1.673,-1.673,-1.673,-1.673,-1.673,-1.673,-1.673,-1.673,-1.673,-1.673,-1.673,-1.673,-1.673,-1.673,-1.673,-1.673,-1.673,-1.673,-1.673,-1.673,-1.673,-1.673,-1.673,-1.673,-1.6563,-1.6365,-1.6166,-1.5872,-1.5674,-1.5674,-1.5674,-1.5602,-1.5419,-1.5268,-1.5102,-1.4895,-1.4728,-1.4569,-1.4569,-1.4569,-1.4569,-1.4569,-1.4569,-1.4569,-1.4569,-1.48,-1.4879,-1.4879,-1.503,-1.5284,-1.9386,-1.9759,-2.0085,-2.0085,-2.0031,-1.9812,-1.8895,-1.8589,-1.8086,-1.6623,0.0,-1.5793,-1.4602,-1.465,-1.5426,-1.7105,0.0,-1.8433,-2.0182,-2.0824,-2.128,-2.1745,-2.1807,-2.1828,-2.189,-2.2263,-2.2542,-2.2677,-2.2677,-2.2853,-2.3256,-2.3339,-2.337,-2.337,-2.3753,-2.3971,-2.3971,-2.3567,-2.337,-2.337,-2.337,-2.337,-2.337,-2.337,-2.3339,-2.3277,0.0,0.0,-2.3153,-2.2749,-2.2822,-2.3111,-2.2304,-2.1713,-2.1312,-2.0771,-1.9557,-1.8158,-1.8078,-1.7448,-1.673,-1.673,-1.673,-1.673,-1.673,-1.673,-1.673,-1.673,-1.673,-1.673,-1.673,-1.673,-1.673,-1.673,-1.673,-1.673,-1.673,-1.673,-1.673,-1.673,-1.673,-1.673,-1.673,-1.673,-1.673,-1.673,-1.673,-1.673,-1.673,-1.6198,-1.5817,-1.5817,-1.5817,-1.5801,-1.5753,-1.5483,-1.53,-1.5253,-1.4951,-1.4784,-1.4784,-1.4784,-1.4784,-1.4784,-1.4784,-1.4784,-1.4784,-1.5102,-1.5253,-1.5253,-1.5539,-1.5864,-1.9824,-2.002,-2.0085,-2.0085,-1.9781,-1.9397,-1.8818,-1.8086,0.0,0.0,-1.5782,-1.5127,-1.4493,-1.4892,-1.5648,-1.6662,0.0,0.0,0.0,0.0,-2.128,0.0,0.0,0.0,0.0,0.0,0.0,0.0,0.0,-2.367,-2.3753,-2.4105,-2.4302,-2.4302,-2.4385,-2.4426,-2.4426,-2.4343,-2.4302,-2.4302,-2.4302,-2.4302,-2.4302,-2.4302,-2.4105,-2.3764,-2.3764,0.0,-2.3184,-2.3101,-2.3111,-2.3163,-2.3008,-2.268,-2.2155,-2.1352,-2.0207,-1.8948,-1.8238,-1.7448,-1.673,-1.673,-1.673,-1.673,-1.673,-1.673,-1.673,-1.673,-1.673,-1.673,-1.673,-1.673,-1.673,-1.673,-1.673,-1.673,-1.673,-1.673,-1.673,-1.673,-1.673,-1.673,-1.673,-1.673,-1.673,-1.673,-1.673,-1.673,-1.673,-1.6627,-1.6547,-1.6547,-1.6547,-1.6428,-1.6142,-1.6063,-1.5904,-1.561,-1.5531,-1.5499,-1.5499,-1.5499,-1.5499,-1.5499,-1.5499,-1.5499,-1.5499,-1.5562,-1.5594,-1.5594,-1.565,-1.5864,-1.9944,-2.0085,-2.0085,-2.0085,-1.9715,-1.9157,-1.8174,0.0,0.0,0.0,-1.4832,-1.4504,-1.3761,0.0,0.0,0.0,0.0,0.0,0.0,0.0,0.0,0.0,0.0,0.0,0.0,0.0,0.0,0.0,0.0,-2.4219,-2.4219,-2.4426,-2.454,-2.454,-2.454,-2.454,-2.454,-2.454,-2.454,-2.454,-2.454,-2.454,-2.454,-2.454,-2.4426,-2.4219,-2.4219,0.0,-2.3877,-2.3639,-2.3681,-2.3826,-2.3111,-2.2842,-2.2721,-2.1825,-2.0556,-1.9335,-1.9265,-1.8479,-1.7448,-1.7917,-1.7448,-1.673,-1.673,-1.673,-1.673,-1.673,-1.673,-1.673,-1.673,-1.673,-1.673,-1.673,-1.673,-1.673,-1.673,-1.673,-1.673,-1.673,-1.673,-1.673,-1.673,-1.673,-1.673,-1.673,-1.673,-1.673,-1.673,-1.673,-1.673,-1.673,-1.673,-1.6667,-1.6492,-1.6309,-1.6134,-1.596,-1.5777,-1.5674,-1.5674,-1.5674,-1.5674,-1.5674,-1.5674,-1.5674,-1.5674,-1.5864,-1.5952,-1.5952,-1.6142,-1.6317,-1.9791,-1.9998,-2.0085,-2.0085,-1.9626,-1.8796,-1.7562,-1.6732,0.0,0.0,-1.4122,-1.4122,-1.3259,0.0,-1.4488,0.0,0.0,0.0,0.0,0.0,0.0,0.0,0.0,0.0,0.0,0.0,0.0,0.0,0.0,0.0,-2.454,-2.454,-2.454,-2.454,-2.454,-2.454,-2.454,-2.454,-2.454,-2.454,-2.454,-2.454,-2.454,-2.454,-2.454,-2.454,-2.454,0.0,0.0,-2.4167,-2.4229,-2.4426,-2.3246,-2.2956,-2.3091,-2.2263,-2.0926,-1.9659,-2.0304,-1.9502,-1.839,-1.9107,-1.8238,-1.6968,-1.6968,-1.6812,-1.673,-1.673,-1.673,-1.673,-1.673,-1.673,-1.673,-1.673,-1.673,-1.673,-1.673,-1.673,-1.673,-1.673,-1.673,-1.673,-1.673,-1.673,-1.673,-1.673,-1.673,-1.673,-1.673,-1.673,-1.673,-1.673,-1.673,-1.673,-1.673,-1.6476,-1.6317,-1.6317,-1.6055,-1.5904,-1.5904,-1.5904,-1.5904,-1.5904,-1.5904,-1.5904,-1.5904,-1.6182,-1.6317,-1.6325,-1.6758,-1.6968,-1.9353,-1.9812,-2.0085,-2.0085,-1.9135,-1.7988,-1.7409,0.0,0.0,-1.4439,-1.4351,-1.422,-1.3718,-1.354,-1.3722,0.0,0.0,-1.5856,0.0,0.0,0.0,0.0,0.0,0.0,0.0,0.0,0.0,0.0,0.0,0.0,-2.454,-2.454,-2.454,-2.454,-2.454,-2.454,-2.454,-2.454,-2.454,-2.454,-2.454,-2.454,-2.454,-2.454,-2.454,-2.454,-2.454,0.0,0.0,-2.4498,-2.4509,-2.4488,-2.396,-2.3525,-2.3122,-2.2625,-2.1605,-2.0382,-2.0459,-1.9904,-1.9177,-1.9256,-1.863,-1.7917,-1.7917,-1.7367,-1.673,-1.673,-1.673,-1.673,-1.673,-1.673,-1.673,-1.673,-1.673,-1.673,-1.673,-1.673,-1.673,-1.673,-1.673,-1.673,-1.673,-1.673,-1.673,-1.673,-1.673,-1.673,-1.673,-1.673,-1.673,-1.673,-1.673,-1.673,-1.673,-1.6706,-1.6683,-1.6683,-1.6659,-1.6635,-1.6635,-1.6635,-1.6635,-1.6635,-1.6635,-1.6635,-1.6635,-1.6667,-1.6683,-1.6683,-1.7513,-1.7917,-1.9135,-1.9561,-1.9714,-1.9714,-1.8851,-1.7802,-1.7005,0.0,-1.4963,-1.4482,-1.4373,-1.4144,-1.3379,-1.3484,-1.3765,0.0,0.0,0.0,0.0,0.0,0.0,0.0,0.0,0.0,0.0,0.0,0.0,0.0,0.0,0.0,-2.454,-2.454,-2.454,-2.454,-2.454,-2.454,-2.454,-2.454,-2.454,-2.454,-2.454,-2.454,-2.454,-2.454,-2.454,-2.454,-2.454,0.0,0.0,-2.4146,-2.3981,-2.3681,-2.3225,-2.2936,-2.2718,-2.2252,-2.1403,-2.0547,-2.1098,-2.0692,-2.0138,-2.0615,-1.9894,-1.8709,-1.8158,-1.7367,-1.673,-1.673,-1.673,-1.673,-1.673,-1.673,-1.673,-1.673,-1.673,-1.673,-1.673,-1.673,-1.673,-1.673,-1.673,-1.673,-1.673,-1.673,-1.673,-1.673,-1.673,-1.673,-1.673,-1.673,-1.673,-1.673,-1.673,-1.673,-1.673,-1.673,-1.6886,-1.7448,-1.6968,-1.7212,-1.8238,-1.7286,-1.7204,-1.8238,-1.7755,-1.7764,-1.8238,-1.8238,-1.8238,-1.823,-1.863,-1.8789,-1.8436,-1.8993,-1.92,-1.92,-1.8381,-1.7387,0.0,-1.5673,-1.4799,-1.4449,-1.4373,-1.4076,-1.3216,-1.344,-1.3644,0.0,0.0,-1.448,0.0,0.0,0.0,0.0,0.0,0.0,0.0,0.0,0.0,0.0,0.0,0.0,0.0,-2.454,-2.454,-2.454,-2.454,-2.454,-2.454,-2.454,-2.454,-2.454,-2.454,-2.454,-2.454,-2.454,-2.454,-2.454,0.0,0.0,0.0,-2.3877,-2.3608,-2.3143,-2.2677,-2.2501,-2.2439,-2.1973,-2.1405,-2.0934,-2.1568,-2.1497,-2.1191,-2.1619,-2.0936,-1.9767,-1.9128,-1.8091,-1.7074,-1.7179,-1.7376,-1.7448,-1.7448,-1.7448,-1.7448,-1.7448,-1.7286,-1.7049,-1.7049,-1.6894,-1.673,-1.673,-1.673,-1.6812,-1.7049,-1.6894,-1.6812,-1.7049,-1.6894,-1.673,-1.673,-1.673,-1.673,-1.673,-1.673,-1.6812,-1.7049,-1.6812,-1.7049,-1.7917,-1.7204,-1.7367,-1.8868,-1.7764,-1.7764,-1.9265,-1.8709,-1.8709,-1.9335,-1.9335,-1.9335,-1.9344,-1.958,-1.9816,-1.7038,-1.7988,-1.8698,-1.8698,-1.7606,-1.6525,0.0,-1.5411,-1.443,-1.4373,-1.4269,-1.4082,-1.3572,-1.3263,-1.3128,-1.3118,-1.3751,0.0,0.0,0.0,0.0,0.0,0.0,0.0,0.0,0.0,0.0,0.0,0.0,0.0,0.0,-2.454,-2.454,-2.454,-2.454,-2.454,-2.454,-2.454,-2.454,-2.454,-2.454,-2.454,-2.454,-2.454,-2.454,0.0,0.0,0.0,0.0,-2.3877,-2.3608,-2.3143,-2.2677,-2.2501,-2.2439,-2.1973,-2.1807,-2.1807,-2.1807,-2.2108,-2.2408,-2.1952,-2.1555,-2.1191,-2.1182,-1.9675,-1.8074,-1.8368,-1.885,-1.9256,-1.9256,-1.9256,-1.9256,-1.9256,-1.863,-1.7997,-1.7997,-1.7286,-1.673,-1.673,-1.673,-1.6968,-1.7844,-1.7286,-1.6968,-1.7844,-1.7286,-1.673,-1.673,-1.673,-1.673,-1.673,-1.673,-1.7049,-1.7917,-1.7204,-1.7049,-1.7917,-1.7204,-1.7131,-1.7997,-1.7997,-1.839,-1.9256,-1.9256,-1.9256,-1.9335,-1.9335,-1.9335,-1.9335,-2.0138,-2.0934,-1.5705,-1.6262,-1.6656,-1.6317,-1.5891,-1.5465,-1.5137,-1.4701,-1.4373,-1.4373,-1.4373,-1.4185,-1.3583,-1.3619,-1.3905,-1.438,-1.4634,0.0,0.0,0.0,0.0,0.0,0.0,0.0,0.0,0.0,0.0,0.0,0.0,0.0,0.0,-2.454,-2.454,-2.454,-2.454,-2.454,-2.454,-2.454,-2.454,-2.454,-2.454,-2.454,-2.454,-2.454,0.0,0.0,0.0,0.0,0.0,-2.3536,-2.3132,-2.2666,-2.2201,-2.2025,-2.2004,-2.1859,-2.1807,-2.1807,-2.1807,-2.2108,-2.2418,-2.1952,-2.1767,-2.1631,-2.1611,-2.0489,-1.9381,-1.9507,-1.9807,-2.0034,-1.9482,-1.9546,-1.9533,-1.8612,-1.8238,-1.7844,-1.7204,-1.6894,-1.673,-1.673,-1.7204,-1.7529,-1.7212,-1.7836,-1.839,-1.8078,-1.823,-1.847,-1.847,-1.847,-1.847,-1.847,-1.847,-1.831,-1.7997,-1.7764,-1.8238,-1.959,-1.8948,-1.9107,-2.0537,-1.9502,-1.958,-2.1011,-2.0459,-2.0372,-2.1011,-2.1011,-2.1161,-2.146,-2.1393,-2.1732,-1.4526,-1.4919,-1.5214,-1.4908,-1.4701,-1.4537,-1.4406,-1.4242,-1.4165,-1.434,-1.4185,-1.3876,-1.3506,-1.3507,-1.38,-1.4445,-1.4821,0.0,0.0,0.0,0.0,0.0,0.0,0.0,0.0,0.0,0.0,0.0,0.0,0.0,0.0,-2.454,-2.454,-2.454,-2.454,-2.454,-2.454,-2.454,-2.454,-2.454,-2.454,-2.454,-2.454,-2.454,0.0,0.0,0.0,0.0,0.0,-2.3381,-2.2915,-2.2449,-2.1983,-2.1807,-2.1807,-2.1807,-2.1807,-2.1807,-2.1807,-2.2108,-2.2449,-2.2159,-2.2359,-2.2682,-2.2569,-2.1783,-2.0955,-2.114,-2.1366,-2.1443,-2.0912,-2.098,-2.0905,-1.9514,-1.9012,-1.8493,-1.7392,-1.6894,-1.673,-1.673,-1.7131,-1.7448,-1.7212,-1.8078,-1.863,-1.8078,-1.847,-1.8789,-1.8789,-1.8789,-1.8948,-1.9256,-1.9335,-1.9186,-1.8948,-1.863,-1.9107,-2.0382,-1.9737,-1.9894,-2.1252,-2.0294,-2.0382,-2.1797,-2.1252,-2.1252,-2.1807,-2.1983,-2.2211,-2.2501,-2.2377,-2.248,0.0,-1.3871,-1.4266,-1.4176,-1.3881,-1.3707,-1.4122,-1.3925,0.0,-1.4187,-1.3744,-1.3276,-1.335,-1.3125,-1.3155,-1.3683,-1.4511,0.0,0.0,0.0,0.0,0.0,0.0,0.0,0.0,0.0,0.0,0.0,0.0,0.0,0.0,-2.4519,-2.4529,-2.4498,-2.4529,-2.454,-2.454,-2.454,-2.454,-2.454,-2.454,-2.454,-2.454,-2.454,0.0,0.0,0.0,0.0,0.0,-2.3391,-2.2956,-2.2542,-2.2056,-2.1859,-2.1859,-2.1859,-2.1838,-2.1807,-2.1807,-2.2128,-2.2563,-2.2625,-2.3205,-2.3888,-2.3919,-2.3291,-2.2656,-2.3063,-2.3236,-2.3256,-2.3163,-2.3184,-2.2869,-2.1499,-2.0548,-1.9607,-1.8279,-1.7302,-1.673,-1.673,-1.673,-1.7049,-1.7764,-1.7997,-1.8078,-1.7997,-1.8078,-1.8078,-1.8078,-1.8158,-1.847,-1.9335,-1.9423,-1.9816,-2.0537,-1.9816,-1.9737,-2.0537,-1.9894,-1.9816,-2.0547,-2.0615,-2.0934,-2.1807,-2.1807,-2.1828,-2.1859,-2.2294,-2.2532,-2.2604,-2.3008,-2.3205,-1.2003,0.0,-1.2636,-1.2287,-1.2374,-1.2582,0.0,-1.292,-1.3107,-1.3173,0.0,-1.3086,-1.3573,-1.3653,-1.3934,-1.5007,-1.568,0.0,0.0,0.0,0.0,0.0,0.0,0.0,0.0,0.0,0.0,0.0,0.0,0.0,0.0,-2.4353,-2.4385,-2.4043,-2.4364,-2.454,-2.454,-2.454,-2.454,-2.454,-2.454,-2.454,-2.454,-2.454,0.0,0.0,0.0,0.0,-2.4322,-2.3515,-2.3329,-2.3474,-2.2656,-2.2335,-2.2335,-2.2335,-2.2108,-2.1807,-2.1807,-2.2335,-2.3143,-2.3836,-2.3981,-2.395,-2.4281,-2.4204,-2.3859,-2.333,-2.3691,-2.3981,-2.2936,-2.3184,-2.3247,-2.1106,-2.0346,-1.9516,-1.7813,-1.7095,-1.673,-1.673,-1.7204,-1.7521,-1.7131,-1.8078,-1.8789,-1.8078,-1.855,-1.9018,-1.9018,-1.9502,-1.9982,-2.0216,-2.0769,-2.1328,-2.1492,-2.0692,-2.0615,-2.1405,-2.1328,-2.1328,-2.1492,-2.1482,-2.1568,-2.1807,-2.1807,-2.1983,-2.2335,-2.2449,-2.2863,-2.3546,-2.3298,-2.3381,-1.1459,-1.1823,-1.2106,-1.1817,-1.1947,-1.2225,-1.2413,0.0,0.0,0.0,0.0,-1.2872,-1.3369,-1.3627,0.0,-1.5183,-1.5939,0.0,0.0,0.0,0.0,0.0,0.0,0.0,0.0,0.0,0.0,0.0,0.0,0.0,0.0,-2.3784,-2.3908,-2.3877,-2.4115,-2.4333,-2.454,-2.454,-2.454,-2.454,-2.454,-2.454,-2.454,-2.454,-2.454,0.0,0.0,0.0,-2.4488,-2.3784,-2.365,-2.3784,-2.2863,-2.2501,-2.247,-2.2263,-2.2025,-2.1807,-2.1807,-2.2418,-2.3308,-2.4012,-2.4209,-2.4229,-2.4467,-2.454,-2.4436,-2.395,-2.4157,-2.4364,-2.3629,-2.3805,-2.3665,-2.164,-2.0983,-2.0382,-1.8637,-1.807,-1.7917,-1.7917,-1.7917,-1.7836,-1.7367,-1.8078,-1.839,-1.7521,-1.8158,-1.8709,-1.8709,-1.9432,-2.0079,-2.0459,-2.1252,-2.1807,-2.1807,-2.1405,-2.1328,-2.1807,-2.1807,-2.1807,-2.1807,-2.1807,-2.1807,-2.1807,-2.1807,-2.2035,-2.2501,-2.2708,-2.3184,-2.3877,-2.3836,-2.3939,-1.1508,-1.1893,-1.2247,-1.1926,-1.2052,-1.2297,-1.2591,0.0,0.0,0.0,0.0,0.0,0.0,0.0,0.0,0.0,0.0,0.0,0.0,0.0,0.0,0.0,0.0,0.0,0.0,0.0,0.0,0.0,0.0,0.0,0.0,-2.3153,-2.3329,-2.366,-2.3805,-2.4053,-2.4436,-2.4509,-2.454,-2.454,-2.454,-2.4509,-2.4447,-2.4509,-2.4509,0.0,0.0,0.0,-2.4509,-2.4064,-2.3919,-2.3898,-2.3039,-2.2666,-2.2553,-2.2159,-2.1921,-2.1818,-2.189,-2.2428,-2.3163,-2.3701,-2.4136,-2.4447,-2.4519,-2.454,-2.454,-2.454,-2.454,-2.4529,-2.4457,-2.4436,-2.3995,-2.2448,-2.2016,-2.1467,-1.9836,-1.9473,-1.9408,-1.9353,-1.8754,-1.8325,-1.8325,-1.8368,-1.8168,-1.7368,-1.7924,-1.8386,-1.8334,-1.9056,-1.986,-2.0557,-2.1353,-2.1911,-2.1911,-2.1911,-2.188,-2.1807,-2.1807,-2.1807,-2.1807,-2.188,-2.1911,-2.1911,-2.1983,-2.2242,-2.2708,-2.3101,-2.3525,-2.3991,-2.4364,-2.454,-1.1826,-1.2289,-1.2472,-1.1559,-1.1994,-1.258,-1.2165,0.0,0.0,0.0,0.0,0.0,0.0,0.0,0.0,0.0,0.0,0.0,0.0,0.0,0.0,0.0,0.0,0.0,0.0,0.0,0.0,0.0,0.0,0.0,0.0,-2.2977,-2.3039,-2.2718,-2.3474,-2.3908,-2.3981,-2.4353,-2.454,-2.454,-2.454,-2.4343,-2.3991,-2.4374,-2.4333,-2.4002,0.0,-2.454,-2.4509,-2.4064,-2.4105,-2.4385,-2.3867,-2.3422,-2.307,-2.2998,-2.248,-2.1859,-2.2252,-2.248,-2.2739,-2.3598,-2.3929,-2.4053,-2.4426,-2.454,-2.454,-2.454,-2.454,-2.4457,-2.4074,-2.3981,-2.378,-2.312,-2.2363,-2.1632,-2.0569,-2.0099,-1.9758,-1.9408,-1.954,-1.9697,-1.9697,-1.9971,-2.019,-2.0023,-2.0107,-2.0071,-1.9743,-2.0434,-2.0934,-2.1094,-2.1896,-2.2387,-2.2387,-2.2387,-2.2221,-2.1828,-2.1807,-2.1807,-2.1807,-2.218,-2.2387,-2.2387,-2.277,-2.3205,-2.367,-2.3743,-2.4002,-2.4436,-2.4669,-2.4871,-1.1544,-1.194,-1.2157,-1.1572,-1.2204,-1.2881,-1.2616,0.0,0.0,0.0,0.0,0.0,0.0,0.0,0.0,0.0,0.0,0.0,0.0,0.0,0.0,0.0,0.0,0.0,0.0,0.0,0.0,0.0,0.0,0.0,0.0,0.0,-2.2459,-2.2501,-2.2915,-2.3256,-2.3505,-2.3712,-2.3929,-2.4188,-2.4188,-2.4074,-2.3888,-2.4084,-2.4198,-2.4229,0.0,-2.4322,-2.4509,-2.4064,-2.4136,-2.4467,-2.3774,-2.3381,-2.3122,-2.2625,-2.217,-2.188,-2.2335,-2.2656,-2.2977,-2.366,-2.4043,-2.4281,-2.4478,-2.454,-2.4488,-2.425,-2.4353,-2.4498,-2.4291,-2.4229,-2.4134,-2.3659,-2.3251,-2.2744,-2.1745,-2.1489,-2.1282,-2.1086,-2.0806,-2.0766,-2.0995,-2.0763,-2.0624,-2.0624,-2.0624,-2.056,-2.0375,-2.1034,-2.1543,-2.1543,-2.2372,-2.2873,-2.2873,-2.2873,-2.2563,-2.1849,-2.1807,-2.1807,-2.1807,-2.2252,-2.2579,-2.2647,-2.3106,-2.3646,-2.4178,-2.4178,-2.442,-2.4871,-2.5031,-2.5031,-1.1191,-1.1513,-1.1834,-1.1787,-1.235,-1.3013,-1.3188,0.0,0.0,0.0,0.0,0.0,0.0,0.0,0.0,0.0,0.0,0.0,0.0,0.0,0.0,0.0,0.0,0.0,0.0,0.0,0.0,0.0,0.0,0.0,0.0,0.0,-2.1963,-2.2325,-2.2439,-2.2666,-2.3018,-2.3132,-2.336,-2.3712,-2.3712,-2.366,-2.3557,-2.367,-2.3846,-2.4053,-2.3815,-2.3908,-2.4198,-2.3857,-2.3919,-2.4157,-2.3463,-2.3122,-2.2925,-2.2108,-2.1807,-2.1859,-2.2211,-2.2563,-2.2946,-2.3412,-2.3857,-2.4219,-2.4219,-2.4302,-2.4291,-2.3846,-2.396,-2.425,-2.4364,-2.4302,-2.4167,-2.3929,-2.3795,-2.3494,-2.2677,-2.2666,-2.2749,-2.2542,-2.218,-2.1937,-2.2274,-2.1884,-2.1512,-2.1512,-2.1512,-2.1474,-2.1379,-2.1982,-2.2334,-2.2334,-2.3012,-2.335,-2.335,-2.3246,-2.2884,-2.217,-2.2128,-2.2128,-2.2128,-2.2573,-2.2901,-2.305,-2.3591,-2.4072,-2.4564,-2.4658,-2.4838,-2.52,-2.5285,-2.5285,-1.1106,-1.1464,-1.1776,-1.2141,-1.2393,0.0,-1.3429,-1.3869,0.0,0.0,0.0,0.0,0.0,0.0,0.0,0.0,0.0,0.0,0.0,0.0,0.0,0.0,0.0,0.0,0.0,0.0,0.0,0.0,0.0,0.0,0.0,0.0,0.0,-2.1859,-2.2273,-2.2511,-2.2542,-2.2977,-2.3205,-2.3236,-2.3236,-2.3008,-2.2615,-2.3039,-2.3018,-2.2666,-2.307,-2.3256,-2.3277,-2.3246,-2.3256,-2.3277,-2.3215,-2.2925,-2.248,-2.1994,-2.1807,-2.1807,-2.1849,-2.188,-2.1983,-2.2449,-2.2915,-2.3287,-2.3287,-2.3588,-2.3836,-2.337,-2.3256,-2.3381,-2.3815,-2.3608,-2.3391,-2.3784,-2.3557,-2.3101,-2.2604,-2.3174,-2.3525,-2.2666,-2.3184,-2.3701,-2.3732,-2.3988,-2.418,-2.418,-2.418,-2.4111,-2.37,-2.3742,-2.3742,-2.3742,-2.3826,-2.3826,-2.3826,-2.3432,-2.3153,-2.3091,-2.3091,-2.3091,-2.3091,-2.3536,-2.3784,-2.3784,-2.4462,-2.4777,-2.4893,-2.5062,-2.5168,-2.52,-2.5464,-2.5559,-1.0733,-1.1204,-1.1756,-1.2193,0.0,0.0,0.0,0.0,0.0,0.0,0.0,0.0,0.0,0.0,0.0,0.0,0.0,0.0,0.0,0.0,0.0,0.0,0.0,0.0,0.0,0.0,0.0,0.0,0.0,0.0,0.0,0.0,0.0,-2.1807,-2.1973,-2.2066,-2.2066,-2.2242,-2.2325,-2.2335,-2.2625,-2.2666,-2.2501,-2.2677,-2.2822,-2.2915,-2.2801,-2.2925,-2.3163,-2.2884,-2.2925,-2.3153,-2.2873,-2.248,-2.2045,-2.1869,-2.1807,-2.1807,-2.1807,-2.1994,-2.2263,-2.2439,-2.2811,-2.3184,-2.3184,-2.3308,-2.335,-2.2884,-2.2967,-2.3225,-2.3401,-2.3318,-2.3225,-2.3412,-2.3318,-2.306,-2.2594,-2.2998,-2.335,-2.2987,-2.3443,-2.3971,-2.425,-2.4436,-2.454,-2.454,-2.454,-2.4478,-2.4312,-2.4291,-2.4291,-2.4291,-2.4291,-2.4291,-2.4291,-2.4126,-2.4033,-2.4033,-2.3505,-2.3184,-2.3184,-2.3629,-2.4033,-2.4261,-2.4798,-2.52,-2.5549,-2.5644,-2.5633,-2.5633,-2.5728,-2.5822,-1.0619,-1.1222,-1.1913,0.0,0.0,0.0,0.0,0.0,0.0,0.0,0.0,0.0,0.0,0.0,0.0,0.0,0.0,0.0,0.0,0.0,0.0,0.0,0.0,0.0,0.0,0.0,0.0,0.0,0.0,0.0,0.0,0.0,0.0,0.0,-2.1807,-2.1807,-2.1807,-2.1807,-2.1807,-2.1807,-2.2128,-2.2273,-2.2273,-2.2273,-2.2449,-2.2739,-2.2418,-2.2459,-2.2729,-2.2408,-2.247,-2.2718,-2.2397,-2.2087,-2.1807,-2.1807,-2.1807,-2.1807,-2.1807,-2.2014,-2.2273,-2.2273,-2.2594,-2.2946,-2.2801,-2.2853,-2.2873,-2.2408,-2.2511,-2.2749,-2.2749,-2.2863,-2.2967,-2.2967,-2.2967,-2.2842,-2.2377,-2.276,-2.3184,-2.3184,-2.3567,-2.4022,-2.4467,-2.454,-2.454,-2.454,-2.454,-2.454,-2.454,-2.454,-2.454,-2.454,-2.454,-2.454,-2.454,-2.454,-2.454,-2.454,-2.396,-2.3608,-2.3608,-2.3919,-2.4242,-2.4628,-2.503,-2.538,-2.5812,-2.5895,-2.5895,-2.5895,-2.5895,-2.5895,-1.0887,-1.1652,-1.2307,0.0,0.0,0.0,0.0,0.0,0.0,0.0,0.0,0.0,0.0,0.0,0.0,0.0,0.0,0.0,0.0,0.0,0.0,0.0,0.0,0.0,0.0,0.0,0.0,0.0,0.0,0.0,0.0,0.0,0.0,0.0,-2.1807,-2.1807,-2.1807,-2.1807,-2.1807,-2.1807,-2.1807,-2.1807,-2.1807,-2.1807,-2.1807,-2.1807,-2.1807,-2.1807,-2.1807,-2.1807,-2.1807,-2.1807,-2.1807,-2.1807,-2.1807,-2.1807,-2.1807,-2.1807,-2.1807,-2.1807,-2.1807,-2.1807,-2.2118,-2.2408,-2.1942,-2.2128,-2.2397,-2.1932,-2.1807,-2.1807,-2.1807,-2.2149,-2.249,-2.249,-2.249,-2.2366,-2.1901,-2.2532,-2.3184,-2.3184,-2.3567,-2.4022,-2.4467,-2.454,-2.454,-2.454,-2.454,-2.454,-2.454,-2.454,-2.454,-2.454,-2.454,-2.454,-2.454,-2.454,-2.454,-2.454,-2.454,-2.454,-2.454,-2.454,-2.4615,-2.4861,-2.5115,-2.5285,-2.5559,-2.5812,-2.5895,-2.5895,-2.5895,-2.5895,-1.05,-1.1362,0.0,0.0,0.0,0.0,0.0,0.0,0.0,0.0,0.0,0.0,0.0,0.0,0.0,0.0,0.0,0.0,0.0,0.0,0.0,0.0,0.0,0.0,0.0,0.0,0.0,0.0,0.0,0.0,0.0,0.0,0.0,0.0,-2.1807,-2.1807,-2.1807,-2.1807,-2.1807,-2.1807,-2.1807,-2.1807,-2.1807,-2.1807,-2.1807,-2.1807,-2.1807,-2.1807,-2.1807,-2.1807,-2.1807,-2.1807,-2.1807,-2.1807,-2.1807,-2.1807,-2.1807,-2.1807,-2.1807,-2.1807,-2.1807,-2.1807,-2.1901,-2.1983,-2.1849,-2.1901,-2.1983,-2.1849,-2.1807,-2.1807,-2.1807,-2.1901,-2.2014,-2.2014,-2.2014,-2.1973,-2.1838,-2.2532,-2.3184,-2.3184,-2.3815,-2.4385,-2.4519,-2.454,-2.454,-2.454,-2.454,-2.454,-2.454,-2.454,-2.454,-2.454,-2.454,-2.454,-2.454,-2.454,-2.4796,-2.5475,-2.4882,-2.454,-2.454,-2.454,-2.47,-2.5115,-2.52,-2.538,-2.5812,-2.5895,-2.5895,-2.5895,-2.5895,-2.5895,-1.0954,0.0,0.0,0.0,0.0,0.0,0.0,0.0,0.0,0.0,0.0,0.0,0.0,0.0,0.0,0.0,0.0,0.0,0.0,0.0,0.0,0.0,0.0,0.0,0.0,0.0,0.0,0.0,0.0,0.0,0.0,0.0,0.0,0.0,-2.1807,-2.1807,-2.1807,-2.1807,-2.1807,-2.1807,-2.1807,-2.1807,-2.1807,-2.1807,-2.1807,-2.1807,-2.1807,-2.1807,-2.1807,-2.1807,-2.1807,-2.1807,-2.1807,-2.1807,-2.1807,-2.1807,-2.1807,-2.1807,-2.1807,-2.1807,-2.1807,-2.1807,-2.1807,-2.1807,-2.1807,-2.1807,-2.1807,-2.1807,-2.1807,-2.1807,-2.1807,-2.1807,-2.1807,-2.1807,-2.1807,-2.1807,-2.1807,-2.2242,-2.2749,-2.3122,-2.3629,-2.4115,-2.4478,-2.454,-2.454,-2.454,-2.454,-2.454,-2.454,-2.454,-2.454,-2.454,-2.454,-2.454,-2.454,-2.454,-2.4882,-2.5812,-2.5391,-2.4967,-2.4786,-2.4625,-2.4615,-2.4956,-2.5115,-2.5464,-2.5895,-2.5895,-2.5895,-2.5895,-2.5895,-2.5895,-1.1882,0.0,0.0,0.0,0.0,0.0,0.0,0.0,0.0,0.0,0.0,0.0,0.0,0.0,0.0,0.0,0.0,0.0,0.0,0.0,0.0,0.0,0.0,0.0,0.0,0.0,0.0,0.0,0.0,0.0,0.0,0.0,0.0,-2.1807,-2.1807,-2.1807,-2.1807,-2.1807,-2.1807,-2.1807,-2.1807,-2.1807,-2.1807,-2.1807,-2.1807,-2.1807,-2.1807,-2.1807,-2.1807,-2.1807,-2.1807,-2.1807,-2.1807,-2.1807,-2.1807,-2.1807,-2.1807,-2.1807,-2.1807,-2.1807,-2.1807,-2.1807,-2.1807,-2.1807,-2.1807,-2.1807,-2.1807,-2.1807,-2.1807,-2.1807,-2.1807,-2.1807,-2.1807,-2.1807,-2.1807,-2.1807,-2.1807,-2.1807,-2.2087,-2.3008,-2.3256,-2.3577,-2.4395,-2.454,-2.454,-2.454,-2.454,-2.454,-2.454,-2.454,-2.454,-2.454,-2.454,-2.454,-2.454,-2.454,-2.4882,-2.5812,-2.5895,-2.5728,-2.5285,-2.4786,-2.454,-2.454,-2.5041,-2.5549,-2.5895,-2.5895,-2.5895,-2.5895,-2.5895,-2.5895,0.0,-1.2306,0.0,0.0,0.0,0.0,0.0,0.0,0.0,0.0,0.0,0.0,0.0,0.0,0.0,0.0,0.0,0.0,0.0,0.0,0.0,0.0,0.0,0.0,0.0,0.0,0.0,0.0,0.0,0.0,0.0,0.0,0.0,-2.1807,-2.1807,-2.1807,-2.1807,-2.1807,-2.1807,0.0,-2.1807,-2.1807,-2.1807,-2.1807,-2.1807,-2.1807,-2.1807,-2.1807,-2.1807,-2.1807,-2.1807,-2.1807,-2.1807,-2.1807,-2.1807,-2.1807,-2.1807,-2.1807,-2.1807,-2.1807,-2.1807,-2.1807,-2.1807,-2.1807,-2.1807,-2.1807,-2.1807,-2.1807,-2.1807,-2.1807,-2.1807,-2.1807,-2.1807,-2.1807,-2.1807,-2.1807,-2.1807,-2.1807,-2.2087,-2.3008,-2.3764,-2.4312,-2.4509,-2.454,-2.454,-2.454,-2.454,-2.454,-2.454,-2.454,-2.454,-2.454,-2.454,-2.454,-2.454,-2.454,-2.4882,-2.5812,-2.5895,-2.5812,-2.5728,-2.4967,-2.454,-2.454,-2.4956,-2.5464,-2.5895,-2.5895,-2.5895,-2.5895,-2.5895,-2.5895,0.0,0.0,0.0,0.0,0.0,0.0,0.0,0.0,0.0,0.0,0.0,0.0,0.0,0.0,0.0,0.0,0.0,0.0,0.0,0.0,0.0,0.0,0.0,0.0,0.0,0.0,0.0,0.0,0.0,0.0,0.0,-2.1807,-2.1807,-2.1807,-2.1807,-2.1807,-2.1807,-2.1807,-2.1807,-2.1807,-2.1807,-2.1807,-2.1807,-2.1807,-2.1807,-2.1807,-2.1807,-2.1807,-2.1807,-2.1807,-2.1807,-2.1807,-2.1807,-2.1807,-2.1807,-2.1807,-2.1807,-2.1807,-2.1807,-2.1807,-2.1807,-2.1807,-2.1807,-2.1807,-2.1807,-2.1807,-2.1807,-2.1807,-2.1807,-2.1807,-2.1807,-2.1807,-2.1807,-2.1807,-2.1807,-2.1807,-2.1807,-2.1807,-2.2211,-2.3567,-2.4219,-2.454,-2.454,-2.454,-2.454,-2.454,-2.454,-2.454,-2.454,-2.454,-2.454,-2.454,-2.454,-2.454,-2.454,-2.454,-2.4882,-2.5812,-2.5895,-2.5895,-2.5895,-2.5391,-2.5137,-2.5137,-2.538,-2.5644,-2.5895,-2.5895,-2.5895,-2.5895,-2.5895,-2.5895,0.0,0.0,0.0,0.0,0.0,0.0,0.0,0.0,0.0,0.0,0.0,0.0,0.0,0.0,0.0,0.0,0.0,0.0,0.0,0.0,0.0,0.0,0.0,0.0,0.0,0.0,0.0,0.0,0.0,0.0,-2.1807,-2.1807,-2.1807,-2.1807,-2.1807,-2.1807,-2.1807,-2.1807,-2.1807,-2.1807,-2.1807,-2.1807,-2.1807,-2.1807,-2.1807,-2.1807,-2.1807,-2.1807,-2.1807,-2.1807,-2.1807,-2.1807,-2.1807,-2.1807,-2.1807,-2.1807,-2.1807,-2.1807,-2.1807,-2.1807,-2.1807,-2.1807,-2.1807,-2.1807,-2.1807,-2.1807,-2.1807,-2.1807,-2.1807,-2.1807,-2.1807,-2.1807,-2.1849,-2.2004,-2.2045,-2.2004,-2.1838,-2.2056,-2.2729,-2.425,-2.454,-2.454,-2.454,-2.454,-2.454,-2.454,-2.454,-2.454,-2.454,-2.454,-2.454,-2.454,-2.454,-2.454,-2.454,-2.454,-2.4796,-2.5644,-2.5812,-2.5895,-2.5895,-2.5895,-2.5895,-2.5895,-2.5895,-2.5895,-2.5895,-2.5895,-2.5895,-2.5895,-2.5895,-2.5895,0.0,0.0,0.0,0.0,0.0,0.0,0.0,0.0,0.0,0.0,0.0,0.0,0.0,0.0,0.0,0.0,0.0,0.0,0.0,0.0,0.0,0.0,0.0,0.0,0.0,0.0,0.0,0.0,0.0,0.0,-2.1807,-2.1807,-2.1807,-2.1807,-2.1807,-2.1807,-2.1807,-2.1807,-2.1807,-2.1807,-2.1807,-2.1807,-2.1807,-2.1807,-2.1807,-2.1807,-2.1807,-2.1807,-2.1807,-2.1807,-2.1807,-2.1807,-2.1807,-2.1807,-2.1807,-2.1807,-2.1807,-2.1807,-2.1807,-2.1807,-2.1807,-2.1807,-2.1807,-2.1807,-2.1807,-2.1807,-2.1807,-2.1807,-2.1807,-2.1807,-2.1807,-2.1807,-2.2004,-2.2811,-2.3008,-2.278,-2.1983,-2.3049,-2.425,-2.4488,-2.454,-2.454,-2.454,-2.454,-2.454,-2.454,-2.454,-2.454,-2.454,-2.454,-2.454,-2.454,-2.454,-2.454,-2.454,-2.454,-2.454,-2.4711,-2.5475,-2.5895,-2.5895,-2.5895,-2.5895,-2.5895,-2.5895,-2.5895,-2.5895,-2.5895,-2.5895,-2.5895,-2.5895,-2.5895,0.0,0.0,0.0,0.0,0.0,0.0,0.0,0.0,0.0,0.0,0.0,0.0,0.0,0.0,0.0,0.0,0.0,0.0,0.0,0.0,0.0,0.0,0.0,0.0,0.0,0.0,0.0,0.0,0.0,-2.1807,-2.1807,-2.1807,-2.1807,-2.1807,-2.1807,-2.1807,-2.1807,-2.1807,-2.1807,-2.1807,-2.1807,-2.1807,-2.1807,-2.1807,-2.1807,-2.1807,-2.1807,-2.1807,-2.1807,-2.1807,-2.1807,-2.1807,-2.1807,-2.1807,-2.1807,-2.1807,-2.1807,-2.1807,-2.1807,-2.1807,-2.1807,-2.1807,-2.1807,-2.1807,-2.1807,-2.1807,-2.1807,-2.1807,-2.1807,-2.1807,-2.1807,-2.2066,-2.2335,-2.2397,-2.3194,-2.3836,-2.3432,-2.3971,-2.454,-2.454,-2.454,-2.454,-2.454,-2.454,-2.454,-2.454,-2.454,-2.454,-2.454,-2.454,-2.454,-2.454,-2.454,-2.454,-2.454,-2.454,-2.454,-2.454,-2.4882,-2.5137,-2.5137,-2.5644,-2.5895,-2.5895,-2.5895,-2.5895,-2.5895,-2.5895,-2.5895,-2.5895,-2.5895,-2.5895,0.0,0.0,0.0,0.0,0.0,0.0,0.0,0.0,0.0,0.0,0.0,0.0,0.0,0.0,0.0,0.0,0.0,0.0,0.0,0.0,0.0,0.0,0.0,0.0,0.0,0.0,0.0,0.0,0.0,-2.1807,-2.1807,-2.1807,-2.1807,-2.1807,-2.1807,-2.1807,-2.1807,-2.1807,-2.1807,-2.1807,-2.1807,-2.1807,-2.1807,-2.1807,-2.1807,-2.1807,-2.1807,-2.1807,-2.1807,-2.1807,-2.1807,-2.1807,-2.1807,-2.1807,-2.1807,-2.1807,-2.1807,-2.1807,-2.1807,-2.1807,-2.1807,-2.1807,-2.1807,-2.1807,-2.1807,-2.1807,-2.1807,-2.1807,-2.1807,-2.1807,-2.1807,-2.2273,-2.2635,-2.2252,-2.3287,-2.4405,-2.4519,-2.454,-2.454,-2.454,-2.454,-2.454,-2.454,-2.454,-2.454,-2.454,-2.454,-2.454,-2.454,-2.454,-2.454,-2.454,-2.454,-2.454,-2.454,-2.454,-2.454,-2.454,-2.454,-2.454,-2.454,-2.5391,-2.5895,-2.5895,-2.5895,-2.5895,-2.5895,-2.5895,-2.5895,-2.5895,-2.5895,-2.5895,0.0,0.0,0.0,0.0,0.0,0.0,0.0,0.0,0.0,0.0,0.0,0.0,0.0,0.0,0.0,0.0,0.0,0.0,0.0,0.0,0.0,0.0,0.0,0.0,0.0,0.0,0.0,0.0,0.0,-2.1807,-2.1807,-2.1807,-2.1807,-2.1807,-2.1807,-2.1807,-2.1807,-2.1807,-2.1807,-2.1807,-2.1807,-2.1807,-2.1807,-2.1807,-2.1807,-2.1807,-2.1807,-2.1807,-2.1807,-2.1807,-2.1807,-2.1807,-2.1807,-2.1807,-2.1807,-2.1807,-2.1807,-2.1807,-2.1807,-2.1807,-2.1807,-2.1807,-2.1807,-2.1807,-2.1807,-2.1807,-2.1807,-2.1807,-2.1807,-2.1807,-2.1807,-2.2273,-2.2801,-2.3049,-2.3525,-2.4033,-2.4447,-2.454,-2.454,-2.454,-2.454,-2.454,-2.454,-2.454,-2.454,-2.454,-2.454,-2.454,-2.454,-2.454,-2.454,-2.454,-2.454,-2.454,-2.454,-2.454,-2.454,-2.454,-2.454,-2.454,-2.454,-2.5391,-2.5895,-2.5895,-2.5895,-2.5895,-2.5895,-2.5895,-2.5895,-2.5895,-2.5895,-2.5895,0.0,0.0,0.0,0.0,0.0,0.0,0.0,0.0,0.0,0.0,0.0,0.0,0.0,0.0,0.0,0.0,0.0,0.0,0.0,0.0,0.0,0.0,0.0,0.0,0.0,0.0,0.0,0.0,0.0,0.0,-2.1807,-2.1807,-2.1662,-2.1373,-2.1652,-2.1807,-2.1807,-2.1807,-2.1807,-2.1807,-2.1807,-2.1807,-2.1807,-2.1807,-2.1807,-2.1807,-2.1807,-2.1807,-2.1807,-2.1807,-2.1807,-2.1807,-2.1807,-2.1807,-2.1807,-2.1807,-2.1807,-2.1807,-2.1807,-2.1807,-2.1807,-2.1807,-2.1807,-2.1807,-2.1807,-2.1807,-2.1807,-2.1807,-2.1807,-2.1807,-2.1807,-2.1973,-2.2459,-2.3753,-2.4178,-2.4343,-2.4509,-2.454,-2.454,-2.454,-2.454,-2.454,-2.454,-2.454,-2.454,-2.454,-2.454,-2.454,-2.454,-2.454,-2.454,-2.454,-2.454,-2.454,-2.454,-2.454,-2.454,-2.454,-2.454,-2.454,-2.454,-2.5391,-2.5895,-2.5895,-2.5895,-2.5895,-2.5895,-2.5895,-2.5895,-2.5895,-2.5895,-2.5895,-0.9095,0.0,0.0,0.0,0.0,0.0,0.0,0.0,0.0,0.0,0.0,0.0,0.0,0.0,0.0,0.0,0.0,0.0,0.0,0.0,0.0,0.0,0.0,0.0,0.0,0.0,0.0,0.0,0.0,0.0,-2.1342,-2.1342,-2.1269,-2.1124,-2.1414,-2.1652,-2.1807,-2.1807,-2.1807,-2.1807,-2.1807,-2.1807,-2.1807,-2.1807,-2.1807,-2.1807,-2.1807,-2.1807,-2.1807,-2.1807,-2.1807,-2.1807,-2.1807,-2.1807,-2.1807,-2.1807,-2.1807,-2.1807,-2.1807,-2.1807,-2.1807,-2.1807,-2.1807,-2.1807,-2.1807,-2.1807,-2.1807,-2.1807,-2.1807,-2.1807,-2.1807,-2.2035,-2.2656,-2.4178,-2.454,-2.454,-2.454,-2.454,-2.454,-2.454,-2.454,-2.454,-2.454,-2.454,-2.454,-2.454,-2.454,-2.454,-2.454,-2.454,-2.454,-2.454,-2.454,-2.454,-2.454,-2.454,-2.454,-2.454,-2.454,-2.454,-2.454,-2.5137,-2.5559,-2.5895,-2.5895,-2.5895,-2.5895,-2.5895,-2.5895,-2.5895,-2.5895,-2.5728,0.0,0.0,0.0,0.0,0.0,0.0,0.0,0.0,0.0,0.0,0.0,0.0,0.0,0.0,0.0,0.0,0.0,0.0,0.0,0.0,0.0,0.0,0.0,0.0,0.0,0.0,0.0,0.0,0.0,-2.04,-2.04,-2.04,-2.0617,-2.1073,-2.1093,-2.1311,-2.1776,-2.1797,-2.1807,-2.1807,-2.1807,-2.1807,-2.1807,-2.1807,-2.1807,-2.1807,-2.1807,-2.1807,-2.1807,-2.1807,-2.1807,-2.1807,-2.1807,-2.1807,-2.1807,-2.1807,-2.1807,-2.1807,-2.1807,-2.1807,-2.1807,-2.1807,-2.1807,-2.1807,-2.1807,-2.1807,-2.1807,-2.1807,-2.1807,-2.1818,-2.188,-2.2553,-2.3453,-2.4333,-2.454,-2.454,-2.454,-2.454,-2.454,-2.454,-2.454,-2.454,-2.454,-2.454,-2.454,-2.454,-2.454,-2.454,-2.454,-2.454,-2.454,-2.454,-2.454,-2.454,-2.454,-2.454,-2.454,-2.454,-2.454,-2.454,-2.454,-2.454,-2.4967,-2.5895,-2.5895,-2.5895,-2.5895,-2.5895,-2.5895,-2.5895,-2.5895,-2.5391,-0.774,0.0,0.0,0.0,0.0,0.0,0.0,0.0,0.0,0.0,0.0,0.0,0.0,0.0,0.0,0.0,0.0,0.0,0.0,0.0,0.0,0.0,0.0,0.0,0.0,0.0,0.0,0.0,-1.9748,-1.9944,-1.9944,-1.9944,-2.0151,-2.0596,-2.0617,-2.0834,-2.13,-2.1631,-2.1807,-2.1807,-2.1807,-2.1807,-2.1807,-2.1807,-2.1807,-2.1807,-2.1807,-2.1807,-2.1807,-2.1807,-2.1807,-2.1807,-2.1807,-2.1807,-2.1807,-2.1807,-2.1807,-2.1807,-2.1807,-2.1807,-2.1807,-2.1807,-2.1807,-2.1807,-2.1807,-2.1807,-2.1807,-2.1807,-2.1807,-2.2108,-2.3443,-2.3981,-2.4229,-2.4478,-2.454,-2.454,-2.454,-2.454,-2.454,-2.454,-2.454,-2.454,-2.454,-2.454,-2.454,-2.454,-2.454,-2.454,-2.454,-2.454,-2.454,-2.454,-2.454,-2.454,-2.454,-2.454,-2.454,-2.454,-2.454,-2.454,-2.454,-2.454,-2.4967,-2.5895,-2.5895,-2.5895,-2.5895,-2.5895,-2.5895,-2.5895,-2.5895,-2.5728,-0.7671,0.0,0.0,0.0,0.0,0.0,0.0,0.0,0.0,0.0,0.0,0.0,0.0,0.0,0.0,0.0,0.0,0.0,0.0,0.0,0.0,0.0,0.0,0.0,0.0,0.0,0.0,-1.8775,-1.9034,-1.9256,-1.9256,-1.9256,-1.9479,-2.0131,-2.0151,-2.0462,-2.1104,-2.1383,-2.1621,-2.1807,-2.1807,-2.1807,-2.1807,-2.1807,-2.1807,-2.1807,-2.1807,-2.1807,-2.1807,-2.1807,-2.1807,-2.1807,-2.1807,-2.1807,-2.1807,-2.1807,-2.1807,-2.1807,-2.1807,-2.1807,-2.1807,-2.1807,-2.1807,-2.1807,-2.1807,-2.1807,-2.1807,-2.1807,-2.1807,-2.2232,-2.4064,-2.454,-2.4353,-2.3577,-2.3981,-2.454,-2.454,-2.454,-2.454,-2.454,-2.454,-2.454,-2.454,-2.454,-2.454,-2.454,-2.454,-2.454,-2.454,-2.454,-2.454,-2.454,-2.454,-2.454,-2.454,-2.454,-2.454,-2.454,-2.454,-2.454,-2.454,-2.454,-2.4796,-2.5306,-2.5728,-2.5895,-2.5895,-2.5895,-2.5895,-2.5895,-2.5895,-2.5895,0.0,0.0,0.0,0.0,0.0,0.0,-1.1481,-1.1986,0.0,0.0,0.0,0.0,0.0,0.0,0.0,0.0,0.0,0.0,0.0,0.0,0.0,0.0,0.0,0.0,0.0,-1.8682,-1.8744,-1.834,-1.835,-1.8382,-1.8382,-1.8382,-1.8754,-1.965,-1.9734,-2.01,-2.0959,-2.1062,-2.1321,-2.1725,-2.1787,-2.1807,-2.1807,-2.1807,-2.1807,-2.1807,-2.1807,-2.1807,-2.1807,-2.1807,-2.1807,-2.1807,-2.1807,-2.1807,-2.1807,-2.1807,-2.1807,-2.1807,-2.1807,-2.1807,-2.1807,-2.1807,-2.1807,-2.1807,-2.1807,-2.1807,-2.1807,-2.1807,-2.1807,-2.218,-2.3815,-2.424,-2.3826,-2.219,-2.3205,-2.454,-2.454,-2.454,-2.454,-2.454,-2.454,-2.454,-2.454,-2.454,-2.454,-2.454,-2.454,-2.454,-2.454,-2.454,-2.454,-2.454,-2.454,-2.454,-2.454,-2.454,-2.454,-2.454,-2.454,-2.454,-2.454,-2.454,-2.454,-2.454,-2.5391,-2.5895,-2.5895,-2.5895,-2.5895,-2.5895,-2.5895,-2.5895,0.0,0.0,0.0,0.0,0.0,0.0,0.0,-1.0125,0.0,0.0,0.0,0.0,0.0,0.0,0.0,0.0,0.0,0.0,0.0,0.0,0.0,0.0,0.0,0.0,0.0,-1.7947,-1.7957,-1.7864,-1.8185,-1.8382,-1.8382,-1.8382,-1.8464,-1.864,-1.9013,-1.9468,-2.0017,-2.0752,-2.1155,-2.1248,-2.1631,-2.1807,-2.1807,-2.1807,-2.1807,-2.1807,-2.1807,-2.1807,-2.1807,-2.1807,-2.1807,-2.1807,-2.1807,-2.1807,-2.1807,-2.1807,-2.1807,-2.1807,-2.1807,-2.1807,-2.1807,-2.1807,-2.1807,-2.1807,-2.1807,-2.1807,-2.1807,-2.1807,-2.1807,-2.189,-2.2252,-2.2346,-2.2252,-2.189,-2.3205,-2.454,-2.454,-2.454,-2.454,-2.454,-2.454,-2.454,-2.454,-2.454,-2.454,-2.454,-2.454,-2.454,-2.454,-2.454,-2.454,-2.454,-2.454,-2.454,-2.454,-2.454,-2.454,-2.454,-2.454,-2.454,-2.454,-2.454,-2.454,-2.454,-2.5391,-2.5895,-2.5895,-2.5895,-2.5895,-2.5895,-2.5895,-2.5895,0.0,0.0,0.0,-0.8945,0.0,0.0,0.0,0.0,0.0,0.0,0.0,0.0,0.0,0.0,0.0,0.0,0.0,0.0,0.0,0.0,0.0,0.0,0.0,0.0,0.0,-1.7668,-1.7668,-1.7668,-1.7936,-1.8154,-1.8371,-1.8382,-1.8485,-1.8713,-1.8723,-1.8951,-1.9474,-1.9862,-2.0213,-2.0452,-2.1135,-2.1455,-2.1455,-2.1455,-2.159,-2.1797,-2.1559,-2.159,-2.1807,-2.1807,-2.1807,-2.1807,-2.1807,-2.1807,-2.1807,-2.1807,-2.1807,-2.1807,-2.1807,-2.1807,-2.1807,-2.1807,-2.1807,-2.1807,-2.1807,-2.1807,-2.1807,-2.1807,-2.1807,-2.1807,-2.1807,-2.1807,-2.1807,-2.1807,-2.3205,-2.454,-2.454,-2.454,-2.454,-2.454,-2.454,-2.454,-2.454,-2.454,-2.454,-2.454,-2.454,-2.454,-2.454,-2.454,-2.454,-2.454,-2.454,-2.454,-2.454,-2.454,-2.454,-2.454,-2.454,-2.454,-2.454,-2.454,-2.4711,-2.5221,-2.5221,-2.5221,-2.5221,-2.5644,-2.5895,-2.5895,-2.5895,-2.5895,0.0,0.0,0.0,0.0,0.0,-0.9246,0.0,0.0,0.0,-1.1219,0.0,0.0,0.0,0.0,0.0,0.0,0.0,0.0,0.0,0.0,0.0,0.0,0.0,0.0,0.0,-1.7522,-1.7543,-1.7657,-1.7513,-1.7698,-1.8226,-1.8257,-1.8464,-1.892,-1.8578,-1.8557,-1.893,-1.9023,-1.921,-1.9567,-2.0327,-2.0721,-2.0721,-2.0907,-2.1145,-2.1404,-2.13,-2.1414,-2.1683,-2.1766,-2.1807,-2.1807,-2.1807,-2.1807,-2.1807,-2.1807,-2.1807,-2.1807,-2.1807,-2.1807,-2.1807,-2.1807,-2.1807,-2.1807,-2.1807,-2.1807,-2.1807,-2.1807,-2.1807,-2.1807,-2.1807,-2.1807,-2.1807,-2.1807,-2.3205,-2.454,-2.454,-2.454,-2.454,-2.454,-2.454,-2.454,-2.454,-2.454,-2.454,-2.454,-2.454,-2.454,-2.454,-2.454,-2.454,-2.454,-2.454,-2.454,-2.454,-2.454,-2.454,-2.454,-2.454,-2.454,-2.454,-2.454,-2.4882,-2.5644,-2.4882,-2.454,-2.454,-2.5221,-2.5644,-2.5644,-2.5644,-2.5728,0.0,0.0,0.0,0.0,-0.9573,0.0,0.0,0.0,-0.898,-0.8863,0.0,0.0,0.0,0.0,0.0,0.0,0.0,0.0,0.0,0.0,0.0,0.0,0.0,0.0,0.0,0.0,-1.687,-1.7606,-1.6984,-1.6901,-1.7761,-1.7802,-1.7999,-1.8444,-1.8402,-1.8402,-1.8454,-1.8868,-1.8889,-1.8547,-1.9054,-1.9303,-1.9334,-2.0141,-2.0317,-2.0058,-2.1228,-2.1518,-2.1228,-2.1631,-2.1807,-2.1807,-2.1807,-2.1807,-2.1807,-2.1807,-2.1807,-2.1807,-2.1807,-2.1807,-2.1807,-2.1807,-2.1807,-2.1807,-2.1807,-2.1807,-2.1807,-2.1807,-2.1807,-2.1807,-2.1807,-2.1807,-2.1807,-2.1807,-2.3205,-2.454,-2.454,-2.454,-2.454,-2.454,-2.454,-2.454,-2.454,-2.454,-2.454,-2.454,-2.454,-2.454,-2.454,-2.454,-2.454,-2.454,-2.454,-2.454,-2.454,-2.454,-2.454,-2.454,-2.454,-2.454,-2.454,-2.454,-2.454,-2.4625,-2.454,-2.454,-2.454,-2.4625,-2.4625,-2.4625,-2.4625,-2.5137,0.0,0.0,0.0,0.0,0.0,0.0,-0.896,0.0,-0.8611,0.0,0.0,0.0,0.0,0.0,0.0,0.0,0.0,0.0,0.0,0.0,0.0,0.0,0.0,0.0,0.0,0.0,0.0,0.0,0.0,-1.6777,-1.7626,-1.7668,-1.7812,-1.7999,-1.7999,-1.7999,-1.7999,-1.8444,-1.8568,-1.8382,-1.9116,-1.9323,-1.9085,-1.9468,-1.9686,-1.9858,-2.0369,-2.0814,-2.1155,-2.1621,-2.1807,-2.1807,-2.1807,-2.1807,-2.1807,-2.1807,-2.1807,-2.1807,-2.1807,-2.1807,-2.1807,-2.1807,-2.1807,-2.1807,-2.1807,-2.1807,-2.1807,-2.1807,-2.1807,-2.1807,-2.1807,-2.1807,-2.1807,-2.1807,-2.3205,-2.454,-2.454,-2.454,-2.454,-2.454,-2.454,-2.454,-2.454,-2.454,-2.454,-2.454,-2.454,-2.454,-2.454,-2.454,-2.454,-2.454,-2.454,-2.454,-2.454,-2.454,-2.454,-2.454,-2.454,-2.454,-2.454,-2.454,-2.454,-2.454,-2.454,-2.454,-2.454,-2.454,-2.454,-2.454,-2.454,-2.4711,-1.0335,0.0,0.0,0.0,0.0,0.0,0.0,0.0,0.0,0.0,0.0,0.0,0.0,0.0,0.0,0.0,0.0,0.0,0.0,0.0,0.0,0.0,0.0,0.0,0.0,0.0,0.0,0.0,0.0,-1.6125,-1.7305,-1.7481,-1.7544,-1.7729,-1.7668,-1.7668,-1.7668,-1.804,-1.8133,-1.8019,-1.8827,-1.8961,-1.8526,-1.8764,-1.9003,-1.922,-1.9536,-2.0017,-2.0772,-2.1104,-2.1466,-2.1787,-2.1621,-2.1652,-2.1807,-2.1807,-2.1807,-2.1807,-2.1807,-2.1807,-2.1807,-2.1807,-2.1807,-2.1807,-2.1807,-2.1807,-2.1807,-2.1807,-2.1807,-2.1807,-2.1807,-2.1807,-2.1807,-2.1807,-2.3205,-2.454,-2.454,-2.454,-2.454,-2.454,-2.454,-2.454,-2.454,-2.454,-2.454,-2.454,-2.454,-2.454,-2.454,-2.454,-2.454,-2.454,-2.454,-2.454,-2.454,-2.454,-2.454,-2.454,-2.454,-2.454,-2.454,-2.454,-2.454,-2.454,-2.454,-2.454,-2.454,-2.454,-2.454,-2.454,-2.454,-2.454,0.0,0.0,0.0,-0.9794,0.0,0.0,0.0,0.0,-0.9279,0.0,0.0,0.0,0.0,0.0,0.0,0.0,0.0,0.0,0.0,0.0,0.0,0.0,0.0,0.0,0.0,0.0,0.0,0.0,0.0,0.0,-1.6322,-1.6829,-1.7203,-1.7657,-1.7668,-1.7668,-1.7668,-1.7688,-1.7461,-1.7028,-1.7513,-1.7492,-1.708,-1.8009,-1.8175,-1.7843,-1.8713,-1.9432,-1.9869,-1.9889,-2.0607,-2.1745,-2.1145,-2.128,-2.1807,-2.1807,-2.1807,-2.1807,-2.1807,-2.1807,-2.1807,-2.1807,-2.1807,-2.1807,-2.1807,-2.1807,-2.1807,-2.1807,-2.1807,-2.1807,-2.1807,-2.1807,-2.1807,-2.1807,-2.3205,-2.454,-2.454,-2.454,-2.454,-2.454,-2.454,-2.454,-2.454,-2.454,-2.454,-2.454,-2.454,-2.454,-2.454,-2.454,-2.454,-2.454,-2.454,-2.454,-2.454,-2.454,-2.454,-2.454,-2.454,-2.454,-2.454,-2.454,-2.454,-2.454,-2.454,-2.454,-2.454,-2.454,-2.454,-2.454,-2.454,-2.454,0.0,0.0,-1.3439,-1.1516,0.0,0.0,0.0,0.0,0.0,0.0,0.0,0.0,0.0,0.0,0.0,0.0,0.0,0.0,0.0,0.0,0.0,0.0,0.0,0.0,0.0,0.0,0.0,0.0,-1.4252,0.0,0.0,-1.6353,-1.6674,-1.6829,-1.7129,-1.7214,-1.7214,-1.7523,-1.7802,-1.7926,-1.8081,-1.8081,-1.7936,-1.8237,-1.8299,-1.8175,-1.8485,-1.9054,-1.9806,-1.9427,-2.011,-2.128,-2.0565,-2.0917,-2.1807,-2.1807,-2.1807,-2.1807,-2.1807,-2.1807,-2.1807,-2.1807,-2.1807,-2.1807,-2.1807,-2.1807,-2.1807,-2.1807,-2.1807,-2.1807,-2.1807,-2.0907,-2.0307,-2.1518,-2.3205,-2.454,-2.454,-2.454,-2.454,-2.454,-2.454,-2.454,-2.454,-2.454,-2.454,-2.454,-2.454,-2.454,-2.454,-2.454,-2.454,-2.454,-2.454,-2.454,-2.454,-2.454,-2.454,-2.454,-2.454,-2.454,-2.454,-2.454,-2.454,-2.454,-2.454,-2.454,-2.454,-2.454,-2.454,-2.454,-2.454,-2.454,-1.3765,-1.426,0.0,-1.2697,-1.2419,0.0,-1.0187,0.0,0.0,0.0,0.0,0.0,0.0,0.0,0.0,0.0,0.0,0.0,0.0,0.0,0.0,0.0,0.0,0.0,0.0,0.0,-1.3051,-1.3993,0.0,0.0,0.0,0.0,-1.6384,-1.6384,-1.6653,-1.6881,-1.6987,-1.7276,-1.7626,-1.7905,-1.8226,-1.8299,-1.8154,-1.8309,-1.8382,-1.8371,-1.8216,-1.8671,-1.9536,-1.8847,-1.9499,-2.0824,-2.0338,-2.0834,-2.1807,-2.1807,-2.1807,-2.1807,-2.1807,-2.1807,-2.1807,-2.1807,-2.1807,-2.1807,-2.1807,-2.1807,-2.1807,-2.1807,-2.1807,-2.1807,-2.1807,-2.0441,-1.953,-2.1373,-2.3205,-2.454,-2.454,-2.454,-2.454,-2.454,-2.454,-2.454,-2.454,-2.454,-2.454,-2.454,-2.454,-2.454,-2.454,-2.454,-2.454,-2.454,-2.454,-2.454,-2.454,-2.454,-2.454,-2.454,-2.454,-2.454,-2.454,-2.454,-2.454,-2.454,-2.454,-2.454,-2.454,-2.454,-2.454,-2.454,-2.454,-2.454]}]]